[[{"header":{"parameterUnit":"m.s-1","parameterCategory":1,"la1":30.6,"la2":29.2853,"lo1":-89.7004,"lo2":-87.6739,"dy":0.0162,"dx":0.0183,"nx":112,"ny":82,"refTime":"2023-05-03T18:00:00:Z","depth":0,"parameterNumber":2,"parameterNumberName":"U-component_of_WINDS"},"data":[0.0,0.0,0.0,0.0,0.0,0.0,0.0,0.0,0.0,0.0,0.0,0.0,0.0,0.0,0.0,0.0,0.0,0.0,0.0,0.0,0.0,0.0,0.0,0.0,0.0,0.0,0.0,0.0,0.0,0.0,0.0,0.0,0.0,0.0,0.0,0.0,0.0,0.0,0.0,0.0,0.0,0.0,0.0,0.0,0.0,0.0,0.0,0.0,0.0,0.0,0.0,0.0,0.0,0.0,0.0,0.0,0.0,0.0,0.0,0.0,0.0,0.0,0.0,0.0,0.0,0.0,0.0,0.0,0.0,0.0,0.0,0.0,0.0,0.0,0.0,0.0,0.0,0.0,0.0,0.0,0.0,0.0,0.0,0.0,0.0,0.0,0.0,0.0,0.0,0.0,-3.074,-3.0604,-3.0787,-3.082,-3.0623,-3.0668,-2.9929,-2.8107,0.0,0.0,0.0,0.0,0.0,0.0,0.0,0.0,0.0,0.0,0.0,0.0,0.0,0.0,0.0,0.0,0.0,0.0,0.0,0.0,0.0,0.0,0.0,0.0,0.0,0.0,0.0,0.0,0.0,0.0,0.0,0.0,0.0,0.0,0.0,0.0,0.0,0.0,0.0,0.0,0.0,0.0,0.0,0.0,0.0,0.0,0.0,0.0,0.0,0.0,0.0,0.0,0.0,0.0,0.0,0.0,0.0,0.0,0.0,0.0,0.0,0.0,0.0,0.0,0.0,0.0,0.0,0.0,0.0,0.0,0.0,0.0,0.0,0.0,0.0,0.0,0.0,0.0,0.0,0.0,0.0,0.0,0.0,0.0,0.0,0.0,0.0,0.0,0.0,0.0,0.0,0.0,0.0,0.0,0.0,0.0,0.0,0.0,0.0,0.0,0.0,0.0,0.0,0.0,-3.0521,-2.9778,-3.0418,-3.0566,-2.9772,-3.0313,-2.9924,-2.8109,0.0,0.0,0.0,0.0,0.0,0.0,0.0,0.0,0.0,0.0,0.0,0.0,0.0,0.0,0.0,0.0,0.0,0.0,0.0,0.0,0.0,0.0,0.0,0.0,0.0,0.0,0.0,0.0,0.0,0.0,0.0,0.0,0.0,0.0,0.0,0.0,0.0,0.0,0.0,0.0,0.0,0.0,0.0,0.0,0.0,0.0,0.0,0.0,0.0,0.0,0.0,0.0,0.0,0.0,0.0,0.0,0.0,0.0,0.0,0.0,0.0,0.0,0.0,0.0,0.0,0.0,0.0,0.0,0.0,0.0,0.0,0.0,0.0,0.0,0.0,0.0,0.0,0.0,0.0,0.0,0.0,0.0,0.0,0.0,0.0,0.0,0.0,0.0,0.0,0.0,0.0,0.0,0.0,0.0,0.0,0.0,0.0,0.0,0.0,0.0,0.0,0.0,0.0,-3.0812,-3.0651,-3.0245,-3.0197,-3.0017,-2.954,-2.9835,-2.9277,-2.7458,-2.76,0.0,0.0,0.0,0.0,0.0,0.0,0.0,0.0,0.0,0.0,0.0,0.0,0.0,0.0,0.0,0.0,0.0,0.0,0.0,0.0,0.0,0.0,0.0,0.0,0.0,0.0,0.0,0.0,0.0,0.0,0.0,0.0,0.0,0.0,0.0,0.0,0.0,0.0,0.0,0.0,0.0,0.0,0.0,0.0,0.0,0.0,0.0,0.0,0.0,0.0,0.0,0.0,0.0,0.0,0.0,0.0,0.0,0.0,0.0,0.0,0.0,0.0,0.0,0.0,0.0,0.0,0.0,0.0,0.0,0.0,0.0,0.0,0.0,0.0,0.0,0.0,0.0,0.0,0.0,0.0,0.0,0.0,0.0,0.0,0.0,0.0,0.0,0.0,0.0,0.0,0.0,0.0,0.0,0.0,0.0,0.0,0.0,0.0,0.0,0.0,0.0,0.0,-3.0803,-3.0723,-3.0515,-2.9956,-2.9506,-2.9249,-2.9197,-2.8511,-2.6907,-2.7247,0.0,0.0,0.0,0.0,0.0,0.0,0.0,0.0,0.0,0.0,0.0,0.0,0.0,0.0,0.0,0.0,0.0,0.0,0.0,0.0,0.0,0.0,0.0,0.0,0.0,0.0,0.0,0.0,0.0,0.0,0.0,0.0,0.0,0.0,0.0,0.0,0.0,0.0,0.0,0.0,0.0,0.0,0.0,0.0,0.0,0.0,0.0,0.0,0.0,0.0,0.0,0.0,0.0,0.0,0.0,0.0,0.0,0.0,0.0,0.0,0.0,0.0,0.0,0.0,0.0,0.0,0.0,0.0,0.0,0.0,0.0,0.0,0.0,0.0,0.0,0.0,0.0,0.0,0.0,0.0,0.0,0.0,0.0,0.0,0.0,0.0,0.0,0.0,0.0,0.0,0.0,0.0,0.0,0.0,0.0,0.0,0.0,0.0,0.0,0.0,0.0,0.0,-3.0799,-3.0485,-2.9684,-2.9603,-2.9272,-2.8454,-2.8323,-2.7852,-2.6867,-2.6725,0.0,0.0,0.0,0.0,0.0,0.0,0.0,0.0,0.0,0.0,0.0,0.0,0.0,0.0,0.0,0.0,0.0,0.0,0.0,0.0,0.0,0.0,0.0,0.0,0.0,0.0,0.0,0.0,0.0,0.0,0.0,0.0,0.0,0.0,0.0,0.0,0.0,0.0,0.0,0.0,0.0,0.0,0.0,0.0,0.0,0.0,0.0,0.0,0.0,0.0,0.0,0.0,0.0,0.0,0.0,0.0,0.0,0.0,0.0,0.0,0.0,0.0,0.0,0.0,0.0,0.0,0.0,0.0,0.0,0.0,0.0,0.0,0.0,0.0,0.0,0.0,0.0,0.0,0.0,0.0,0.0,0.0,0.0,0.0,0.0,0.0,0.0,0.0,0.0,0.0,0.0,0.0,0.0,0.0,0.0,0.0,0.0,0.0,0.0,0.0,0.0,0.0,-3.0795,-3.0462,-2.9597,-2.9042,-2.858,-2.8278,-2.7716,-2.7227,-2.6812,0.0,0.0,0.0,0.0,0.0,0.0,0.0,0.0,0.0,0.0,0.0,0.0,0.0,0.0,0.0,0.0,0.0,0.0,0.0,0.0,0.0,0.0,0.0,0.0,0.0,0.0,0.0,0.0,0.0,0.0,0.0,0.0,0.0,0.0,0.0,0.0,0.0,0.0,0.0,0.0,0.0,0.0,0.0,0.0,0.0,0.0,0.0,0.0,0.0,0.0,0.0,0.0,0.0,0.0,0.0,0.0,0.0,0.0,0.0,0.0,0.0,0.0,0.0,0.0,0.0,0.0,0.0,0.0,0.0,0.0,0.0,0.0,0.0,0.0,0.0,0.0,0.0,0.0,0.0,0.0,0.0,0.0,0.0,0.0,0.0,0.0,0.0,0.0,0.0,0.0,0.0,0.0,0.0,0.0,0.0,0.0,0.0,0.0,0.0,0.0,0.0,0.0,-3.0802,-3.0801,-3.0563,-2.9981,-2.9125,-2.8605,-2.8613,-2.7803,-2.73,-2.724,0.0,0.0,0.0,0.0,0.0,0.0,0.0,0.0,0.0,0.0,0.0,0.0,0.0,0.0,0.0,0.0,0.0,0.0,0.0,0.0,0.0,0.0,0.0,0.0,0.0,0.0,0.0,0.0,0.0,0.0,0.0,0.0,0.0,0.0,0.0,0.0,0.0,0.0,0.0,0.0,0.0,0.0,0.0,0.0,0.0,0.0,0.0,0.0,0.0,0.0,0.0,0.0,0.0,0.0,0.0,0.0,0.0,0.0,0.0,0.0,0.0,0.0,0.0,0.0,0.0,0.0,0.0,0.0,0.0,0.0,0.0,0.0,0.0,0.0,0.0,0.0,0.0,0.0,0.0,0.0,0.0,0.0,0.0,0.0,0.0,0.0,0.0,0.0,0.0,0.0,0.0,0.0,0.0,0.0,0.0,0.0,0.0,0.0,0.0,0.0,0.0,0.0,-3.08,-3.0801,-3.0794,-3.0798,-3.0009,-2.9501,-2.9504,-2.8691,-2.8203,0.0,0.0,0.0,0.0,0.0,0.0,0.0,0.0,0.0,0.0,0.0,0.0,0.0,0.0,0.0,0.0,0.0,0.0,0.0,0.0,0.0,0.0,0.0,0.0,0.0,0.0,0.0,0.0,0.0,0.0,0.0,0.0,0.0,0.0,0.0,0.0,0.0,0.0,0.0,0.0,0.0,0.0,0.0,0.0,0.0,0.0,0.0,0.0,0.0,0.0,0.0,0.0,0.0,0.0,0.0,0.0,0.0,0.0,0.0,0.0,0.0,0.0,0.0,0.0,0.0,0.0,0.0,0.0,0.0,0.0,0.0,0.0,0.0,0.0,0.0,0.0,0.0,0.0,0.0,0.0,0.0,0.0,0.0,0.0,0.0,0.0,0.0,0.0,0.0,0.0,0.0,0.0,0.0,0.0,0.0,0.0,0.0,0.0,0.0,0.0,0.0,0.0,0.0,-3.0796,-3.0751,-3.0505,-2.9941,-2.9654,-2.9507,-2.9496,-2.8691,-2.8191,-2.8195,0.0,0.0,0.0,0.0,0.0,0.0,0.0,0.0,0.0,0.0,0.0,0.0,0.0,0.0,0.0,0.0,0.0,0.0,0.0,0.0,0.0,0.0,0.0,0.0,0.0,0.0,0.0,0.0,0.0,0.0,0.0,0.0,0.0,0.0,0.0,0.0,0.0,0.0,0.0,0.0,0.0,0.0,0.0,0.0,0.0,0.0,0.0,0.0,0.0,0.0,0.0,0.0,0.0,0.0,0.0,0.0,0.0,0.0,0.0,0.0,0.0,0.0,0.0,0.0,0.0,0.0,0.0,0.0,0.0,0.0,0.0,0.0,0.0,0.0,0.0,0.0,0.0,0.0,0.0,0.0,0.0,0.0,0.0,0.0,0.0,0.0,0.0,0.0,0.0,0.0,0.0,0.0,0.0,0.0,0.0,0.0,0.0,0.0,0.0,0.0,0.0,0.0,-3.0756,-3.0727,-3.05,-3.0039,-2.9989,-2.9995,-3.0019,-2.9546,-2.9236,-2.9236,0.0,0.0,0.0,0.0,0.0,0.0,0.0,0.0,0.0,0.0,0.0,0.0,0.0,0.0,0.0,0.0,0.0,0.0,0.0,0.0,0.0,0.0,0.0,0.0,0.0,0.0,0.0,0.0,0.0,0.0,0.0,0.0,0.0,0.0,0.0,0.0,0.0,0.0,0.0,0.0,0.0,0.0,0.0,0.0,0.0,0.0,0.0,0.0,0.0,0.0,0.0,0.0,0.0,0.0,0.0,0.0,0.0,0.0,0.0,0.0,0.0,0.0,0.0,0.0,0.0,0.0,0.0,0.0,0.0,0.0,0.0,0.0,0.0,0.0,0.0,0.0,0.0,0.0,0.0,0.0,0.0,0.0,0.0,0.0,0.0,0.0,0.0,0.0,0.0,0.0,0.0,0.0,0.0,0.0,0.0,0.0,0.0,0.0,0.0,0.0,0.0,0.0,-3.0694,-3.0688,-3.0697,-3.0691,-3.0697,-3.0731,-3.0796,-3.0796,-3.076,-3.068,0.0,0.0,0.0,0.0,0.0,0.0,0.0,0.0,0.0,0.0,0.0,0.0,0.0,0.0,0.0,0.0,0.0,0.0,0.0,0.0,0.0,0.0,0.0,0.0,0.0,0.0,0.0,0.0,0.0,0.0,0.0,0.0,0.0,0.0,0.0,0.0,0.0,0.0,0.0,0.0,0.0,0.0,0.0,0.0,0.0,0.0,0.0,0.0,0.0,0.0,0.0,0.0,0.0,0.0,0.0,0.0,0.0,0.0,0.0,0.0,-3.2532,-3.1867,0.0,0.0,0.0,0.0,0.0,0.0,0.0,0.0,0.0,0.0,0.0,0.0,0.0,0.0,0.0,0.0,0.0,0.0,0.0,0.0,0.0,0.0,0.0,0.0,0.0,0.0,0.0,0.0,0.0,0.0,0.0,0.0,0.0,0.0,0.0,0.0,0.0,0.0,0.0,0.0,-3.0695,-3.0645,-3.0637,-3.0695,-3.0704,-3.0733,-3.0786,-3.0798,-3.0518,-2.9824,-2.9438,0.0,0.0,0.0,0.0,0.0,0.0,0.0,0.0,0.0,0.0,0.0,0.0,0.0,0.0,0.0,0.0,0.0,0.0,0.0,0.0,0.0,0.0,0.0,0.0,0.0,0.0,0.0,0.0,0.0,0.0,0.0,0.0,0.0,0.0,0.0,0.0,0.0,0.0,0.0,0.0,0.0,0.0,0.0,0.0,0.0,0.0,0.0,0.0,0.0,0.0,0.0,0.0,0.0,0.0,0.0,0.0,0.0,0.0,0.0,-3.2972,-3.2338,0.0,0.0,0.0,0.0,0.0,0.0,0.0,0.0,0.0,0.0,0.0,0.0,0.0,0.0,0.0,0.0,0.0,0.0,0.0,0.0,0.0,0.0,0.0,0.0,0.0,0.0,0.0,0.0,0.0,0.0,0.0,0.0,0.0,0.0,0.0,0.0,0.0,0.0,0.0,0.0,-3.0593,-3.0563,-3.0577,-3.0645,-3.0676,-3.0717,-3.0751,-3.0772,-3.0614,-3.0152,-2.9726,0.0,0.0,0.0,0.0,0.0,0.0,0.0,0.0,0.0,0.0,0.0,0.0,0.0,0.0,0.0,0.0,0.0,0.0,0.0,0.0,0.0,0.0,0.0,0.0,0.0,0.0,0.0,0.0,0.0,0.0,0.0,0.0,0.0,0.0,0.0,0.0,0.0,0.0,0.0,0.0,0.0,0.0,0.0,0.0,0.0,0.0,0.0,0.0,0.0,0.0,0.0,0.0,0.0,-3.2682,-3.2738,-3.2794,-3.3523,-3.3538,-3.2983,-3.3199,-3.2776,-3.1923,-3.2125,0.0,0.0,0.0,0.0,0.0,0.0,0.0,0.0,0.0,0.0,0.0,0.0,0.0,0.0,0.0,0.0,0.0,0.0,0.0,0.0,0.0,0.0,-3.0585,-3.0486,-3.043,-3.0403,-3.0521,0.0,0.0,0.0,0.0,0.0,0.0,0.0,0.0,0.0,0.0,0.0,-3.0269,-3.0249,-3.0226,-3.0132,-3.0195,-3.0228,-3.0241,-3.0308,-3.0325,-3.0346,-2.9661,-2.9336,0.0,0.0,0.0,0.0,0.0,0.0,0.0,0.0,0.0,0.0,0.0,0.0,0.0,0.0,0.0,0.0,0.0,0.0,0.0,0.0,0.0,0.0,0.0,0.0,0.0,0.0,0.0,0.0,0.0,0.0,0.0,0.0,-3.0547,-2.972,0.0,0.0,0.0,0.0,0.0,0.0,0.0,0.0,0.0,0.0,0.0,0.0,0.0,-3.2199,-3.2313,-3.2891,-3.3177,-3.3195,-3.378,-3.4106,-3.4234,-3.44,-3.4465,-3.4433,-3.4472,0.0,-3.2808,-3.3506,0.0,0.0,0.0,0.0,0.0,0.0,0.0,0.0,0.0,0.0,0.0,0.0,0.0,0.0,0.0,0.0,0.0,0.0,0.0,0.0,0.0,0.0,-3.1258,-3.0501,-3.0323,-3.0324,-3.0334,-3.0381,-3.04,-3.0407,-3.0362,-3.0359,0.0,0.0,0.0,0.0,0.0,0.0,-2.93,-2.924,-2.9022,-2.8324,-2.832,-2.8373,-2.8447,-2.8447,-2.849,-2.8549,-2.8429,-2.872,-2.9473,-2.9394,0.0,0.0,0.0,0.0,0.0,0.0,0.0,0.0,0.0,0.0,0.0,0.0,0.0,0.0,0.0,0.0,0.0,0.0,0.0,0.0,0.0,0.0,0.0,0.0,0.0,0.0,0.0,0.0,0.0,-3.0272,-3.0377,-2.9634,-3.02,-3.0368,0.0,0.0,0.0,0.0,0.0,0.0,0.0,0.0,0.0,-3.2681,-3.2681,-3.2906,-3.3363,-3.3669,-3.3799,-3.3799,-3.4113,-3.4269,-3.4328,-3.4351,-3.4454,-3.4596,-3.4596,-3.4338,-3.3902,-3.3933,-3.3544,-3.2955,0.0,0.0,0.0,0.0,-3.2491,-3.2573,-3.2956,-3.3141,-3.3258,-3.3603,0.0,0.0,0.0,0.0,0.0,0.0,0.0,-3.1545,-3.113,-3.127,-3.1313,-3.0452,-3.0241,-3.024,-3.0234,-3.0214,-3.0202,-3.0273,-3.0266,-3.026,-3.0279,-3.0297,0.0,0.0,0.0,-3.0074,-2.9723,-2.9691,-2.9615,-2.9322,-2.8927,-2.8711,-2.8817,-2.8388,-2.8126,-2.8196,-2.8205,-2.8364,-2.8753,-2.8765,-2.8945,0.0,0.0,0.0,0.0,0.0,0.0,0.0,0.0,0.0,0.0,0.0,0.0,0.0,0.0,0.0,0.0,0.0,0.0,0.0,0.0,0.0,0.0,0.0,0.0,0.0,0.0,0.0,0.0,-3.016,-3.0394,-2.976,-3.0243,-3.0479,0.0,0.0,0.0,0.0,0.0,0.0,-3.2128,-3.2332,-3.2804,-3.3591,-3.3609,-3.4018,-3.4829,-3.4829,-3.4829,-3.4829,-3.4829,-3.4829,-3.4829,-3.4637,-3.4616,-3.4745,-3.4521,-3.4509,-3.4615,-3.4225,-3.3816,-3.3446,-3.3477,-3.3504,-3.3486,-3.3275,-3.3244,-3.3372,-3.3888,-3.4113,-3.4205,-3.4405,-3.4321,-3.4039,-3.3481,0.0,0.0,0.0,0.0,-3.2127,-3.1852,-3.1781,-3.157,-3.0722,-3.0331,-3.0164,-3.0171,-3.0091,-3.0026,-3.0152,-3.0142,-3.0122,-3.0154,-3.017,0.0,-3.0214,-3.0187,-3.0056,-2.9815,-2.9818,-2.9798,-2.9672,-2.895,-2.8545,-2.8663,-2.7888,-2.7426,-2.7505,-2.7512,-2.7619,-2.7864,-2.786,-2.7973,-2.8193,0.0,0.0,0.0,0.0,0.0,0.0,0.0,0.0,0.0,0.0,0.0,0.0,0.0,0.0,0.0,0.0,0.0,0.0,0.0,0.0,0.0,0.0,0.0,0.0,0.0,0.0,0.0,0.0,0.0,-3.024,-3.0815,0.0,0.0,0.0,0.0,-3.1575,-3.2401,-3.2822,-3.2754,-3.3475,-3.4326,-3.5241,-3.5291,-3.5706,-3.6569,-3.6569,-3.6569,-3.6569,-3.6569,-3.6569,-3.6551,-3.5789,-3.5436,-3.5392,-3.4562,-3.4328,-3.4509,-3.4685,-3.4803,-3.4901,-3.5032,-3.5112,-3.5085,-3.4326,-3.4045,-3.4038,-3.4014,-3.4047,-3.4237,-3.4997,-3.4676,-3.3983,-3.3895,-3.3255,0.0,0.0,-3.3149,-3.3595,-3.2759,-3.253,-3.2348,-3.1539,-3.0716,-3.011,-3.0101,-3.0042,-3.0022,-3.0095,-2.9996,-2.9948,-2.9996,0.0,-2.9937,-3.0014,-3.0003,-2.9687,-2.8804,-2.8803,-2.8565,-2.7735,-2.6975,-2.6609,-2.6726,-2.5943,-2.5492,-2.5631,-2.5637,-2.6046,-2.6931,-2.6965,-2.7349,-2.8181,-2.8249,0.0,0.0,0.0,0.0,0.0,0.0,0.0,0.0,0.0,0.0,0.0,0.0,0.0,0.0,0.0,0.0,0.0,0.0,0.0,0.0,0.0,0.0,0.0,0.0,0.0,0.0,0.0,0.0,-3.003,-3.0971,0.0,-3.1209,-3.1354,-3.1591,-3.1928,-3.3181,-3.3972,-3.4073,-3.4848,-3.5501,-3.597,-3.5855,-3.5942,-3.6264,-3.6087,-3.6058,-3.6193,-3.5703,-3.5579,-3.5708,-3.4945,-3.4624,-3.4643,-3.4327,-3.4245,-3.4316,-3.4424,-3.462,-3.4813,-3.486,-3.4879,-3.4878,-3.4694,-3.4606,-3.4615,-3.4696,-3.4721,-3.4795,-3.5087,-3.4999,-3.4666,-3.4072,-3.3677,-3.3415,-3.3325,-3.3536,-3.3698,-3.3387,-3.2893,-3.2391,-3.2053,-3.0945,-3.0102,-3.057,-3.0242,-2.9885,-2.9901,-2.9899,-2.9916,-2.994,-2.9924,-2.9916,-2.9926,-2.9945,-2.9788,-2.9418,-2.9414,-2.9166,-2.8425,-2.7589,-2.6957,-2.6576,-2.5779,-2.5326,-2.5372,-2.5445,-2.5642,-2.5996,-2.6007,-2.617,-2.6529,-2.7089,-2.7513,0.0,0.0,0.0,0.0,0.0,0.0,0.0,0.0,0.0,0.0,0.0,0.0,0.0,0.0,0.0,0.0,0.0,0.0,0.0,0.0,0.0,0.0,0.0,0.0,0.0,-3.0612,-3.1304,-3.0928,-3.1856,-3.2511,-3.2439,-3.2604,-3.2856,-3.3205,-3.4212,-3.4855,-3.4996,-3.5514,-3.5988,-3.6431,-3.631,-3.6391,-3.6695,-3.6522,-3.6506,-3.6651,-3.6154,-3.605,-3.625,-3.5234,-3.4811,-3.4877,-3.4365,-3.4136,-3.4136,-3.4185,-3.4309,-3.4483,-3.4609,-3.4682,-3.4704,-3.4793,-3.4841,-3.4851,-3.4936,-3.5001,-3.5029,-3.5001,-3.5046,-3.4994,-3.44,-3.4203,-3.4185,-3.4111,-3.4074,-3.4074,-3.4074,-3.3242,-3.2371,-3.2316,-3.106,-3.0002,-3.0496,-3.0185,-2.9808,-2.9808,-2.9832,-2.9874,-2.9874,-2.9874,-2.9866,-2.9859,-2.9633,-2.9427,-2.9339,-2.9112,-2.8785,-2.8313,-2.752,-2.6863,-2.644,-2.5686,-2.5249,-2.5255,-2.5661,-2.577,-2.5476,-2.5751,-2.5808,-2.557,-2.6398,-2.6838,-2.6848,0.0,0.0,0.0,0.0,0.0,0.0,0.0,0.0,0.0,0.0,0.0,0.0,0.0,0.0,0.0,0.0,0.0,0.0,0.0,0.0,0.0,0.0,0.0,-3.0674,-3.1823,-3.2752,-3.2963,-3.3466,-3.4214,-3.5266,-3.4541,-3.4399,-3.5301,-3.539,-3.5408,-3.5407,-3.5443,-3.5834,-3.6707,-3.6725,-3.7154,-3.8085,-3.8068,-3.8068,-3.8068,-3.805,-3.8148,-3.8291,-3.6769,-3.6157,-3.6186,-3.4666,-3.4022,-3.4035,-3.4016,-3.3998,-3.4036,-3.4439,-3.4618,-3.4674,-3.4684,-3.4684,-3.4703,-3.4684,-3.4773,-3.4879,-3.48,-3.484,-3.4879,-3.4819,-3.4788,-3.4778,-3.4778,-3.4781,-3.4782,-3.4769,-3.3601,-3.2363,-3.2326,-3.1035,-2.9799,-2.9818,-2.9818,-2.9799,-2.9799,-2.9799,-2.9799,-2.9799,-2.9808,-2.9808,-2.9799,-2.9118,0.0,-2.8432,-2.7759,-2.7266,-2.7213,-2.6564,-2.6159,-2.6221,-2.5583,-2.52,-2.5253,-2.6174,-2.6336,-2.5466,-2.6241,-2.6311,-2.5507,-2.6265,-2.6667,-2.6709,0.0,0.0,0.0,0.0,0.0,0.0,0.0,0.0,0.0,0.0,0.0,0.0,0.0,0.0,0.0,0.0,0.0,0.0,0.0,0.0,0.0,-3.0734,-3.104,-3.0546,-3.1251,-3.202,-3.2569,-3.3212,-3.3882,-3.4674,-3.4477,-3.4404,-3.4652,-3.5179,-3.5534,-3.5683,-3.6287,-3.6843,-3.7256,-3.7148,-3.7218,-3.7595,-3.7393,-3.7374,-3.7504,-3.697,-3.6843,-3.7065,-3.6102,-3.5805,-3.5959,-3.4993,-3.4665,-3.4755,-3.4212,-3.3998,-3.4023,-3.4173,-3.4257,-3.4286,-3.4424,-3.4542,-3.4626,-3.4564,-3.4596,-3.4668,-3.4594,-3.4594,-3.4604,-3.4528,-3.4484,-3.4439,-3.4439,-3.4409,-3.4356,-3.4363,-3.3216,-3.2173,-3.2675,-3.1167,-2.9748,-3.0319,-2.9991,-2.9598,-2.971,-2.9692,-2.9701,-2.9782,-2.9808,-2.9771,-2.9726,-2.9048,-2.8495,-2.8406,-2.7665,-2.7194,-2.7265,-2.7058,-2.6914,-2.6994,-2.6854,-2.6785,-2.6799,-2.7109,-2.6905,-2.6081,-2.634,-2.6145,-2.5443,-2.5608,-2.6028,0.0,0.0,0.0,0.0,0.0,0.0,0.0,0.0,0.0,0.0,0.0,0.0,0.0,0.0,0.0,0.0,0.0,0.0,0.0,0.0,0.0,0.0,-3.1674,-3.2172,-3.1679,-3.2296,-3.3072,-3.3811,-3.4457,-3.4992,-3.539,-3.5403,-3.5381,-3.5359,-3.5802,-3.6088,-3.6164,-3.6663,-3.6992,-3.7167,-3.705,-3.7029,-3.7124,-3.6948,-3.6946,-3.7046,-3.661,-3.655,-3.6737,-3.6007,-3.5788,-3.5966,-3.4989,-3.4603,-3.4666,-3.4037,-3.3793,-3.382,0.0,0.0,0.0,0.0,-3.434,-3.4409,-3.4351,-3.4386,-3.4461,-3.4328,-3.4328,-3.4351,-3.4293,-3.4221,-3.4185,-3.4209,-3.4173,-3.4124,-3.4124,-3.2954,-3.1875,-3.2319,-3.0832,-2.9454,-2.9938,-2.9659,-2.9363,-2.9424,-2.9433,0.0,-2.9455,-2.9561,-2.9636,-2.9617,-2.8877,-2.8334,-2.8325,-2.7577,-2.708,-2.7171,-2.7161,-2.7169,-2.7211,-2.7296,0.0,0.0,0.0,-2.7124,-2.6287,-2.5965,0.0,0.0,0.0,-2.5503,-2.6068,-2.6027,0.0,0.0,-2.8527,-2.9074,0.0,0.0,0.0,0.0,0.0,0.0,0.0,0.0,0.0,0.0,0.0,0.0,0.0,0.0,0.0,0.0,-3.2581,-3.351,-3.3541,-3.4209,-3.4948,-3.5666,-3.6227,-3.6577,-3.6664,-3.6708,-3.6728,-3.6664,-3.6708,-3.6728,-3.6643,-3.6643,0.0,0.0,0.0,-3.6664,-3.6702,-3.6702,-3.6702,-3.6702,-3.6702,-3.6786,-3.6933,-3.6287,-3.6086,-3.6219,-3.4935,-3.437,-3.4291,-3.3783,-3.3539,-3.352,-3.3829,-3.3972,-3.3985,-3.4036,-3.4099,-3.4161,-3.4086,0.0,0.0,-3.4049,-3.4074,-3.4161,-3.4074,-3.4011,-3.3972,-3.4036,-3.3998,-3.3947,-3.3947,-3.2834,-3.1709,-3.1697,-3.0418,-2.9222,-2.9222,-2.9149,-2.9093,-2.9104,-2.9104,-2.9082,-2.9016,-2.9198,-2.9392,-2.9434,-2.8673,-2.8113,-2.8182,-2.7494,-2.7028,-2.7131,-2.7186,0.0,-2.7352,-2.7484,-2.7557,-2.756,-2.7479,-2.7062,-2.6202,-2.5382,-2.4954,-2.4968,-2.5019,-2.5094,-2.517,-2.518,-2.5601,-2.6435,-2.8138,-2.8948,0.0,0.0,0.0,0.0,0.0,0.0,0.0,0.0,0.0,0.0,0.0,0.0,0.0,0.0,0.0,-3.1951,-3.2809,-3.3821,-3.4931,-3.5131,-3.527,-3.5523,-3.5563,-3.583,-3.6492,-3.6464,-3.6385,-3.6381,-3.6385,-3.6385,-3.6381,-3.6381,-3.6423,-3.6523,-3.6544,-3.6602,-3.6702,-3.6702,-3.6702,-3.6702,-3.6702,0.0,-3.6745,-3.6609,-3.6659,-3.6804,-3.5947,-3.5386,-3.5034,-3.4343,-3.38,-3.3437,-3.3671,-3.3793,-3.3829,-3.3775,-3.3842,-3.3947,-3.3868,-3.3947,-3.4049,-3.3947,-3.3934,-3.3934,-3.3802,-3.3766,0.0,-3.3712,-3.3684,-3.3671,-3.3671,-3.3043,-3.2386,-3.2263,-3.1096,-2.9988,-2.9988,-2.9485,-2.9041,-2.9093,-2.9108,-2.9071,-2.9014,-2.9045,-2.9093,-2.9169,-2.8471,-2.7982,-2.8103,-2.7427,-2.7186,-2.7894,-2.7969,-2.8259,-2.8979,-2.9111,-2.9139,-2.9083,-2.7829,-2.6742,-2.5995,-2.5134,-2.4696,-2.4756,-2.4763,-2.4861,-2.5032,-2.498,-2.5423,-2.6333,-2.7394,-2.824,0.0,0.0,0.0,0.0,0.0,0.0,0.0,0.0,0.0,0.0,0.0,-3.0768,-3.0786,0.0,-3.2622,-3.2983,-3.3748,-3.4549,-3.5238,-3.5613,-3.5855,-3.5974,-3.5876,-3.597,-3.6367,-3.6402,-3.6364,-3.6301,-3.6343,-3.6364,-3.6301,-3.6301,-3.6322,-3.6402,-3.6402,-3.6423,-3.6502,-3.6502,-3.6482,-3.6457,-3.6482,-3.6482,-3.6457,-3.6482,-3.6547,-3.6618,-3.5987,-3.5372,-3.473,-3.3752,-3.3223,-3.3008,-3.3223,-3.3444,-3.3661,-3.3601,-3.3657,-3.3753,-3.3712,-3.3739,-3.3775,-3.3766,-3.3753,-3.3739,-3.3712,-3.3396,-3.3136,-3.351,-3.3304,-3.3043,-3.34,-3.2952,-3.2379,-3.2324,-3.1128,-2.9995,-2.9995,-2.9357,-2.8815,-2.8838,-2.8851,-2.8834,-2.8767,-2.8725,-2.8755,-2.8932,-2.8579,-2.8352,-2.8441,-2.8103,-2.8021,-2.8452,-2.8561,-2.878,-2.922,-2.9382,-2.9088,-2.8249,-2.7447,-2.6423,-2.5149,-2.4721,-2.453,-2.4599,-2.5035,-2.5324,-2.5446,-2.5857,-2.6495,-2.7357,-2.7757,-2.8215,0.0,0.0,0.0,0.0,0.0,0.0,0.0,-2.9765,-2.9972,-2.997,-3.1031,-3.1914,-3.1837,-3.2827,-3.3714,-3.3902,-3.4552,-3.5063,-3.5242,-3.5796,-3.6216,-3.6381,-3.6339,-3.6301,-3.6301,-3.6402,-3.6423,-3.6301,-3.6402,-3.6423,-3.6301,-3.6301,-3.6301,-3.6301,-3.6301,-3.6301,-3.6301,-3.6301,-3.6276,-3.6204,-3.6276,-3.6255,-3.6187,-3.6276,-3.6301,-3.627,-3.5573,-3.482,-3.4006,-3.288,-3.2473,-3.2573,-3.2688,-3.2961,-3.3268,-3.339,-3.3462,-3.3534,-3.3534,-3.3549,-3.3563,-3.3563,-3.3563,-3.3577,-3.3619,-3.3012,-3.2465,-3.3102,-3.2773,-3.2389,-3.2965,-3.2752,-3.2336,-3.2191,-3.1048,-2.9962,-2.9781,-2.9135,-2.8562,-2.8562,-2.8562,-2.8536,-2.8466,-2.8419,-2.8458,-2.8718,-2.8682,-2.8669,-2.8755,-2.8761,-2.8791,-2.8791,-2.8899,-2.8968,-2.898,-2.9163,-2.865,-2.7174,-2.7148,-2.646,-2.4838,-2.4801,-2.4866,-2.4927,-2.5623,-2.5927,-2.5845,-2.6536,-2.7228,-2.7884,-2.7942,-2.8268,-2.666,-2.6868,-2.7645,-2.8401,-2.8696,-2.9008,0.0,-3.0369,-3.1027,-3.1594,-3.232,-3.2866,-3.2912,-3.3047,-3.3379,-3.3985,-3.4202,-3.4604,-3.5447,-3.5638,-3.5778,-3.6019,-3.6195,-3.6301,-3.6301,-3.6322,-3.6322,-3.6301,-3.6322,-3.6322,-3.6301,-3.6301,-3.6301,-3.6301,-3.6301,-3.6301,-3.6301,-3.6301,-3.6276,-3.6204,-3.6276,-3.6255,-3.6187,-3.6276,-3.6301,-3.6215,-3.4985,-3.4022,-3.3256,-3.2475,-3.2214,-3.2318,-3.2232,-3.2284,-3.2488,-3.2959,-3.3211,-3.3322,-3.3322,-3.3382,-3.3422,-3.3422,-3.3422,-3.3408,-3.3367,-3.2777,-3.2148,-3.2162,-3.2112,-3.2043,-3.2151,-3.2571,-3.2826,-3.2172,-3.1344,-3.0502,-2.9778,-2.899,-2.8419,-2.8419,-2.8419,-2.8393,-2.834,-2.8313,-2.8367,-2.8505,-2.8484,-2.8471,-2.8612,-2.8669,-2.8706,-2.8706,-2.8779,-2.8851,-2.8917,-2.91,-2.8772,-2.7767,-2.783,-2.7442,-2.6475,-2.6379,-2.6379,-2.6458,-2.6561,-2.6279,-2.5625,-2.5662,-2.5801,-2.6013,-2.654,-2.7759,-2.6595,-2.6941,-2.7647,-2.9198,-2.9639,-3.0015,-3.1153,-3.1715,-3.2036,-3.2254,-3.2851,-3.3342,-3.3286,-3.368,-3.4147,-3.4502,-3.4651,-3.4866,-3.5305,-3.5379,-3.547,-3.5734,-3.5827,-3.5958,-3.6127,-3.6127,-3.6127,-3.6127,-3.6127,-3.617,-3.6251,-3.6233,-3.6255,-3.6301,-3.6301,-3.6301,-3.6301,-3.6301,-3.6276,-3.6204,-3.6276,-3.6216,-3.6101,-3.6191,-3.5993,-3.5494,-3.4567,-3.3746,-3.2967,-3.2222,-3.1965,-3.2019,-3.2073,-3.2144,-3.2232,-3.2654,-3.2834,-3.2916,-3.3075,-3.3137,-3.3183,-3.3307,-3.3337,-3.3337,-3.3352,-3.2481,-3.1635,-3.2519,-3.209,-3.1571,-3.2412,-3.2883,-3.2903,-3.2179,-3.1387,-3.0582,-2.9768,-2.8963,-2.8411,-2.8411,-2.8411,-2.838,-2.8353,-2.8327,-2.8313,-2.8313,-2.8277,-2.8219,-2.8246,-2.8286,-2.8309,-2.8406,-2.8466,-2.8569,-2.8724,-2.8767,-2.8445,-2.7613,-2.7664,-2.7316,-2.6446,-2.6454,-2.6527,-2.6573,-2.7082,-2.6948,-2.6131,-2.6602,-2.6604,-2.6184,-2.6901,-2.7687,-2.6656,-2.7382,-2.8252,-3.0063,-3.0696,-3.1178,-3.2459,-3.2807,-3.2918,-3.2978,-3.3414,-3.3751,-3.3615,-3.4112,-3.457,-3.4667,-3.4763,-3.4859,-3.5008,-3.5015,-3.5125,-3.5373,-3.5464,-3.5577,-3.5778,-3.591,-3.5997,-3.5997,-3.5997,-3.6041,-3.6144,-3.6144,-3.6165,-3.6216,-3.6237,-3.6259,-3.6259,-3.628,-3.6276,-3.6204,-3.6276,-3.6216,-3.6058,-3.6187,-3.5799,-3.5026,-3.4384,-3.3628,-3.2852,-3.2093,-3.18,-3.1818,-3.1947,-3.2018,-3.2055,-3.2353,-3.2522,-3.2639,-3.2818,-3.2932,-3.3013,-3.3137,-3.3201,-3.3201,-3.3244,-3.2285,-3.1437,-3.2535,-3.2017,-3.1373,-3.2445,-3.2878,-3.2788,-3.1832,-3.1135,-3.0439,-2.943,-2.8766,-2.8345,-2.8345,-2.8331,-2.8331,-2.8331,-2.825,-2.8182,-2.8112,-2.8042,-2.7996,-2.8011,-2.8042,-2.8071,-2.8154,-2.8223,-2.8313,-2.8489,-2.8497,-2.8258,-2.768,-2.7743,-2.7502,-2.6838,-2.6939,-2.7043,-2.7111,-2.7537,-2.7358,-2.649,-2.6889,-2.6622,-2.581,-2.6845,-2.7339,-2.6745,-2.8377,-2.9867,-3.0835,-3.1655,-3.2449,-3.3203,-3.3383,-3.3556,-3.4113,-3.4251,-3.4243,-3.4093,-3.4109,-3.4126,-3.4126,-3.4126,-3.4226,-3.4472,-3.4521,-3.4618,-3.4899,-3.5152,-3.5314,-3.5314,-3.5728,-3.5997,-3.5997,-3.5997,-3.5997,-3.5997,-3.5997,-3.5997,-3.6019,-3.6144,-3.6187,-3.6187,-3.6276,-3.6276,-3.6204,-3.6276,-3.6255,-3.6204,-3.6276,-3.5887,-3.5145,-3.4404,-3.3628,-3.2852,-3.2093,-3.18,-3.18,-3.1818,-3.1818,-3.1819,-3.2037,-3.2318,-3.2606,-3.2622,-3.2737,-3.29,-3.2916,-3.2916,-3.2916,-3.2916,-3.2344,-3.1686,-3.174,-3.1704,-3.1686,-3.174,-3.2311,-3.2507,-3.0921,-3.0529,-3.0083,-2.857,-2.8213,-2.8196,-2.8196,-2.8154,-2.8112,-2.8112,-2.8003,-2.7903,-2.7921,-2.781,-2.7821,-2.8053,-2.8099,-2.8099,-2.8099,-2.8099,-2.8126,-2.8196,-2.8393,-2.844,-2.8291,-2.8469,-2.8502,-2.8342,-2.8446,-2.8565,-2.8621,-2.8012,-2.7302,-2.649,-2.5687,-2.4832,-2.4016,-2.5663,-2.641,-2.7541,-2.8667,-2.9626,-3.1494,-3.2216,-3.2741,-3.3656,-3.3852,-3.3933,-3.4127,-3.3819,-3.3445,-3.3338,-3.3387,-3.3412,-3.3338,-3.3759,-3.4126,-3.4226,-3.4226,-3.4325,-3.4594,-3.4659,-3.4811,-3.5268,-3.5554,-3.5734,-3.5734,-3.5734,-3.5778,-3.5861,-3.5861,-3.5927,-3.5997,-3.6041,-3.6079,-3.6079,-3.6084,-3.6084,-3.6079,-3.6084,-3.6127,-3.6204,-3.6229,-3.5799,-3.506,-3.4901,-3.4093,-3.2886,-3.2586,-3.2209,-3.18,-3.1709,-3.1727,-3.1818,-3.1892,-3.2055,-3.2301,-3.2522,-3.2655,-3.2721,-3.2868,-3.29,-3.29,-3.29,-3.2347,-3.178,-3.217,-3.202,-3.1767,-3.2042,-3.2493,-3.26,-3.1373,-3.0718,-3.011,-2.914,-2.8411,-2.795,-2.8056,-2.8056,-2.8025,-2.8025,-2.8,-2.7957,-2.7957,-2.7885,-2.7871,-2.7961,-2.8,-2.8025,-2.8025,-2.8025,-2.8042,-2.8071,-2.8085,-2.8085,-2.8046,-2.8178,-2.8232,-2.8136,-2.8313,-2.8149,-2.7661,-2.8026,-2.732,-2.5507,-2.579,-2.5237,-2.3943,-2.5026,-2.5786,-2.7945,-2.9124,-3.0142,-3.1953,-3.2654,-3.3134,-3.3912,-3.4101,-3.4101,-3.4101,-3.3542,-3.2999,-3.2925,-3.2749,-3.27,-3.2877,-3.3379,-3.3825,-3.3993,-3.4075,-3.4126,-3.4201,-3.4275,-3.4472,-3.4899,-3.5095,-3.531,-3.5577,-3.5532,-3.5571,-3.5728,-3.5728,-3.5773,-3.5844,-3.5888,-3.5932,-3.5932,-3.5975,-3.5997,-3.5997,-3.5997,-3.6058,-3.6122,-3.6079,-3.5805,-3.5351,-3.5139,-3.4507,-3.3562,-3.3048,-3.255,-3.2049,-3.1737,-3.1635,-3.1727,-3.1727,-3.1838,-3.2037,-3.2318,-3.2437,-3.2505,-3.2655,-3.2737,-3.277,-3.2705,-3.2366,-3.2096,-3.2497,-3.2267,-3.2001,-3.2331,-3.2556,-3.246,-3.1551,-3.0759,-2.998,-2.9236,-2.8581,-2.8049,-2.7862,-2.8009,-2.8099,-2.7833,-2.781,-2.7824,-2.7824,-2.7874,-2.7888,-2.7888,-2.7957,-2.8014,-2.8014,-2.7986,-2.7986,-2.8042,-2.7961,-2.7888,-2.7888,-2.7989,-2.7986,-2.7911,-2.8035,-2.7897,-2.7402,-2.7709,-2.7171,-2.5708,-2.5984,-2.5633,-2.4693,-2.523,-2.5882,-2.7957,-2.9674,-3.1359,-3.2179,-3.2917,-3.3565,-3.3975,-3.4075,-3.4101,-3.4101,-3.3403,-3.2804,-3.2884,-3.2257,-3.1983,-3.2772,-3.3015,-3.3323,-3.3818,-3.4,-3.4,-3.372,-3.4025,-3.4275,-3.43,-3.4399,-3.4747,-3.5509,-3.5389,-3.5383,-3.5554,-3.5577,-3.56,-3.5577,-3.5706,-3.5773,-3.5773,-3.5888,-3.5975,-3.5997,-3.5997,-3.5997,-3.5997,-3.5832,-3.5815,-3.5895,-3.5138,-3.4814,-3.4753,-3.3513,-3.2838,-3.2562,-3.1903,-3.1632,-3.1617,-3.1617,-3.169,-3.1837,-3.2019,-3.2161,-3.2283,-3.2301,-3.242,-3.2538,-3.2352,-3.2437,-3.2571,-3.2589,-3.2437,-3.2335,-3.2505,-3.242,-3.2125,-3.1424,-3.0599,-2.9758,-2.893,-2.8724,-2.8464,-2.7687,-2.8063,-2.8257,-2.7527,-2.745,-2.7481,-2.7481,-2.7709,-2.7874,-2.7888,-2.7975,-2.8,-2.8,-2.7946,-2.7946,-2.8085,-2.7975,-2.7888,-2.7888,-2.7888,-2.7842,-2.7716,-2.776,-2.7815,-2.783,-2.7177,-2.6863,-2.6923,-2.6198,-2.5916,-2.6009,-2.6015,-2.6513,-2.8845,-3.0018,-3.0933,-3.2001,-3.2613,-3.3113,-3.3539,-3.3797,-3.3975,-3.4075,-3.2636,-3.1629,-3.2577,-3.1734,-3.1294,-3.2428,-3.3127,-3.3579,-3.3729,-3.3771,-3.3787,-3.371,-3.3694,-3.3848,-3.425,-3.3975,-3.4109,-3.5001,-3.5111,-3.5088,-3.493,-3.5373,-3.5532,-3.5383,-3.5406,-3.5429,-3.5429,-3.5458,-3.5594,-3.5861,-3.5861,-3.5888,-3.598,-3.539,-3.5151,-3.5177,-3.4972,-3.4603,-3.4168,-3.4336,-3.3759,-3.279,-3.258,-3.2187,-3.1746,-3.1746,-3.1764,-3.1818,-3.1873,-3.2001,-3.2179,-3.2266,-3.2335,-3.2369,-3.2318,-3.2335,-3.237,-3.2266,-3.2266,-3.2249,-3.2073,-3.2161,-3.2231,-3.1935,-3.0835,-2.9788,-2.9564,-2.8962,-2.8415,-2.8209,-2.8314,-2.8194,-2.74,-2.7277,-2.7293,-2.7293,-2.7465,-2.7679,-2.7874,-2.7903,-2.7932,-2.7932,-2.7903,-2.7903,-2.7946,-2.7917,-2.7888,-2.7888,-2.7888,-2.7842,-2.7716,-2.7716,-2.7452,-2.6879,-2.7253,-2.6905,-2.5809,-2.634,-2.6053,-2.4986,-2.4986,-2.5422,-2.9543,-3.0462,-3.1185,-3.2207,-3.2738,-3.3077,-3.3275,-3.3439,-3.3386,-3.2781,-3.1347,-3.0523,-3.151,-3.0783,-3.056,-3.2233,-3.2898,-3.3316,-3.3585,-3.3658,-3.3658,-3.3555,-3.3503,-3.3633,-3.3924,-3.3617,-3.3658,-3.425,-3.457,-3.4763,-3.4804,-3.5118,-3.5297,-3.5291,-3.5198,-3.5175,-3.5291,-3.5245,-3.5367,-3.5711,-3.5711,-3.5756,-3.5805,-3.537,-3.5162,-3.5162,-3.5188,-3.4972,-3.4619,-3.4827,-3.4244,-3.3171,-3.2845,-3.2303,-3.1709,-3.1688,-3.1688,-3.1709,-3.1709,-3.1801,-3.1893,-3.2037,-3.2144,-3.2197,-3.2109,-3.2144,-3.2197,-3.2126,-3.209,-3.2055,-3.1947,-3.2019,-3.2055,-3.1983,-3.1063,-3.0179,-3.0127,-2.9696,-2.93,-2.9213,-2.8613,-2.7981,-2.7553,-2.7277,-2.7103,-2.7103,-2.7261,-2.7417,-2.7572,-2.7768,-2.7903,-2.7946,-2.7917,-2.7903,-2.7946,-2.7871,-2.781,-2.781,-2.781,-2.778,-2.7701,-2.7642,-2.7407,-2.6944,-2.7345,-2.7136,-2.6277,-2.6858,-2.6566,-2.5428,-2.5075,-2.5392,-3.0205,-3.1001,-3.1794,-3.2544,-3.2996,-3.3198,-3.298,-3.2902,-3.2523,-3.1209,-3.0016,-2.9512,-3.0505,-2.9909,-2.9997,-3.2231,-3.2656,-3.2879,-3.3397,-3.3581,-3.3555,-3.3335,-3.3398,-3.3477,-3.3503,-3.3372,-3.3346,-3.3529,-3.3949,-3.4349,-3.4715,-3.4828,-3.4947,-3.5152,-3.4923,-3.4923,-3.5175,-3.5088,-3.5251,-3.5554,-3.5577,-3.56,-3.5583,-3.5442,-3.5363,-3.5363,-3.5442,-3.5419,-3.5358,-3.5129,-3.4529,-3.3717,-3.3014,-3.2344,-3.1697,-3.1572,-3.1557,-3.1596,-3.1596,-3.1596,-3.1615,-3.1746,-3.1928,-3.2019,-3.1838,-3.1928,-3.2055,-3.2055,-3.1929,-3.1837,-3.2001,-3.1929,-3.18,-3.18,-3.1231,-3.0643,-3.0502,-3.0465,-3.0409,-3.0226,-2.9081,-2.8044,-2.7841,-2.7403,-2.7077,-2.6975,-2.7087,-2.7182,-2.7182,-2.7542,-2.7827,-2.7882,-2.7856,-2.7859,-2.7929,-2.7777,-2.7686,-2.7686,-2.7701,-2.7701,-2.7701,-2.7569,-2.7496,-2.7496,-2.7438,-2.7393,-2.7393,-2.7452,-2.7073,-2.6303,-2.5712,-2.5844,-3.1109,-3.1644,-3.2148,-3.2382,-3.2715,-3.2844,-3.2315,-3.1942,-3.1686,-3.1637,-2.9515,-2.8614,-3.1653,-3.0537,-3.003,-3.2718,-3.3171,-3.3219,-3.3303,-3.3346,-3.3346,-3.3309,-3.3335,-3.3372,-3.3477,-3.3372,-3.3398,-3.3658,-3.3658,-3.372,-3.3899,-3.4423,-3.4594,-3.4325,-3.4374,-3.4423,-3.4472,-3.478,-3.5065,-3.536,-3.5509,-3.56,-3.5583,-3.4957,-3.467,-3.467,-3.4692,-3.4752,-3.489,-3.5426,-3.5253,-3.4609,-3.3942,-3.3151,-3.2356,-3.1781,-3.154,-3.1517,-3.1517,-3.1517,-3.1538,-3.1744,-3.1837,-3.1855,-3.1818,-3.1837,-3.1855,-3.1855,-3.1837,-3.1818,-3.1838,-3.1837,-3.18,-3.18,-3.1141,-3.0518,-3.0427,-3.0319,-3.0245,-3.0207,-2.9968,-2.9371,-2.8044,-2.7706,-2.7453,-2.6843,-2.6908,-2.704,-2.704,-2.7198,-2.734,-2.7338,-2.7434,-2.7481,-2.7511,-2.7554,-2.7632,-2.7632,-2.7657,-2.7701,-2.7701,-2.7569,-2.7496,-2.7496,-2.7392,-2.7315,-2.733,-2.7376,-2.6695,-2.5354,-2.588,-2.586,-3.1665,-3.2097,-3.248,-3.2715,-3.2973,-3.2972,-3.201,-3.1389,-3.083,-3.011,-2.8281,-2.7498,-2.9814,-2.9048,-2.8869,-3.1286,-3.1681,-3.1934,-3.2687,-3.2782,-3.2898,-3.3261,-3.3309,-3.3335,-3.3372,-3.3319,-3.3346,-3.3477,-3.3555,-3.3658,-3.3797,-3.425,-3.43,-3.3899,-3.4101,-3.4226,-3.43,-3.4497,-3.4828,-3.5291,-3.5389,-3.5503,-3.5583,-3.5228,-3.5036,-3.5009,-3.5076,-3.5098,-3.5148,-3.5531,-3.5331,-3.4729,-3.4025,-3.3294,-3.2505,-3.172,-3.1428,-3.1406,-3.1406,-3.1406,-3.1426,-3.1595,-3.1632,-3.1651,-3.1763,-3.1746,-3.1709,-3.1781,-3.18,-3.18,-3.18,-3.18,-3.18,-3.18,-3.1433,-3.1066,-3.1029,-3.0953,-3.0859,-3.0785,-3.0462,-2.9949,-2.9127,-2.8331,-2.7672,-2.7317,-2.7029,-2.6842,-2.6842,-2.6908,-2.7021,-2.7277,-2.7293,-2.7324,-2.7388,-2.7386,-2.7432,-2.7542,-2.7539,-2.7585,-2.7644,-2.7511,-2.7436,-2.7436,-2.7392,-2.7329,-2.7299,-2.7378,-2.6757,-2.5577,-2.5949,-2.5917,-3.2268,-3.2645,-3.2915,-3.316,-3.3372,-3.3173,-3.1869,-3.1085,-3.0172,-2.8634,-2.7201,-2.6659,-2.8082,-2.7674,-2.7778,-2.9872,-3.0204,-3.0647,-3.1896,-3.2196,-3.256,-3.323,-3.3309,-3.3309,-3.3309,-3.3309,-3.3293,-3.3319,-3.3581,-3.3761,-3.3848,-3.405,-3.4,-3.3633,-3.3873,-3.4075,-3.4176,-3.43,-3.4594,-3.5128,-3.5245,-3.5367,-3.5549,-3.5577,-3.5571,-3.552,-3.5594,-3.5571,-3.552,-3.5594,-3.5243,-3.4601,-3.3896,-3.3172,-3.2446,-3.1604,-3.1276,-3.1293,-3.1293,-3.1293,-3.1293,-3.1423,-3.1479,-3.1536,-3.1688,-3.1653,-3.1615,-3.1727,-3.1744,-3.1744,-3.18,-3.1763,-3.1726,-3.169,-3.1598,-3.1542,-3.1542,-3.1483,-3.1404,-3.1332,-3.0798,-3.0317,-3.0125,-2.8938,-2.7957,-2.7789,-2.7147,-2.6674,-2.6657,-2.6657,-2.6792,-2.7168,-2.7119,-2.7119,-2.723,-2.7166,-2.7181,-2.7388,-2.7373,-2.7419,-2.7557,-2.7436,-2.7376,-2.7392,-2.7393,-2.7345,-2.7299,-2.7345,-2.6916,-2.6035,-2.6207,-2.6158,-3.3218,-3.3503,-3.3617,-3.3658,-3.3668,-3.3275,-3.1771,-3.0911,-3.0019,-2.8589,-2.7074,-2.6688,-2.8805,-2.8034,-2.7778,-2.9872,-3.0204,-3.0473,-3.1207,-3.1896,-3.256,-3.323,-3.3309,-3.3309,-3.3309,-3.3309,-3.3346,-3.3477,-3.3633,-3.371,-3.372,-3.3745,-3.3633,-3.3361,-3.3607,-3.3745,-3.3761,-3.425,-3.4521,-3.457,-3.5065,-3.5314,-3.5337,-3.5526,-3.56,-3.5577,-3.56,-3.56,-3.5577,-3.56,-3.5182,-3.4464,-3.3837,-3.309,-3.2249,-3.1548,-3.1254,-3.121,-3.121,-3.121,-3.123,-3.1293,-3.1406,-3.1498,-3.1517,-3.1517,-3.1519,-3.1596,-3.1559,-3.1574,-3.1763,-3.1651,-3.15,-3.137,-3.1334,-3.1334,-3.1334,-3.1254,-3.1232,-3.1276,-3.1106,-3.0752,-3.0207,-2.9321,-2.8474,-2.7819,-2.7095,-2.6606,-2.6537,-2.652,-2.6537,-2.6589,-2.6623,-2.6674,-2.6775,-2.6808,-2.6908,-2.704,-2.7151,-2.7277,-2.7419,-2.7293,-2.7279,-2.7392,-2.7346,-2.7315,-2.7299,-2.7315,-2.6885,-2.6111,-2.6835,-2.6752,-3.3467,-3.3658,-3.3694,-3.3694,-3.3694,-3.33,-3.1869,-3.0967,-3.005,-2.8589,-2.7449,-2.6984,-2.7813,-2.75,-2.7494,-2.8726,-2.8955,-2.9469,-3.1002,-3.146,-3.2045,-3.3166,-3.3309,-3.3282,-3.3176,-3.3256,-3.3361,-3.3477,-3.3555,-3.3581,-3.3581,-3.3581,-3.3503,-3.3309,-3.3477,-3.3581,-3.3581,-3.3949,-3.4226,-3.4374,-3.4763,-3.5065,-3.5314,-3.5475,-3.5571,-3.56,-3.56,-3.56,-3.56,-3.56,-3.543,-3.5064,-3.3922,-3.3279,-3.2814,-3.1673,-3.1213,-3.119,-3.119,-3.119,-3.121,-3.1232,-3.1288,-3.1327,-3.146,-3.1443,-3.1406,-3.1519,-3.1519,-3.1517,-3.1612,-3.1574,-3.1462,-3.1332,-3.1274,-3.1232,-3.1154,-3.1095,-3.1092,-3.1075,-3.1095,-3.101,-3.0704,-2.9991,-2.9215,-2.8474,-2.7662,-2.6989,-2.6605,-2.6571,-2.6571,-2.6571,-2.6572,-2.6606,-2.664,-2.6708,-2.6808,-2.6991,-2.6924,-2.7037,-2.7388,-2.72,-2.7185,-2.7409,-2.7329,-2.7234,-2.7122,-2.7234,-2.7079,-2.6659,-2.7014,-2.6965,-3.3691,-3.3899,-3.3924,-3.3924,-3.3568,-3.293,-3.1879,-3.0902,-2.9818,-2.8519,-2.783,-2.7438,-2.7405,-2.7225,-2.732,-2.7984,-2.8268,-2.8916,-3.0361,-3.093,-3.1586,-3.2566,-3.2866,-3.294,-3.2782,-3.3103,-3.3361,-3.3477,-3.3503,-3.3503,-3.3503,-3.345,-3.3398,-3.3309,-3.3424,-3.3503,-3.3503,-3.3736,-3.3924,-3.4126,-3.4399,-3.4715,-3.5128,-3.5291,-3.5429,-3.5526,-3.5464,-3.5464,-3.5526,-3.5464,-3.5374,-3.5143,-3.3897,-3.3271,-3.2916,-3.1664,-3.119,-3.119,-3.119,-3.119,-3.119,-3.119,-3.119,-3.1247,-3.1383,-3.131,-3.1235,-3.1366,-3.144,-3.1423,-3.1346,-3.1383,-3.1366,-3.1215,-3.1154,-3.1092,-3.0975,-3.0935,-3.0915,-3.0932,-3.0955,-3.0995,-3.0995,-3.0334,-2.9576,-2.8873,-2.8044,-2.7272,-2.6655,-2.6537,-2.652,-2.652,-2.652,-2.6537,-2.6571,-2.6606,-2.6708,-2.6842,-2.6775,-2.6842,-2.7152,-2.699,-2.7024,-2.7282,-2.7234,-2.717,-2.7089,-2.7121,-2.7088,-2.6991,-2.6989,-2.699,-3.4055,-3.4399,-3.4497,-3.4497,-3.3241,-3.1965,-3.1838,-3.0603,-2.9236,-2.8304,-2.8117,-2.8079,-2.8079,-2.7541,-2.732,-2.7984,-2.8656,-2.9098,-2.913,-3.0314,-3.1223,-3.1214,-3.1855,-3.224,-3.2029,-3.2804,-3.3361,-3.3477,-3.3503,-3.3503,-3.3503,-3.3372,-3.3309,-3.3309,-3.3424,-3.3503,-3.3503,-3.3617,-3.3694,-3.371,-3.3975,-3.4325,-3.4732,-3.497,-3.5175,-3.5291,-3.5158,-3.5175,-3.5291,-3.5175,-3.4885,-3.4438,-3.3694,-3.2949,-3.2226,-3.1461,-3.119,-3.119,-3.119,-3.119,-3.119,-3.119,-3.119,-3.119,-3.119,-3.1112,-3.1035,-3.1171,-3.1252,-3.1237,-3.0992,-3.1052,-3.1151,-3.0952,-3.0912,-3.0892,-3.0892,-3.081,-3.0753,-3.0955,-3.0733,-3.0593,-3.0935,-3.0212,-2.9396,-2.8795,-2.8007,-2.7271,-2.6586,-2.6382,-2.6295,-2.6295,-2.6295,-2.6365,-2.6485,-2.6502,-2.6502,-2.6502,-2.664,-2.6674,-2.6606,-2.6657,-2.6792,-2.6991,-2.6991,-2.7106,-2.7299,-2.6957,-2.6875,-2.7008,-2.6792,-2.6758,-3.2922,-3.2992,-3.2914,-3.2803,-3.201,-3.1244,-3.1182,-3.0312,-2.9304,-2.8519,-2.8586,-2.8647,-2.8173,-2.8316,-2.8688,-2.9429,-2.9706,-3.0006,-3.0456,-3.0849,-3.1067,-3.1067,-3.1502,-3.2023,-3.256,-3.2864,-3.3085,-3.3229,-3.3293,-3.3346,-3.3346,-3.3335,-3.3309,-3.3309,-3.3319,-3.3346,-3.3346,-3.3503,-3.3555,-3.3581,-3.3822,-3.4075,-3.43,-3.4472,-3.4683,-3.4875,-3.4756,-3.478,-3.4899,-3.5041,-3.5025,-3.4862,-3.4351,-3.3694,-3.2949,-3.2205,-3.1613,-3.119,-3.119,-3.119,-3.119,-3.119,-3.119,-3.119,-3.119,-3.1171,-3.1131,-3.1092,-3.1075,-3.1058,-3.0915,-3.0952,-3.0952,-3.081,-3.0753,-3.0733,-3.0651,-3.0589,-3.0572,-3.0651,-3.0651,-3.0671,-3.0773,-3.0549,-2.9942,-2.8748,-2.8308,-2.7692,-2.6497,-2.633,-2.6295,-2.6295,-2.6295,-2.6347,-2.6485,-2.6502,-2.652,-2.6571,-2.6486,-2.6504,-2.6657,-2.6556,-2.6607,-2.6858,-2.6825,-2.6825,-2.6875,-2.6742,-2.6691,-2.6725,-2.6521,-2.6555,-3.2699,-3.2735,-3.2556,-3.242,-3.1463,-3.0609,-3.0833,-2.9942,-2.901,-2.8783,-2.8928,-2.8972,-2.8553,-2.8814,-2.9256,-2.9706,-3.0227,-3.0543,-3.0409,-3.0737,-3.0977,-3.0927,-3.1104,-3.1663,-3.2857,-3.2924,-3.2978,-3.315,-3.3256,-3.3309,-3.3309,-3.3309,-3.3309,-3.3309,-3.3309,-3.3309,-3.3309,-3.3372,-3.3424,-3.3424,-3.3607,-3.3797,-3.4025,-3.4126,-3.43,-3.4546,-3.4349,-3.4374,0.0,-3.4787,-3.497,-3.5068,-3.4661,-3.4218,-3.3694,-3.2682,-3.2005,-3.1582,-3.1292,-3.119,-3.119,-3.119,-3.119,-3.119,-3.119,-3.1171,-3.1112,-3.0975,-3.0975,-3.0975,-3.0871,-3.0871,-3.0851,-3.0671,-3.063,-3.0609,-3.0526,-3.0506,-3.051,-3.0568,-3.0609,-3.0651,-3.0692,-3.0651,-3.0131,-2.8707,-2.8453,-2.7938,-2.6548,-2.633,-2.6295,-2.6295,-2.6277,-2.6311,-2.6416,-2.6416,-2.6416,-2.6381,-2.6329,-2.633,-2.64,-2.6296,-2.6349,-2.6573,-2.6521,-2.6556,-2.6657,-2.6555,-2.6435,-2.6329,-2.6225,-2.6278,0.0,-3.3237,-3.3009,-3.2902,-3.1384,-3.0087,-3.0632,-2.9534,0.0,-2.9025,-2.9098,-2.9098,-2.9098,-2.9098,-2.913,-2.9161,-3.0314,-3.0725,-2.9367,-3.0186,-3.0895,-3.0853,-3.0757,-3.1311,-3.2917,-3.2978,-3.3005,-3.3282,-3.3309,-3.3309,-3.3309,-3.3309,-3.3309,-3.3309,-3.3309,-3.3309,-3.3309,-3.3309,-3.3309,-3.3309,-3.3309,-3.3503,-3.3848,-3.3848,-3.4,-3.4226,-3.3975,-3.4,-3.425,-3.4399,-3.4691,-3.5021,-3.4684,-3.4518,-3.432,-3.2903,-3.2344,-3.2192,-3.1464,-3.119,-3.119,-3.119,-3.119,-3.119,-3.119,-3.1112,-3.0995,-3.0932,-3.0952,-3.0955,-3.0753,-3.081,-3.0831,-3.0568,-3.0506,-3.0506,-3.0506,-3.0506,-3.0547,-3.0651,-3.0589,-3.0547,-3.0671,-3.0589,-3.005,-2.8705,-2.8491,-2.8013,-2.6652,-2.6365,-2.6295,-2.6295,-2.624,-2.6239,-2.6278,-2.6295,-2.6207,-2.6028,-2.6189,-2.6171,-2.5934,-2.5954,-2.6063,-2.617,-2.6188,-2.6313,-2.6538,-2.6365,-2.6154,-2.5897,-2.5954,-2.599,-3.2615,0.0,-3.1567,-3.1486,-3.0451,-2.9613,0.0,-2.934,-2.8562,-2.9139,-2.9167,-2.9098,-2.9098,-2.9098,-2.9272,-2.9848,-3.0654,-3.0923,-3.0054,-3.0035,-3.0407,-3.1321,-3.1283,-3.1665,-3.2846,-3.2924,-3.2978,-3.3123,-3.3229,-3.3309,-3.3309,-3.3309,-3.3309,-3.3309,-3.3309,-3.3309,-3.3309,-3.3309,-3.3309,-3.3309,-3.3309,-3.3361,-3.345,-3.345,-3.3529,-3.3668,-3.3633,-3.3633,-3.3694,-3.405,-3.4374,-3.465,-3.4888,-3.4768,-3.4387,-3.3474,-3.278,-3.2192,-3.1464,-3.119,-3.119,-3.119,-3.119,-3.119,-3.119,-3.1171,-3.1131,-3.0995,-3.0995,-3.0975,-3.0892,-3.081,-3.0733,-3.0671,-3.0568,-3.0506,-3.0506,-3.0506,-3.0506,-3.0547,-3.0526,-3.051,-3.0547,-3.0526,-3.0029,-2.8627,-2.8431,-2.79,-2.6456,-2.6239,-2.6221,-2.6221,-2.6203,-2.6203,-2.6221,-2.6221,-2.6222,-2.6225,-2.6136,-2.6028,-2.599,-2.5936,-2.5936,-2.5972,-2.6117,-2.61,-2.5905,-2.6028,-2.6026,-2.5897,-2.5749,-2.586,-3.2422,-3.1929,-3.1391,-3.1295,-3.0639,-3.0033,-3.0171,-2.9605,-2.9079,-2.9255,-2.919,-2.9098,-2.9098,-2.9098,-2.9225,-2.9643,-3.0243,-3.0595,-3.0483,-3.0094,-3.0258,-3.1471,-3.1531,-3.1836,-3.2683,-3.2843,-3.2951,-3.3085,-3.3229,-3.3309,-3.3309,-3.3309,-3.3309,-3.3309,-3.3309,-3.3309,-3.3309,-3.3309,-3.3309,-3.3309,-3.3309,-3.3309,-3.3309,-3.3309,-3.3372,-3.3503,-3.3424,-3.345,-3.3529,-3.3873,-3.4101,-3.4275,-3.4875,-3.4954,-3.4673,-3.3748,-3.3128,-3.26,-3.1483,-3.1092,-3.1052,-3.1052,-3.1052,-3.1052,-3.1052,-3.1052,-3.1072,-3.1092,-3.1075,-3.1072,-3.0972,-3.0895,-3.0834,-3.081,-3.0692,-3.0589,-3.0589,-3.0531,-3.0506,-3.0506,-3.0506,-3.0506,-3.0506,-3.0506,-3.0029,-2.8608,-2.8392,-2.7879,-2.6402,-2.6202,-2.6202,-2.6202,-2.6202,-2.6202,-2.6202,-2.615,-2.6117,-2.6154,-2.6045,-2.5936,-2.5848,-2.5789,-2.5749,-2.5749,-2.5879,-2.5844,-2.5659,-2.5791,-2.5844,-2.5749,-2.5654,-2.5675,-3.2473,-3.2143,-3.1837,-3.1691,-3.1276,-3.0744,-3.0342,-3.0006,-2.97,-2.9335,-2.9167,-2.9098,-2.9098,-2.9075,-2.9107,-2.9256,-2.9785,-3.0403,-3.106,-3.0576,-3.0557,-3.1668,-3.1781,-3.1986,-3.2586,-3.2773,-3.2897,-3.3016,-3.3134,-3.3187,-3.316,-3.3229,-3.3229,-3.3229,-3.3282,-3.3309,-3.3309,-3.3309,-3.3309,-3.3309,-3.3309,-3.3309,-3.3309,-3.3309,-3.3346,-3.345,-3.3372,-3.3372,-3.3477,-3.3745,-3.3848,-3.3975,-3.4643,-3.497,-3.4945,-3.3732,-3.3296,-3.3068,-3.1517,-3.0972,-3.0892,-3.0892,-3.0892,-3.0892,-3.0892,-3.0892,-3.0932,-3.1112,-3.1151,-3.1151,-3.1055,-3.1015,-3.0975,-3.0912,-3.0794,-3.0712,-3.0692,-3.0609,-3.0531,-3.0531,-3.051,-3.0506,-3.0506,-3.0506,-3.0059,-2.8757,-2.8439,-2.7893,-2.6515,-2.6216,-2.615,-2.615,-2.615,-2.615,-2.615,-2.6061,-2.5974,-2.5974,-2.5917,-2.5844,-2.5719,-2.5656,-2.5597,-2.5578,-2.5578,-2.5562,-2.5559,-2.5605,-2.5605,-2.5559,-2.5562,-2.5505,-3.2639,-3.2318,-3.2037,-3.2037,-3.1578,-3.1015,-3.0555,-3.0118,-2.9677,-2.9236,-2.9098,-2.9098,-2.9098,-2.9013,-2.9179,-2.9911,-3.0582,-3.1407,-3.2567,-3.2128,-3.1935,-3.262,-3.2548,-3.2567,-3.2827,-3.2746,-3.266,-3.2683,-3.2711,-3.2656,-3.2535,-3.2827,-3.2951,-3.2951,-3.3176,-3.3309,-3.3309,-3.3309,-3.3309,-3.3309,-3.3309,-3.3309,-3.3309,-3.3309,-3.3293,-3.3335,-3.3424,-3.344,-3.3319,-3.3503,-3.371,-3.3899,-3.4025,-3.4423,-3.4764,-3.3406,-3.3048,-3.2997,-3.1517,-3.0972,-3.0892,-3.0892,-3.0892,-3.0892,-3.0892,-3.0892,-3.0912,-3.0932,-3.0992,-3.1055,-3.1151,-3.1092,-3.0975,-3.0912,-3.0892,-3.0851,-3.0712,-3.0692,-3.0671,-3.0671,-3.0589,-3.0506,-3.0506,-3.0506,-3.0208,-2.9383,-2.8679,-2.7927,-2.7083,-2.6367,-2.5952,-2.5952,-2.5952,-2.5952,-2.5952,-2.5934,-2.5934,-2.5934,-2.5915,-2.5844,-2.5719,-2.5656,-2.5543,-2.5432,-2.5432,-2.5394,-2.5352,-2.5371,-2.5371,-2.5352,-2.5394,-2.5432,-3.2622,-3.2336,-3.2177,-3.2449,-3.1848,-3.1055,-3.0518,-3.014,-2.9804,-2.9412,-2.9275,-2.9167,-2.9013,-2.9328,-2.984,-3.0509,-3.0779,-3.1242,-3.2243,-3.205,-3.2033,-3.2652,-3.2648,-3.2621,-3.2621,-3.2551,-3.248,-3.2492,-3.2492,-3.2465,-3.2398,-3.2551,-3.2621,-3.2621,-3.2823,-3.2958,-3.3069,-3.3069,-3.315,-3.3309,-3.3309,-3.3256,-3.3203,-3.3282,-3.3256,-3.3203,-3.3319,-3.3346,-3.3293,-3.3388,-3.345,-3.3607,-3.3838,-3.3841,-3.3639,-3.2546,-3.1981,-3.1654,-3.113,-3.0777,-3.0597,-3.0753,-3.0794,-3.0773,-3.0712,-3.0692,-3.0692,-3.0773,-3.0871,-3.0935,-3.0915,-3.0952,-3.0952,-3.0912,-3.0892,-3.0892,-3.0855,-3.0773,-3.0692,-3.0692,-3.0589,-3.0506,-3.0443,-3.0443,-3.0174,-2.937,-2.8914,-2.8286,-2.7134,-2.667,-2.6307,-2.593,-2.5917,-2.5954,-2.5954,-2.5917,-2.5862,-2.5791,-2.5791,-2.5754,-2.564,-2.5546,-2.5505,-2.5505,-2.5394,-2.5355,-2.5355,-2.5355,-2.5352,-2.5294,-2.5448,-2.5451,-3.2673,-3.237,-3.2282,-3.2786,-3.2183,-3.1358,-3.0936,-3.0642,-3.0389,-3.0021,-2.9694,-2.9428,-2.9202,-2.9832,-3.0502,-3.0848,-3.1072,-3.14,-3.1966,-3.198,-3.2075,-3.2559,-3.2594,-3.2551,-3.2425,-3.2398,-3.237,-3.2315,-3.233,-3.2259,-3.2176,-3.2259,-3.233,-3.233,-3.2492,-3.2672,-3.2827,-3.287,-3.3032,-3.3256,-3.3229,-3.315,-3.3058,-3.315,-3.315,-3.3058,-3.3203,-3.3256,-3.3256,-3.3282,-3.3309,-3.3335,-3.3591,-3.3226,-3.241,-3.1741,-3.1054,-3.0464,-3.0651,-3.0572,-3.0389,-3.0568,-3.0651,-3.0671,-3.0547,-3.0506,-3.0526,-3.063,-3.0733,-3.081,-3.0753,-3.0831,-3.0892,-3.0871,-3.0851,-3.0871,-3.0875,-3.0753,-3.0651,-3.0651,-3.0568,-3.0485,-3.0417,-3.0396,-3.0157,-2.9456,-2.9144,-2.8596,-2.7526,-2.7026,-2.6599,-2.6134,-2.5995,-2.5917,-2.5917,-2.586,-2.577,-2.5645,-2.5626,-2.5605,-2.5562,-2.5451,-2.5432,-2.554,-2.5371,-2.5317,-2.5339,-2.5339,-2.5298,-2.5236,-2.5445,-2.5429,-3.29,-3.2592,-3.2459,-3.2808,-3.2601,-3.2317,-3.2343,-3.2132,-3.1808,-3.1366,-3.0664,-3.0077,-2.9949,-3.0483,-3.088,-3.0664,-3.1925,-3.2891,-3.2846,-3.2819,-3.2753,-3.2605,-3.2594,-3.2551,-3.2425,-3.2398,-3.2287,-3.2053,-3.2025,-3.1896,-3.1582,-3.184,-3.2025,-3.2025,-3.2398,-3.2602,-3.2629,-3.2827,-3.2978,-3.3096,-3.2978,-3.2924,-3.2897,-3.2924,-3.2924,-3.2924,-3.3058,-3.3096,-3.3123,-3.3256,-3.3309,-3.3309,-3.3203,-3.2523,-3.155,-3.1245,-3.0751,-3.021,-3.0231,-3.0359,-3.0468,-3.0422,-3.0547,-3.0671,-3.0547,-3.0506,-3.0506,-3.051,-3.0526,-3.0572,-3.0814,-3.0892,-3.0871,-3.0733,-3.0712,-3.0671,-3.0551,-3.051,-3.051,-3.051,-3.0506,-3.0485,-3.0417,-3.0396,-3.0338,-3.0145,-2.9275,-2.8694,-2.8823,-2.7393,-2.6435,-2.662,-2.6024,-2.5635,-2.5635,-2.5635,-2.5562,-2.5416,-2.5416,-2.5416,-2.5397,-2.5397,-2.5375,-2.5314,-2.5314,-2.524,-2.5111,-2.5111,-2.5088,-2.5025,-2.5236,-2.524,-3.2993,-3.2642,-3.2617,-3.3546,-3.3416,-3.2992,-3.2591,-3.2266,-3.1932,-3.1598,-3.1221,-3.0925,-3.0779,-3.0761,-3.0906,-3.1378,-3.2215,-3.2757,-3.2718,-3.2648,-3.2551,-3.248,-3.248,-3.2453,-3.2398,-3.2315,-3.2191,-3.2025,-3.1912,-3.1784,-3.1511,-3.1626,-3.1683,-3.1683,-3.1953,-3.2163,-3.2342,-3.2428,-3.2566,-3.2784,-3.2854,-3.2843,-3.2718,-3.2843,-3.2843,-3.2718,-3.2897,-3.2978,-3.2978,-3.3032,-3.3058,-3.2964,-3.2128,-3.1675,-3.1454,-3.0999,-3.0969,-3.116,-3.1365,-3.1365,-3.1193,-3.0865,-3.0931,-3.1037,-3.0469,-3.0401,-3.0506,-3.0506,-3.0464,-3.0464,-3.0564,-3.0584,-3.0584,-3.0589,-3.0589,-3.0572,-3.063,-3.0568,-3.0506,-3.0506,-3.0464,-3.0422,-3.0401,-3.0316,-3.0184,-2.9924,-2.9462,-2.8992,-2.851,-2.7945,-2.7315,-2.6527,-2.5966,-2.5661,-2.5661,-2.5508,-2.5391,-2.5336,-2.5375,-2.5394,-2.5336,-2.5336,-2.5333,-2.5294,-2.522,-2.5146,-2.5091,-2.5166,-2.5143,-2.5005,-2.5259,-2.5259,-3.3052,-3.274,-3.2756,-3.3748,-3.3793,-3.3482,-3.3034,-3.2796,-3.2587,-3.2303,-3.1906,-3.1501,-3.1155,-3.1004,-3.1187,-3.1795,-3.2291,-3.2578,-3.2551,-3.2453,-3.2398,-3.2398,-3.2398,-3.2398,-3.2398,-3.2274,-3.2135,-3.2025,-3.187,-3.1698,-3.1511,-3.1511,-3.1511,-3.1511,-3.1698,-3.1898,-3.2066,-3.2163,-3.2302,-3.2484,-3.2648,-3.2676,-3.2551,-3.2676,-3.2676,-3.2551,-3.2746,-3.2816,-3.2816,-3.287,-3.2745,-3.2422,-3.1586,-3.1256,-3.1244,-3.0903,-3.1142,-3.1638,-3.186,-3.1731,-3.1402,-3.1024,-3.0935,-3.0849,-3.0336,-3.0295,-3.0405,-3.0464,-3.0422,-3.0396,-3.0354,-3.0354,-3.0375,-3.0443,-3.0443,-3.0422,-3.0464,-3.0443,-3.0401,-3.0359,-3.038,-3.0396,-3.0338,-3.0253,-3.0119,-2.9836,-2.9554,-2.9175,-2.8608,-2.8338,-2.7715,-2.6418,-2.6063,-2.5829,-2.5677,-2.5413,-2.522,-2.5166,-2.5204,-2.5204,-2.5217,-2.5236,-2.524,-2.524,-2.5146,-2.5091,-2.5091,-2.5201,-2.5162,-2.5005,-2.5201,-2.5162,-3.3162,-3.2902,-3.2886,-3.323,-3.3552,-3.383,-3.389,-3.4012,-3.4025,-3.3745,-3.2843,-3.183,-3.0957,-3.1353,-3.1742,-3.1626,-3.2172,-3.2551,-3.2425,-3.2398,-3.2398,-3.2398,-3.2398,-3.2398,-3.2398,-3.2259,-3.215,-3.2025,-3.187,-3.1698,-3.1511,-3.1511,-3.1511,-3.1511,-3.1698,-3.1799,-3.1784,-3.2066,-3.2191,-3.2191,-3.2342,-3.2398,-3.2398,-3.2398,-3.2398,-3.2425,-3.2551,-3.2594,-3.2621,-3.2816,-3.2369,-3.1626,-3.1742,-3.1399,-3.0832,-3.0948,-3.1173,-3.142,-3.142,-3.1198,-3.0898,-3.0735,-3.0364,-3.0033,-3.0146,-3.0189,-3.021,-3.0375,-3.0396,-3.0359,-3.0231,-3.0189,-3.0231,-3.0375,-3.0312,-3.0146,-3.0017,-3.0103,-3.0146,-3.0017,-3.021,-3.0338,-3.021,-3.0189,-3.0146,-3.0017,-2.9486,-2.919,-2.9448,-2.8444,-2.7344,-2.6429,-2.631,-2.6122,-2.5643,-2.5298,-2.5052,-2.4902,-2.4819,-2.4851,-2.4985,-2.5068,-2.5091,-2.5091,-2.5091,-2.5091,-2.5091,-2.5091,-2.5068,-2.5005,-2.5005,-2.4942,-3.3386,-3.3375,-3.3616,-3.4108,-3.4365,-3.4546,-3.4767,-3.4438,-3.3949,-3.3398,-3.2573,-3.1857,-3.1555,-3.1696,-3.1799,-3.1626,-3.2172,-3.2551,-3.2425,-3.2398,-3.2342,-3.215,-3.2122,-3.2051,-3.1923,-3.1881,-3.1868,-3.187,-3.1813,-3.1698,-3.1511,-3.1511,-3.1568,-3.1698,-3.1626,-3.1741,-3.2066,-3.2066,-3.2135,-3.2342,-3.237,-3.2398,-3.2398,-3.2398,-3.2398,-3.2398,-3.2425,-3.2523,-3.2594,-3.2648,-3.2245,-3.1626,-3.1742,-3.167,-3.155,-3.1823,-3.2137,-3.2395,-3.2021,-3.1732,-3.1385,-3.0496,-3.0211,-3.0149,-2.981,-2.9804,-2.9919,-2.9962,-2.9984,-2.9984,-3.0038,-3.0017,-3.0033,-3.0227,-3.0146,-3.0038,-2.9995,-3.0038,-3.0038,-2.9995,-3.006,-3.0081,-2.9941,-3.0081,-3.0038,-2.9576,-2.9373,-2.9167,-2.8967,-2.8209,-2.7637,-2.7522,-2.7232,-2.6716,-2.5821,-2.5595,-2.5227,-2.4523,-2.4323,-2.4385,-2.4726,-2.4926,-2.5025,-2.5025,-2.5025,-2.5025,-2.5025,-2.5088,-2.5068,-2.5005,-2.5005,-2.4942,-3.3902,-3.4051,-3.4341,-3.4438,-3.4673,-3.4827,-3.4761,-3.4308,-3.3694,-3.3123,-3.2623,-3.2273,-3.2257,-3.2204,-3.2151,-3.2124,-3.2342,-3.2496,-3.2425,-3.2398,-3.2287,-3.2038,-3.2053,-3.1981,-3.1724,-3.171,-3.1769,-3.1799,-3.1727,-3.1626,-3.1511,-3.1511,-3.1568,-3.167,-3.1641,-3.1741,-3.2038,-3.2066,-3.2163,-3.2315,-3.237,-3.2398,-3.2398,-3.2398,-3.2398,-3.2398,-3.2398,-3.248,-3.2594,-3.2594,-3.2245,-3.172,-3.208,-3.2112,-3.1972,-3.2452,-3.2589,-3.2535,-3.2217,-3.1622,-3.0894,-3.0156,-2.9823,-2.9651,-2.9416,-2.9454,-2.9611,-2.9677,-2.9677,-2.9677,-2.9716,-2.9643,-2.9681,-3.0038,-3.006,-2.9995,-2.9968,-2.9973,-2.9995,-2.9968,-2.9973,-2.9951,-2.9782,-2.9886,-2.9842,-2.9373,-2.9129,-2.885,-2.8462,-2.8059,-2.7783,-2.7741,-2.7507,-2.7011,-2.6197,-2.5715,-2.5219,-2.4654,-2.4183,-2.4051,-2.4343,-2.467,-2.4886,-2.5005,-2.4962,-2.4962,-2.5005,-2.4985,-2.4985,-2.5005,-2.4962,-2.4846,-3.4561,-3.4802,-3.5066,-3.4536,-3.4642,-3.4769,-3.4219,-3.3771,-3.3372,-3.2978,-3.2897,-3.287,-3.287,-3.2718,-3.2648,-3.2843,-3.2594,-3.2398,-3.2398,-3.237,-3.2259,-3.1981,-3.2023,-3.1966,-3.1682,-3.1655,-3.1698,-3.1756,-3.1568,-3.1467,-3.1511,-3.1511,-3.1511,-3.1539,-3.1698,-3.1813,-3.1856,-3.2066,-3.2219,-3.2219,-3.2342,-3.2398,-3.2398,-3.2398,-3.2398,-3.2398,-3.2425,-3.248,-3.2578,-3.2621,-3.233,-3.195,-3.2647,-3.2613,-3.2259,-3.2876,-3.2672,-3.2034,-3.1971,-3.1002,-2.9762,-2.9699,-2.9278,-2.8818,-2.9013,-2.9152,-2.9282,-2.9403,-2.9425,-2.9425,-2.9305,-2.919,-2.9236,-2.9798,-2.9908,-2.9886,-2.9836,-2.988,-2.9886,-2.9836,-2.988,-2.9842,-2.9637,-2.9653,-2.957,-2.9305,-2.8811,-2.8383,-2.8054,-2.7995,-2.785,-2.7409,-2.738,-2.7196,-2.6652,-2.5797,-2.5207,-2.5042,-2.4306,-2.3878,-2.394,-2.4343,-2.469,-2.4946,-2.4842,-2.4842,-2.4966,-2.4842,-2.4862,-2.4966,-2.4842,-2.4726,-3.479,-3.5292,-3.5771,-3.5266,-3.5019,-3.4761,-3.4226,-3.3771,-3.3372,-3.2978,-3.2773,-3.2621,-3.2523,-3.2551,-3.2578,-3.2523,-3.2453,-3.2398,-3.2398,-3.2219,-3.1981,-3.1638,-3.1307,-3.1146,-3.122,-3.0881,-3.0896,-3.1511,-3.1278,-3.1219,-3.1511,-3.1511,-3.1568,-3.1727,-3.1784,-3.1898,-3.2122,-3.2163,-3.2247,-3.237,-3.2398,-3.2398,-3.2398,-3.2398,-3.2398,-3.2425,-3.2523,-3.2523,-3.2453,-3.2746,-3.2776,-3.2678,-3.2942,-3.2991,-3.2892,-3.3049,-3.2498,-3.1627,-3.1099,-3.0293,-2.9419,-2.9,-2.8769,-2.8684,-2.8826,-2.8873,-2.8897,-2.8944,-2.8982,-2.902,-2.8997,-2.9036,-2.9121,-2.9259,-2.9282,-2.9282,-2.9275,-2.9282,-2.9282,-2.9259,-2.9282,-2.9213,-2.8943,-2.919,-2.9266,-2.8889,-2.863,-2.8383,-2.8054,-2.7995,-2.7959,-2.7856,-2.8021,-2.7769,-2.6844,-2.6756,-2.6107,-2.4566,-2.4395,-2.4104,-2.3545,-2.4078,-2.4441,-2.46,-2.4625,-2.4666,-2.469,-2.4666,-2.4706,-2.4842,-2.4706,-2.463,-3.5275,-3.5789,-3.6162,-3.5821,-3.5166,-3.4529,-3.4194,-3.3565,-3.3064,-3.3007,-3.2784,-3.2578,-3.2523,-3.2551,-3.2578,-3.2523,-3.2496,-3.2441,-3.2247,-3.2094,-3.1783,-3.1248,-3.1014,-3.0836,-3.0732,-3.0538,-3.0628,-3.1058,-3.0896,-3.0955,-3.1248,-3.1248,-3.138,-3.167,-3.1756,-3.1898,-3.2094,-3.2178,-3.2274,-3.2398,-3.2398,-3.2398,-3.2398,-3.2398,-3.2398,-3.2398,-3.2453,-3.2496,-3.2523,-3.2676,-3.2854,-3.3005,-3.3069,-3.3123,-3.3176,-3.3123,-3.2305,-3.1161,-3.0753,-2.9852,-2.8873,-2.8592,-2.8517,-2.8517,-2.8604,-2.8636,-2.8684,-2.8684,-2.874,-2.8771,-2.8771,-2.8748,-2.8763,-2.8763,-2.8951,-2.9098,-2.9098,-2.9098,-2.9098,-2.9098,-2.9098,-2.9006,-2.8756,-2.8795,-2.8748,-2.8422,-2.8374,-2.8229,-2.7865,-2.7855,-2.788,-2.7815,-2.794,-2.7803,-2.7219,-2.7025,-2.6311,-2.4911,-2.4547,-2.4096,-2.3385,-2.3653,-2.3967,-2.4255,-2.4323,-2.4405,-2.4467,-2.4523,-2.4584,-2.4661,-2.4584,-2.4487,-3.582,-3.6237,-3.6465,-3.6233,-3.5231,-3.4298,-3.4195,-3.336,-3.2704,-3.3035,-3.2839,-3.2594,-3.2594,-3.2594,-3.2578,-3.2578,-3.2578,-3.2456,-3.2053,-3.194,-3.1611,-3.0881,-3.0807,-3.0673,-3.0342,-3.0387,-3.0492,-3.0598,-3.0552,-3.0657,-3.097,-3.0999,-3.1161,-3.1511,-3.1727,-3.1898,-3.1996,-3.215,-3.2247,-3.237,-3.237,-3.237,-3.2398,-3.2398,-3.2398,-3.2398,-3.2398,-3.2453,-3.2578,-3.2578,-3.2757,-3.3016,-3.3085,-3.3176,-3.3256,-3.3096,-3.2097,-3.0766,-3.0603,-2.9595,-2.8411,-2.8411,-2.8411,-2.8411,-2.8411,-2.8468,-2.8565,-2.8565,-2.8565,-2.8565,-2.8565,-2.8468,-2.8411,-2.8411,-2.8708,-2.8998,-2.8998,-2.8998,-2.8959,-2.8936,-2.8936,-2.8889,-2.8677,-2.8501,-2.8339,-2.8079,-2.8103,-2.8039,-2.7675,-2.77,-2.7715,-2.7625,-2.76,-2.76,-2.76,-2.7091,-2.6419,-2.5595,-2.4879,-2.4145,-2.3422,-2.329,-2.3407,-2.3812,-2.3931,-2.4078,-2.4255,-2.4359,-2.4436,-2.4477,-2.4477,-2.4338,-3.603,-3.6562,-3.6927,-3.6533,-3.5356,-3.4343,-3.4414,-3.3583,-3.283,-3.3061,-3.2839,-3.2594,-3.2594,-3.2594,-3.2551,-3.2453,-3.2523,-3.2456,-3.2053,-3.164,-3.1263,-3.0851,-3.0312,-3.0054,-3.0282,-2.9974,-2.9974,-3.0552,-3.0341,-3.0401,-3.097,-3.0999,-3.1161,-3.1511,-3.1798,-3.1968,-3.1996,-3.215,-3.2219,-3.2219,-3.2219,-3.2302,-3.2398,-3.2398,-3.2398,-3.2398,-3.2398,-3.2425,-3.2425,-3.2551,-3.2621,-3.2703,-3.2989,-3.3096,-3.3096,-3.2978,-3.2034,-3.0766,-3.0516,-2.9535,-2.8411,-2.8411,-2.8411,-2.8411,-2.8411,-2.8396,-2.8436,-2.8436,-2.8436,-2.8436,-2.8436,-2.8396,-2.8411,-2.8411,-2.8444,-2.8493,-2.8493,-2.8493,-2.8468,-2.8332,-2.8332,-2.8356,-2.842,-2.842,-2.8348,-2.8201,-2.8079,-2.798,-2.779,-2.7675,-2.7625,-2.76,-2.76,-2.76,-2.76,-2.751,-2.7056,-2.6145,-2.5496,-2.4752,-2.3859,-2.3246,-2.2978,-2.3045,-2.3458,-2.3782,-2.4046,-2.4067,-2.4151,-2.4338,-2.4338,-2.4261,-3.5721,-3.6654,-3.73,-3.6794,-3.5735,-3.4831,-3.4971,-3.405,-3.3251,-3.3576,-3.324,-3.2812,-3.2648,-3.2594,-3.2551,-3.2425,-3.2453,-3.2274,-3.1697,-3.1336,-3.0911,-3.0312,-2.9976,-2.9915,-3.0158,-2.982,-2.9789,-3.028,-3.0005,-3.0097,-3.0747,-3.0777,-3.0984,-3.1467,-3.1741,-3.1898,-3.1898,-3.2025,-3.2094,-3.2094,-3.2163,-3.2247,-3.2287,-3.237,-3.2398,-3.2398,-3.2398,-3.2398,-3.2398,-3.2453,-3.2523,-3.2605,-3.2757,-3.2935,-3.3069,-3.2827,-3.1913,-3.074,-3.049,-2.951,-2.8411,-2.8411,-2.8411,-2.8411,-2.8411,-2.8411,-2.8411,-2.8411,-2.8411,-2.8411,-2.8411,-2.8411,-2.8411,-2.8411,-2.8411,-2.8411,-2.8411,-2.8411,-2.8372,-2.8323,-2.8323,-2.8323,-2.8387,-2.8411,-2.8348,-2.821,-2.8137,-2.8054,-2.7815,-2.7765,-2.7675,-2.7625,-2.76,-2.76,-2.76,-2.7524,-2.7129,-2.6253,-2.5894,-2.5155,-2.3958,-2.3615,-2.3287,-2.2902,-2.3253,-2.3494,-2.3603,-2.3797,-2.3903,-2.3909,-2.3973,-2.3952,-3.4859,-3.5871,-3.6684,-3.6191,-3.5486,-3.4974,-3.5115,-3.423,-3.3517,-3.3955,-3.3555,-3.3016,-3.273,-3.2676,-3.2621,-3.2425,-3.2398,-3.2176,-3.1509,-3.1219,-3.0777,-3.0023,-2.9884,-2.9929,-3.008,-2.9803,-2.9741,-3.008,-2.9865,-2.9974,-3.0568,-3.0657,-3.0955,-3.1467,-3.1698,-3.1799,-3.1799,-3.1898,-3.194,-3.194,-3.2038,-3.2122,-3.2135,-3.2247,-3.2287,-3.2287,-3.237,-3.237,-3.2342,-3.2398,-3.2453,-3.2551,-3.2578,-3.2757,-3.2935,-3.2703,-3.1792,-3.0731,-3.049,-2.951,-2.8411,-2.8411,-2.8411,-2.8411,-2.8411,-2.8411,-2.8411,-2.8411,-2.8411,-2.8411,-2.8411,-2.8411,-2.8411,-2.8411,-2.8411,-2.8411,-2.8411,-2.8372,-2.8348,-2.8387,-2.8372,-2.8348,-2.8387,-2.8411,-2.8372,-2.8259,-2.8186,-2.8079,-2.788,-2.779,-2.7715,-2.765,-2.7625,-2.76,-2.76,-2.7488,-2.7117,-2.6453,-2.6147,-2.5447,-2.4219,-2.3978,-2.3586,-2.2902,-2.3112,-2.3231,-2.3297,-2.356,-2.3653,-2.3595,-2.3696,-2.3674,-3.3173,-3.3654,-3.4334,-3.4119,-3.4088,-3.4197,-3.4397,-3.391,-3.3493,-3.3829,-3.3477,-3.3058,-3.2897,-3.287,-3.2773,-3.2453,-3.2398,-3.2231,-3.1768,-3.1452,-3.1043,-3.0342,-3.0158,-3.008,-3.008,-2.9803,-2.9741,-3.008,-3.008,-3.0233,-3.0568,-3.0822,-3.1161,-3.1511,-3.1698,-3.1799,-3.1799,-3.1828,-3.1813,-3.1813,-3.1813,-3.1898,-3.2025,-3.2025,-3.2025,-3.2038,-3.2302,-3.2315,-3.2219,-3.2342,-3.2398,-3.2425,-3.2551,-3.2621,-3.2605,-3.2621,-3.1754,-3.0577,-3.0454,-2.951,-2.8411,-2.8411,-2.8411,-2.8411,-2.8411,-2.8411,-2.8411,-2.8411,-2.8411,-2.8411,-2.8411,-2.8411,-2.8411,-2.8411,-2.8411,-2.8411,-2.8411,-2.8299,-2.8235,-2.8372,-2.8299,-2.8235,-2.8372,-2.8411,-2.8411,-2.8387,-2.8177,-2.802,-2.798,-2.7765,-2.765,-2.779,-2.7675,-2.76,-2.76,-2.7488,-2.7258,-2.6985,-2.636,-2.5652,-2.4888,-2.4249,-2.3586,-2.2902,-2.291,-2.3045,-2.3297,-2.3319,-2.3414,-2.3595,-2.3595,-2.3501,-3.3025,-3.3254,-3.3737,-3.3353,-3.3123,-3.3241,-3.418,-3.3766,-3.3511,-3.4625,-3.4209,-3.3581,-3.345,-3.3027,-3.2621,-3.233,-3.2191,-3.1966,-3.1509,-3.1248,-3.0793,-2.9942,-2.9661,-2.9503,-2.9478,-2.9387,-2.9541,-3.0046,-3.0094,-3.031,-3.0822,-3.0762,-3.0984,-3.1467,-3.1698,-3.1799,-3.1799,-3.167,-3.1597,-3.1597,-3.1727,-3.1813,-3.187,-3.1968,-3.194,-3.187,-3.2066,-3.2122,-3.2094,-3.233,-3.2342,-3.2287,-3.2441,-3.2523,-3.2578,-3.2496,-3.1685,-3.0593,-3.0454,-2.951,-2.8411,-2.8411,-2.8411,-2.8411,-2.8411,-2.8411,-2.8411,-2.8411,-2.8411,-2.8411,-2.8411,-2.8411,-2.8411,-2.8411,-2.8411,-2.8372,-2.8299,-2.8299,-2.8348,-2.8387,-2.8348,-2.8348,-2.8387,-2.8323,-2.8259,-2.8259,-2.7965,-2.7765,-2.7855,-2.764,-2.7539,-2.765,-2.7625,-2.7575,-2.7488,-2.7335,-2.7181,-2.7003,-2.6692,-2.6003,-2.4868,-2.4607,-2.3983,-2.2917,-2.2888,-2.2955,-2.3045,-2.3135,-2.3164,-2.3157,-2.3238,-2.3179,-3.2314,-3.2206,-3.2302,-3.1982,-3.2181,-3.2704,-3.3765,-3.3764,-3.3893,-3.5087,-3.4634,-3.3975,-3.3745,-3.3251,-3.2769,-3.233,-3.1924,-3.1535,-3.118,-3.0786,-3.0261,-2.9521,-2.9276,-2.9145,-2.9086,-2.9247,-2.9566,-3.0057,-3.0204,-3.0492,-3.097,-3.0822,-3.0955,-3.1467,-3.1626,-3.1727,-3.1799,-3.1597,-3.1539,-3.1597,-3.167,-3.1698,-3.1698,-3.1798,-3.1769,-3.1698,-3.1855,-3.194,-3.194,-3.2219,-3.2274,-3.2219,-3.2342,-3.2453,-3.2523,-3.2425,-3.1605,-3.0516,-3.0412,-2.951,-2.8411,-2.8411,-2.8411,-2.8411,-2.8411,-2.8411,-2.8411,-2.8411,-2.8411,-2.8411,-2.8411,-2.8372,-2.8348,-2.8387,-2.8372,-2.8323,-2.821,-2.8323,-2.8387,-2.8348,-2.8323,-2.8323,-2.8323,-2.8226,-2.8137,-2.8137,-2.7825,-2.7625,-2.7715,-2.7488,-2.7386,-2.7539,-2.7499,-2.7423,-2.735,-2.7207,-2.7067,-2.6951,-2.6846,-2.6199,-2.4882,-2.4824,-2.4215,-2.2917,-2.2888,-2.2902,-2.2872,-2.297,-2.3,-2.2889,-2.2979,-2.2949,0.0,0.0,0.0,-2.9951,-3.1195,-3.2595,-3.307,-3.3794,-3.452,-3.5052,-3.4697,-3.4184,-3.3781,-3.3591,-3.3277,-3.2535,-3.1641,-3.0998,-3.0845,-3.0138,-2.9528,-2.9167,-2.9098,-2.9083,-2.9053,-2.9375,-2.9711,-3.0057,-3.0411,-3.0717,-3.0999,-3.0999,-3.1161,-3.1511,-3.1511,-3.1597,-3.1799,-3.1597,-3.1597,-3.1799,-3.1597,-3.1511,-3.1511,-3.1511,-3.1511,-3.1511,-3.1698,-3.1799,-3.1813,-3.2094,-3.2191,-3.2191,-3.2342,-3.2398,-3.2398,-3.2398,-3.1524,-3.0402,-3.0402,-2.951,-2.8411,-2.8411,-2.8411,-2.8411,-2.8411,-2.8411,-2.8411,-2.8411,-2.8411,-2.8411,-2.8411,-2.8299,-2.8235,-2.8348,-2.8299,-2.8186,-2.8186,-2.8299,-2.8348,-2.821,-2.8186,-2.8186,-2.8186,-2.8079,-2.798,-2.798,-2.7765,-2.76,-2.76,-2.7346,-2.7258,-2.7376,-2.7284,-2.7207,-2.7181,-2.7067,-2.6951,-2.6806,-2.6806,-2.6239,-2.4936,-2.4892,-2.4268,-2.2917,-2.2888,-2.2872,-2.2809,-2.2872,-2.2873,-2.2889,-2.2889,-2.2768,-3.1808,0.0,0.0,0.0,0.0,0.0,-3.2555,-3.3209,-3.3734,-3.4182,-3.4538,-3.4589,-3.3904,-3.3868,-3.3745,-3.316,-3.2396,-3.182,-3.168,-3.1276,-3.0614,-2.9575,-2.925,-2.8811,-2.8073,-2.8769,-2.9392,-2.9712,-3.0438,-3.1043,-3.1351,-3.1351,-3.1409,-3.1511,-3.1511,-3.1539,-3.1568,-3.167,-3.167,-3.1568,-3.167,-3.1641,-3.1511,-3.1511,-3.1511,-3.1511,-3.1568,-3.1568,-3.1597,-3.1925,-3.1996,-3.1912,-3.2066,-3.2122,-3.2122,-3.2122,-3.1323,-3.0256,-3.0256,-2.9444,-2.8411,-2.8411,-2.8411,-2.8411,-2.8411,-2.8411,-2.8372,-2.8275,-2.8323,-2.8372,-2.8275,-2.8235,-2.8186,-2.8128,-2.8079,-2.8029,-2.794,-2.8029,-2.8103,-2.8054,-2.8054,-2.8054,-2.8054,-2.794,-2.7855,-2.7855,-2.7615,-2.7478,-2.7478,-2.731,-2.7207,-2.7258,-2.7233,-2.7155,-2.7067,-2.7029,-2.6951,-2.6806,-2.6806,-2.6239,-2.4936,-2.4839,-2.4215,-2.2917,-2.2888,-2.2872,-2.2809,-2.2818,-2.2721,-2.2555,-2.2449,-2.2356,-3.2512,-3.2015,-3.1597,-3.1434,0.0,0.0,-3.2515,-3.33,-3.4013,-3.4412,-3.4457,-3.4315,-3.4063,-3.3439,-3.304,-3.3242,-3.2793,-3.228,-3.1723,-3.1218,-3.0584,-2.979,-2.9456,-2.9089,-2.8487,-2.9205,-2.9788,-2.9968,-3.0598,-3.1087,-3.1278,-3.1409,-3.1467,-3.1409,-3.1409,-3.1438,-3.1509,-3.1611,-3.1683,-3.1712,-3.1756,-3.1727,-3.1626,-3.1539,-3.1511,-3.1511,-3.1511,-3.1346,-3.1106,-3.1304,-3.1375,-3.139,-3.1516,-3.1571,-3.1571,-3.1571,-3.0958,-3.0079,-2.9867,-2.9138,-2.8323,-2.8372,-2.8411,-2.8411,-2.8411,-2.8411,-2.8372,-2.8235,-2.8226,-2.8226,-2.821,-2.8113,-2.8039,-2.802,-2.7955,-2.7905,-2.7815,-2.7905,-2.798,-2.793,-2.793,-2.793,-2.793,-2.784,-2.779,-2.7715,-2.7539,-2.7401,-2.7401,-2.7248,-2.7119,-2.7119,-2.7119,-2.7067,-2.6925,-2.6925,-2.6873,-2.6806,-2.6806,-2.6355,-2.5324,-2.4969,-2.4331,-2.3331,-2.3055,-2.2834,-2.2712,-2.2772,-2.2666,-2.2394,-2.2254,-2.2208,-3.3178,-3.2553,-3.1908,-3.1709,-3.2051,0.0,-3.2578,-3.354,-3.4462,-3.472,-3.4048,-3.355,-3.3837,-3.2543,-3.1748,-3.2733,-3.2772,-3.2387,-3.1554,-3.0796,-3.0224,-2.9993,-2.9847,-2.9723,-2.9633,-3.0161,-3.0535,-3.0507,-3.0834,-3.1058,-3.1058,-3.1351,-3.1438,-3.1307,-3.1307,-3.1365,-3.1495,-3.1523,-3.1682,-3.1968,-3.187,-3.1813,-3.1813,-3.1597,-3.1511,-3.1553,-3.1539,-3.115,-3.0563,-3.0488,-3.0513,-3.0681,-3.0806,-3.0861,-3.0861,-3.0861,-3.0437,-2.9837,-2.9343,-2.8752,-2.8235,-2.8348,-2.8411,-2.8411,-2.8411,-2.8387,-2.8348,-2.821,-2.8079,-2.8005,-2.8113,-2.7989,-2.7815,-2.793,-2.7855,-2.779,-2.779,-2.788,-2.793,-2.779,-2.779,-2.779,-2.779,-2.779,-2.774,-2.765,-2.7488,-2.7401,-2.7401,-2.7185,-2.6977,-2.6977,-2.6977,-2.6925,-2.6806,-2.6779,-2.6779,-2.6806,-2.6779,-2.6463,-2.5847,-2.5143,-2.4481,-2.3905,-2.3198,-2.2752,-2.2555,-2.2689,-2.2621,-2.237,-2.2254,-2.2184,-3.398,-3.3796,-3.3457,-3.2724,-3.26,0.0,-3.1619,-3.2,-3.2309,-3.1519,-3.1983,-3.2299,-3.1468,-3.1451,-3.143,-3.1094,-3.1528,-3.2131,-3.2798,-3.2507,-3.1917,-3.1033,-3.0825,-3.0477,-2.9825,-3.0368,-3.0661,-3.0507,-3.105,-3.1409,-3.1409,-3.1467,-3.1438,-3.1307,-3.1307,-3.1307,-3.1336,-3.1552,-3.1726,-3.1841,-3.1912,-3.1968,-3.194,-3.1655,-3.1655,-3.1912,-3.1784,-3.1421,-3.0867,-3.0322,-3.0003,-2.9856,-2.9856,-2.9937,-3.0033,-2.991,-2.966,-2.9327,-2.9129,-2.8742,-2.8372,-2.8387,-2.8411,-2.8411,-2.8411,-2.8323,-2.821,-2.8079,-2.7955,-2.784,-2.7865,-2.784,-2.779,-2.77,-2.765,-2.765,-2.765,-2.765,-2.7675,-2.765,-2.774,-2.7765,-2.765,-2.765,-2.7675,-2.7765,-2.7539,-2.7401,-2.7401,-2.7185,-2.6951,-2.6846,-2.6846,-2.6832,-2.6806,-2.6645,-2.6645,-2.6779,-2.6553,-2.6213,-2.5821,-2.5044,-2.436,-2.375,-2.293,-2.2417,-2.2278,-2.2301,-2.2278,-2.2254,-2.2114,-2.2044,-3.4221,-3.3876,-3.345,-3.2982,-3.2502,0.0,0.0,-3.1928,-3.2401,-3.1312,-3.156,-3.176,-3.1159,-3.049,-3.0159,-3.0489,-3.1089,-3.1857,-3.2893,-3.2919,-3.2641,-3.2064,-3.1944,-3.1631,-3.0955,-3.1132,-3.1216,-3.1016,-3.1316,-3.1511,-3.1511,-3.1438,-3.1322,-3.1205,-3.1087,-3.1087,-3.122,-3.1394,-3.164,-3.1898,-3.1968,-3.2053,-3.2094,-3.184,-3.1855,-3.1996,-3.1927,-3.1324,-3.0383,-3.0118,-2.9509,-2.8752,-2.9136,-2.9298,-2.9298,-2.9298,-2.9176,-2.8956,-2.8687,-2.8476,-2.8299,-2.8299,-2.8348,-2.8387,-2.8323,-2.8201,-2.8103,-2.8103,-2.7915,-2.7715,-2.779,-2.7765,-2.7675,-2.7625,-2.76,-2.76,-2.76,-2.765,-2.7675,-2.7625,-2.765,-2.7675,-2.7625,-2.765,-2.769,-2.7615,-2.7503,-2.7376,-2.731,-2.7119,-2.6977,-2.6925,-2.6899,-2.6873,-2.6806,-2.6712,-2.6645,-2.6645,-2.6486,-2.6328,-2.6168,-2.5153,-2.4168,-2.327,-2.2749,-2.2417,-2.2301,-2.2231,-2.2184,-2.2114,-2.2044,-2.1996,-3.4233,-3.3615,-3.2941,-3.2722,-3.2014,-3.1261,0.0,0.0,0.0,-3.1466,-3.1193,-3.1058,-3.0969,-2.9589,-2.8844,-2.9917,-3.0486,-3.1123,-3.2056,-3.2436,-3.2716,-3.3061,-3.3029,-3.2819,-3.2247,-3.1968,-3.1784,-3.1626,-3.1568,-3.1568,-3.1568,-3.1409,-3.1263,-3.1132,-3.0969,-3.0955,-3.1117,-3.1263,-3.1538,-3.1896,-3.1968,-3.2066,-3.2206,-3.2066,-3.2025,-3.2066,-3.2053,-3.1222,-2.9925,-3.0019,-2.9204,-2.7976,-2.8571,-2.8758,-2.8692,-2.8784,-2.8784,-2.8667,-2.832,-2.821,-2.8235,-2.8235,-2.8323,-2.8372,-2.8235,-2.8103,-2.8005,-2.8088,-2.7875,-2.7625,-2.774,-2.7675,-2.76,-2.76,-2.76,-2.76,-2.76,-2.7675,-2.774,-2.7625,-2.7575,-2.7575,-2.76,-2.7665,-2.7665,-2.7478,-2.7386,-2.731,-2.7207,-2.7041,-2.691,-2.691,-2.691,-2.6858,-2.6727,-2.67,-2.6633,-2.6457,-2.6404,-2.6404,-2.6457,-2.5239,-2.3976,-2.2787,-2.2592,-2.2463,-2.2324,-2.2254,-2.2137,-2.2044,-2.1996,-2.1973,-3.4209,-3.3615,-3.2811,-3.2029,-3.1175,-3.0334,-2.958,0.0,-2.9483,-2.942,0.0,-2.9223,-2.8974,0.0,0.0,-2.8294,-2.8706,-2.9223,-2.9868,-3.0885,-3.2203,-3.3925,-3.3908,-3.3533,-3.2949,-3.2342,-3.1968,-3.194,-3.1826,-3.1756,-3.1756,-3.1568,-3.1409,-3.1292,-3.1263,-3.1205,-3.1117,-3.1365,-3.1508,-3.1552,-3.1868,-3.2066,-3.2206,-3.2066,-3.2122,-3.2342,-3.2219,-3.1469,-3.0334,-3.035,-2.9551,-2.8314,-2.817,-2.8185,-2.8259,-2.8136,-2.825,-2.8431,-2.8266,-2.8275,-2.8372,-2.8372,-2.8387,-2.8372,-2.8235,-2.8103,-2.798,-2.7865,-2.774,-2.76,-2.7625,-2.7625,-2.76,-2.76,-2.76,-2.76,-2.76,-2.7625,-2.7625,-2.76,-2.7499,-2.7463,-2.7575,-2.7514,-2.7478,-2.7549,-2.7372,-2.7233,-2.7207,-2.6814,-2.6563,-2.6563,-2.6563,-2.6498,-2.6367,-2.6367,-2.634,-2.6326,-2.6111,-2.6084,-2.6299,-2.5023,-2.3796,-2.2644,-2.237,-2.2184,-2.2067,-2.2161,-2.2184,-2.2184,-2.1926,-2.1817,-3.4305,-3.3662,-3.2816,-3.2009,-3.1125,-3.0261,-2.9436,-2.9544,-2.969,-2.9256,0.0,0.0,0.0,0.0,0.0,0.0,-2.871,-2.9208,-2.9857,-3.1029,-3.2027,-3.2673,-3.298,-3.2821,-3.1988,-3.1977,-3.1921,-3.1558,-3.1825,-3.1996,-3.1912,-3.1668,-3.1466,-3.1408,-3.1263,-3.1176,-3.122,-3.1336,-3.1481,-3.1668,-3.1912,-3.2066,-3.2191,-3.2219,-3.2287,-3.2398,-3.2274,-3.1469,-3.0282,-3.0282,-2.9485,-2.8259,-2.8177,-2.8103,-2.8079,-2.8103,-2.8128,-2.8177,-2.8186,-2.8299,-2.8411,-2.8411,-2.8348,-2.8299,-2.8323,-2.8177,-2.798,-2.793,-2.7765,-2.76,-2.76,-2.76,-2.76,-2.76,-2.76,-2.76,-2.76,-2.76,-2.76,-2.76,-2.7437,-2.7335,-2.7463,-2.7361,-2.7299,-2.7273,-2.717,-2.7067,-2.6989,-2.6791,-2.6645,-2.651,-2.651,-2.6445,-2.6299,-2.6313,-2.6286,-2.6206,-2.6084,-2.5901,-2.568,-2.4864,-2.3967,-2.3018,-2.2555,-2.2254,-2.2114,-2.2091,-2.2091,-2.2091,-2.1902,-2.1746,-3.4328,-3.3704,-3.2827,-3.2054,-3.1199,-3.0316,-2.9511,-2.9735,-2.9921,-2.9343,-2.968,0.0,0.0,0.0,-2.8887,-2.8773,0.0,-2.9267,-2.9751,-3.0667,-3.1444,-3.1931,-3.239,-3.2308,-3.1462,-3.1693,-3.1757,-3.1455,-3.1793,-3.2063,-3.2107,-3.1824,-3.1638,-3.1638,-3.1351,-3.1278,-3.1365,-3.1336,-3.1467,-3.167,-3.1855,-3.1996,-3.2094,-3.2219,-3.2287,-3.2287,-3.2191,-3.1372,-3.0151,-3.0151,-2.9383,-2.8186,-2.8162,-2.8079,-2.8005,-2.8103,-2.8079,-2.8005,-2.8113,-2.821,-2.8348,-2.8387,-2.8323,-2.821,-2.8323,-2.8152,-2.7955,-2.7955,-2.774,-2.7549,-2.7549,-2.7524,-2.7499,-2.7499,-2.7499,-2.7499,-2.7499,-2.7499,-2.7499,-2.7499,-2.731,-2.7196,-2.7273,-2.7222,-2.7119,-2.7003,-2.7003,-2.6951,-2.6806,-2.6738,-2.6645,-2.651,-2.6457,-2.6392,-2.626,-2.626,-2.6206,-2.6056,-2.6056,-2.5788,-2.5218,-2.4841,-2.4216,-2.3305,-2.2828,-2.247,-2.2208,-2.2114,-2.1996,-2.1902,-2.1793,-2.1688,-3.4209,-3.3615,-3.2816,-3.1998,-3.1199,-3.0392,-2.9578,-2.9357,-2.9331,-2.9301,-2.9265,-2.9237,-2.9189,-2.9189,-2.9178,-2.9178,-2.8975,0.0,0.0,-2.9053,-3.0129,-3.2656,-3.2861,-3.2596,-3.2118,-3.163,-3.1507,-3.192,-3.1747,-3.1828,-3.2351,-3.215,-3.1996,-3.1996,-3.1655,-3.1496,-3.148,-3.1481,-3.1438,-3.1322,-3.167,-3.1828,-3.1813,-3.194,-3.2025,-3.2025,-3.2025,-3.1238,-3.0008,-3.0008,-2.9281,-2.8186,-2.8054,-2.8005,-2.7995,-2.8005,-2.8005,-2.7995,-2.8005,-2.8103,-2.8235,-2.8348,-2.8323,-2.821,-2.821,-2.8014,-2.7815,-2.7815,-2.7615,-2.7401,-2.7401,-2.731,-2.7192,-2.7192,-2.7192,-2.7192,-2.7192,-2.7192,-2.7192,-2.7192,-2.7093,-2.7003,-2.7003,-2.7003,-2.7003,-2.7003,-2.7003,-2.6951,-2.6806,-2.6645,-2.651,-2.651,-2.6365,-2.626,-2.6111,-2.6111,-2.6056,-2.5921,-2.5921,-2.5693,-2.5218,-2.5071,-2.4439,-2.332,-2.3156,-2.2798,-2.2208,-2.2208,-2.1996,-2.1616,-2.1616,-2.1616,-3.4305,-3.4064,-3.3626,-3.2918,-3.2076,-3.1254,-3.0441,-2.9824,-2.958,-3.0118,-2.9741,-2.9477,-2.9976,-2.9632,-2.9251,-2.9218,-2.9089,-2.8998,0.0,-2.9246,-2.9828,-3.0884,-3.1081,-3.1204,-3.1362,-3.1363,-3.1255,-3.1038,-3.1212,-3.1472,-3.184,-3.1712,-3.1775,-3.2135,-3.1855,-3.1698,-3.1712,-3.1568,-3.1467,-3.1438,-3.167,-3.1799,-3.1784,-3.194,-3.1996,-3.1996,-3.1927,-3.117,-3.0008,-2.9902,-2.9156,-2.8054,-2.793,-2.788,-2.788,-2.788,-2.788,-2.788,-2.7955,-2.8029,-2.8079,-2.821,-2.8177,-2.8079,-2.8162,-2.8014,-2.779,-2.779,-2.7615,-2.7401,-2.7401,-2.7284,-2.7207,-2.7207,-2.7207,-2.7207,-2.7207,-2.7207,-2.7207,-2.7207,-2.7155,-2.7093,-2.7003,-2.7003,-2.6977,-2.6873,-2.6873,-2.6846,-2.6806,-2.6738,-2.6618,-2.6406,-2.634,-2.6206,-2.5975,-2.5975,-2.5948,-2.5893,-2.5893,-2.5836,-2.5679,-2.5258,-2.4638,-2.3844,-2.3347,-2.2788,-2.2208,-2.202,-2.1817,-2.1616,-2.1423,-2.135,-3.4293,-3.4269,-3.4017,-3.3275,-3.2687,-3.208,-3.1275,-3.069,-3.0466,-3.0982,-3.0424,-2.9965,-3.0417,-2.986,-2.9323,-2.9283,-2.9189,-2.91,0.0,-2.913,-2.9376,-2.971,-3.0178,-3.0528,-3.0625,-3.0983,-3.1041,-3.0672,-3.0887,-3.1128,-3.1353,-3.1449,-3.1613,-3.1989,-3.1875,-3.1813,-3.187,-3.1626,-3.1511,-3.1511,-3.1626,-3.1698,-3.1698,-3.1769,-3.1811,-3.1826,-3.1712,-3.1003,-2.9848,-2.9756,-2.9026,-2.793,-2.779,-2.7765,-2.779,-2.7765,-2.774,-2.7765,-2.788,-2.793,-2.7955,-2.8103,-2.8054,-2.7955,-2.8039,-2.7865,-2.7725,-2.8001,-2.7682,-2.7332,-2.7606,-2.7358,-2.7052,-2.7052,-2.7052,-2.7052,-2.7052,-2.7052,-2.7052,-2.7052,-2.7052,-2.7041,-2.6951,-2.6925,-2.6899,-2.6806,-2.6806,-2.6806,-2.6806,-2.6806,-2.67,-2.6406,-2.634,-2.6206,-2.5921,-2.5893,-2.5893,-2.5893,-2.5893,-2.5893,-2.5893,-2.5514,-2.5049,-2.443,-2.3797,-2.3126,-2.246,-2.2047,-2.1722,-2.1447,-2.1326,-2.1218]},{"header":{"parameterUnit":"m.s-1","parameterCategory":1,"la1":30.6,"la2":29.2853,"lo1":-89.7004,"lo2":-87.6739,"dy":0.0162,"dx":0.0183,"nx":112,"ny":82,"refTime":"2023-05-03T18:00:00:Z","depth":0,"parameterNumber":3,"parameterNumberName":"V-component_of_WINDS"},"data":[0.0,0.0,0.0,0.0,0.0,0.0,0.0,0.0,0.0,0.0,0.0,0.0,0.0,0.0,0.0,0.0,0.0,0.0,0.0,0.0,0.0,0.0,0.0,0.0,0.0,0.0,0.0,0.0,0.0,0.0,0.0,0.0,0.0,0.0,0.0,0.0,0.0,0.0,0.0,0.0,0.0,0.0,0.0,0.0,0.0,0.0,0.0,0.0,0.0,0.0,0.0,0.0,0.0,0.0,0.0,0.0,0.0,0.0,0.0,0.0,0.0,0.0,0.0,0.0,0.0,0.0,0.0,0.0,0.0,0.0,0.0,0.0,0.0,0.0,0.0,0.0,0.0,0.0,0.0,0.0,0.0,0.0,0.0,0.0,0.0,0.0,0.0,0.0,0.0,0.0,0.1141,0.1136,0.0907,0.0202,-0.1136,-0.1473,-0.2323,-0.3919,0.0,0.0,0.0,0.0,0.0,0.0,0.0,0.0,0.0,0.0,0.0,0.0,0.0,0.0,0.0,0.0,0.0,0.0,0.0,0.0,0.0,0.0,0.0,0.0,0.0,0.0,0.0,0.0,0.0,0.0,0.0,0.0,0.0,0.0,0.0,0.0,0.0,0.0,0.0,0.0,0.0,0.0,0.0,0.0,0.0,0.0,0.0,0.0,0.0,0.0,0.0,0.0,0.0,0.0,0.0,0.0,0.0,0.0,0.0,0.0,0.0,0.0,0.0,0.0,0.0,0.0,0.0,0.0,0.0,0.0,0.0,0.0,0.0,0.0,0.0,0.0,0.0,0.0,0.0,0.0,0.0,0.0,0.0,0.0,0.0,0.0,0.0,0.0,0.0,0.0,0.0,0.0,0.0,0.0,0.0,0.0,0.0,0.0,0.0,0.0,0.0,0.0,0.0,0.0,0.1266,0.1268,0.083,0.0133,-0.0877,-0.1522,-0.2388,-0.3607,0.0,0.0,0.0,0.0,0.0,0.0,0.0,0.0,0.0,0.0,0.0,0.0,0.0,0.0,0.0,0.0,0.0,0.0,0.0,0.0,0.0,0.0,0.0,0.0,0.0,0.0,0.0,0.0,0.0,0.0,0.0,0.0,0.0,0.0,0.0,0.0,0.0,0.0,0.0,0.0,0.0,0.0,0.0,0.0,0.0,0.0,0.0,0.0,0.0,0.0,0.0,0.0,0.0,0.0,0.0,0.0,0.0,0.0,0.0,0.0,0.0,0.0,0.0,0.0,0.0,0.0,0.0,0.0,0.0,0.0,0.0,0.0,0.0,0.0,0.0,0.0,0.0,0.0,0.0,0.0,0.0,0.0,0.0,0.0,0.0,0.0,0.0,0.0,0.0,0.0,0.0,0.0,0.0,0.0,0.0,0.0,0.0,0.0,0.0,0.0,0.0,0.0,0.0,0.1312,0.1405,0.1321,0.1022,0.036,-0.0806,-0.1303,-0.2144,-0.3463,-0.4402,0.0,0.0,0.0,0.0,0.0,0.0,0.0,0.0,0.0,0.0,0.0,0.0,0.0,0.0,0.0,0.0,0.0,0.0,0.0,0.0,0.0,0.0,0.0,0.0,0.0,0.0,0.0,0.0,0.0,0.0,0.0,0.0,0.0,0.0,0.0,0.0,0.0,0.0,0.0,0.0,0.0,0.0,0.0,0.0,0.0,0.0,0.0,0.0,0.0,0.0,0.0,0.0,0.0,0.0,0.0,0.0,0.0,0.0,0.0,0.0,0.0,0.0,0.0,0.0,0.0,0.0,0.0,0.0,0.0,0.0,0.0,0.0,0.0,0.0,0.0,0.0,0.0,0.0,0.0,0.0,0.0,0.0,0.0,0.0,0.0,0.0,0.0,0.0,0.0,0.0,0.0,0.0,0.0,0.0,0.0,0.0,0.0,0.0,0.0,0.0,0.0,0.0,0.1513,0.1543,0.1399,0.121,0.0579,-0.0702,-0.1115,-0.19,-0.3304,-0.4133,0.0,0.0,0.0,0.0,0.0,0.0,0.0,0.0,0.0,0.0,0.0,0.0,0.0,0.0,0.0,0.0,0.0,0.0,0.0,0.0,0.0,0.0,0.0,0.0,0.0,0.0,0.0,0.0,0.0,0.0,0.0,0.0,0.0,0.0,0.0,0.0,0.0,0.0,0.0,0.0,0.0,0.0,0.0,0.0,0.0,0.0,0.0,0.0,0.0,0.0,0.0,0.0,0.0,0.0,0.0,0.0,0.0,0.0,0.0,0.0,0.0,0.0,0.0,0.0,0.0,0.0,0.0,0.0,0.0,0.0,0.0,0.0,0.0,0.0,0.0,0.0,0.0,0.0,0.0,0.0,0.0,0.0,0.0,0.0,0.0,0.0,0.0,0.0,0.0,0.0,0.0,0.0,0.0,0.0,0.0,0.0,0.0,0.0,0.0,0.0,0.0,0.0,0.158,0.1598,0.1588,0.1228,0.0575,-0.0435,-0.0989,-0.1795,-0.2972,-0.3786,0.0,0.0,0.0,0.0,0.0,0.0,0.0,0.0,0.0,0.0,0.0,0.0,0.0,0.0,0.0,0.0,0.0,0.0,0.0,0.0,0.0,0.0,0.0,0.0,0.0,0.0,0.0,0.0,0.0,0.0,0.0,0.0,0.0,0.0,0.0,0.0,0.0,0.0,0.0,0.0,0.0,0.0,0.0,0.0,0.0,0.0,0.0,0.0,0.0,0.0,0.0,0.0,0.0,0.0,0.0,0.0,0.0,0.0,0.0,0.0,0.0,0.0,0.0,0.0,0.0,0.0,0.0,0.0,0.0,0.0,0.0,0.0,0.0,0.0,0.0,0.0,0.0,0.0,0.0,0.0,0.0,0.0,0.0,0.0,0.0,0.0,0.0,0.0,0.0,0.0,0.0,0.0,0.0,0.0,0.0,0.0,0.0,0.0,0.0,0.0,0.0,0.0,0.1985,0.1997,0.1745,0.1522,0.0873,-0.0401,-0.0998,-0.1785,-0.2936,0.0,0.0,0.0,0.0,0.0,0.0,0.0,0.0,0.0,0.0,0.0,0.0,0.0,0.0,0.0,0.0,0.0,0.0,0.0,0.0,0.0,0.0,0.0,0.0,0.0,0.0,0.0,0.0,0.0,0.0,0.0,0.0,0.0,0.0,0.0,0.0,0.0,0.0,0.0,0.0,0.0,0.0,0.0,0.0,0.0,0.0,0.0,0.0,0.0,0.0,0.0,0.0,0.0,0.0,0.0,0.0,0.0,0.0,0.0,0.0,0.0,0.0,0.0,0.0,0.0,0.0,0.0,0.0,0.0,0.0,0.0,0.0,0.0,0.0,0.0,0.0,0.0,0.0,0.0,0.0,0.0,0.0,0.0,0.0,0.0,0.0,0.0,0.0,0.0,0.0,0.0,0.0,0.0,0.0,0.0,0.0,0.0,0.0,0.0,0.0,0.0,0.0,0.1884,0.2188,0.2238,0.1867,0.1781,0.1249,-0.0031,-0.0728,-0.155,-0.2593,0.0,0.0,0.0,0.0,0.0,0.0,0.0,0.0,0.0,0.0,0.0,0.0,0.0,0.0,0.0,0.0,0.0,0.0,0.0,0.0,0.0,0.0,0.0,0.0,0.0,0.0,0.0,0.0,0.0,0.0,0.0,0.0,0.0,0.0,0.0,0.0,0.0,0.0,0.0,0.0,0.0,0.0,0.0,0.0,0.0,0.0,0.0,0.0,0.0,0.0,0.0,0.0,0.0,0.0,0.0,0.0,0.0,0.0,0.0,0.0,0.0,0.0,0.0,0.0,0.0,0.0,0.0,0.0,0.0,0.0,0.0,0.0,0.0,0.0,0.0,0.0,0.0,0.0,0.0,0.0,0.0,0.0,0.0,0.0,0.0,0.0,0.0,0.0,0.0,0.0,0.0,0.0,0.0,0.0,0.0,0.0,0.0,0.0,0.0,0.0,0.0,0.0,0.1918,0.2188,0.2288,0.1951,0.2033,0.1707,0.0676,-0.0188,-0.1046,0.0,0.0,0.0,0.0,0.0,0.0,0.0,0.0,0.0,0.0,0.0,0.0,0.0,0.0,0.0,0.0,0.0,0.0,0.0,0.0,0.0,0.0,0.0,0.0,0.0,0.0,0.0,0.0,0.0,0.0,0.0,0.0,0.0,0.0,0.0,0.0,0.0,0.0,0.0,0.0,0.0,0.0,0.0,0.0,0.0,0.0,0.0,0.0,0.0,0.0,0.0,0.0,0.0,0.0,0.0,0.0,0.0,0.0,0.0,0.0,0.0,0.0,0.0,0.0,0.0,0.0,0.0,0.0,0.0,0.0,0.0,0.0,0.0,0.0,0.0,0.0,0.0,0.0,0.0,0.0,0.0,0.0,0.0,0.0,0.0,0.0,0.0,0.0,0.0,0.0,0.0,0.0,0.0,0.0,0.0,0.0,0.0,0.0,0.0,0.0,0.0,0.0,0.0,0.2255,0.2589,0.2702,0.2422,0.2334,0.1934,0.0966,0.0031,-0.0831,-0.1632,0.0,0.0,0.0,0.0,0.0,0.0,0.0,0.0,0.0,0.0,0.0,0.0,0.0,0.0,0.0,0.0,0.0,0.0,0.0,0.0,0.0,0.0,0.0,0.0,0.0,0.0,0.0,0.0,0.0,0.0,0.0,0.0,0.0,0.0,0.0,0.0,0.0,0.0,0.0,0.0,0.0,0.0,0.0,0.0,0.0,0.0,0.0,0.0,0.0,0.0,0.0,0.0,0.0,0.0,0.0,0.0,0.0,0.0,0.0,0.0,0.0,0.0,0.0,0.0,0.0,0.0,0.0,0.0,0.0,0.0,0.0,0.0,0.0,0.0,0.0,0.0,0.0,0.0,0.0,0.0,0.0,0.0,0.0,0.0,0.0,0.0,0.0,0.0,0.0,0.0,0.0,0.0,0.0,0.0,0.0,0.0,0.0,0.0,0.0,0.0,0.0,0.0,0.2522,0.2857,0.297,0.2661,0.2558,0.2229,0.154,0.0548,-0.0351,-0.1117,0.0,0.0,0.0,0.0,0.0,0.0,0.0,0.0,0.0,0.0,0.0,0.0,0.0,0.0,0.0,0.0,0.0,0.0,0.0,0.0,0.0,0.0,0.0,0.0,0.0,0.0,0.0,0.0,0.0,0.0,0.0,0.0,0.0,0.0,0.0,0.0,0.0,0.0,0.0,0.0,0.0,0.0,0.0,0.0,0.0,0.0,0.0,0.0,0.0,0.0,0.0,0.0,0.0,0.0,0.0,0.0,0.0,0.0,0.0,0.0,0.0,0.0,0.0,0.0,0.0,0.0,0.0,0.0,0.0,0.0,0.0,0.0,0.0,0.0,0.0,0.0,0.0,0.0,0.0,0.0,0.0,0.0,0.0,0.0,0.0,0.0,0.0,0.0,0.0,0.0,0.0,0.0,0.0,0.0,0.0,0.0,0.0,0.0,0.0,0.0,0.0,0.0,0.2787,0.3056,0.3159,0.282,0.2753,0.2587,0.2255,0.121,0.0268,-0.0435,0.0,0.0,0.0,0.0,0.0,0.0,0.0,0.0,0.0,0.0,0.0,0.0,0.0,0.0,0.0,0.0,0.0,0.0,0.0,0.0,0.0,0.0,0.0,0.0,0.0,0.0,0.0,0.0,0.0,0.0,0.0,0.0,0.0,0.0,0.0,0.0,0.0,0.0,0.0,0.0,0.0,0.0,0.0,0.0,0.0,0.0,0.0,0.0,0.0,0.0,0.0,0.0,0.0,0.0,0.0,0.0,0.0,0.0,0.0,0.0,0.4572,0.3772,0.0,0.0,0.0,0.0,0.0,0.0,0.0,0.0,0.0,0.0,0.0,0.0,0.0,0.0,0.0,0.0,0.0,0.0,0.0,0.0,0.0,0.0,0.0,0.0,0.0,0.0,0.0,0.0,0.0,0.0,0.0,0.0,0.0,0.0,0.0,0.0,0.0,0.0,0.0,0.0,0.3362,0.3627,0.3694,0.3362,0.3092,0.279,0.2389,0.1614,0.0733,-0.0195,-0.0932,0.0,0.0,0.0,0.0,0.0,0.0,0.0,0.0,0.0,0.0,0.0,0.0,0.0,0.0,0.0,0.0,0.0,0.0,0.0,0.0,0.0,0.0,0.0,0.0,0.0,0.0,0.0,0.0,0.0,0.0,0.0,0.0,0.0,0.0,0.0,0.0,0.0,0.0,0.0,0.0,0.0,0.0,0.0,0.0,0.0,0.0,0.0,0.0,0.0,0.0,0.0,0.0,0.0,0.0,0.0,0.0,0.0,0.0,0.0,0.5444,0.4689,0.0,0.0,0.0,0.0,0.0,0.0,0.0,0.0,0.0,0.0,0.0,0.0,0.0,0.0,0.0,0.0,0.0,0.0,0.0,0.0,0.0,0.0,0.0,0.0,0.0,0.0,0.0,0.0,0.0,0.0,0.0,0.0,0.0,0.0,0.0,0.0,0.0,0.0,0.0,0.0,0.3892,0.4125,0.4161,0.3797,0.336,0.2958,0.2589,0.2051,0.137,0.0493,-0.0195,0.0,0.0,0.0,0.0,0.0,0.0,0.0,0.0,0.0,0.0,0.0,0.0,0.0,0.0,0.0,0.0,0.0,0.0,0.0,0.0,0.0,0.0,0.0,0.0,0.0,0.0,0.0,0.0,0.0,0.0,0.0,0.0,0.0,0.0,0.0,0.0,0.0,0.0,0.0,0.0,0.0,0.0,0.0,0.0,0.0,0.0,0.0,0.0,0.0,0.0,0.0,0.0,0.0,0.8186,0.8201,0.8139,0.8203,0.7974,0.7425,0.6491,0.5779,0.5199,0.4658,0.0,0.0,0.0,0.0,0.0,0.0,0.0,0.0,0.0,0.0,0.0,0.0,0.0,0.0,0.0,0.0,0.0,0.0,0.0,0.0,0.0,0.0,0.5152,0.4658,0.4888,0.5054,0.4425,0.0,0.0,0.0,0.0,0.0,0.0,0.0,0.0,0.0,0.0,0.0,0.4524,0.4656,0.4551,0.4101,0.3607,0.3144,0.2812,0.2485,0.1988,0.1225,0.0647,0.0032,0.0,0.0,0.0,0.0,0.0,0.0,0.0,0.0,0.0,0.0,0.0,0.0,0.0,0.0,0.0,0.0,0.0,0.0,0.0,0.0,0.0,0.0,0.0,0.0,0.0,0.0,0.0,0.0,0.0,0.0,0.0,0.0,0.8543,0.8663,0.0,0.0,0.0,0.0,0.0,0.0,0.0,0.0,0.0,0.0,0.0,0.0,0.0,0.8103,0.8131,0.9006,0.9435,0.944,1.0086,1.0224,0.9857,0.9702,0.9396,0.8985,0.8835,0.0,0.5822,0.6021,0.0,0.0,0.0,0.0,0.0,0.0,0.0,0.0,0.0,0.0,0.0,0.0,0.0,0.0,0.0,0.0,0.0,0.0,0.0,0.0,0.0,0.0,0.5935,0.5516,0.562,0.5723,0.5451,0.5186,0.4951,0.4782,0.4945,0.508,0.0,0.0,0.0,0.0,0.0,0.0,0.5463,0.5353,0.502,0.4328,0.3949,0.3547,0.3084,0.2896,0.243,0.159,0.1272,0.0783,0.0032,-0.0224,0.0,0.0,0.0,0.0,0.0,0.0,0.0,0.0,0.0,0.0,0.0,0.0,0.0,0.0,0.0,0.0,0.0,0.0,0.0,0.0,0.0,0.0,0.0,0.0,0.0,0.0,0.0,0.0,0.0,0.9003,0.9396,0.8954,0.9305,0.9357,0.0,0.0,0.0,0.0,0.0,0.0,0.0,0.0,0.0,0.9603,0.9603,0.9669,0.9843,1.0253,1.0495,1.0495,1.0797,1.0887,1.07,1.0625,1.0288,0.9798,0.9798,0.904,0.7788,0.729,0.6558,0.5774,0.0,0.0,0.0,0.0,0.4856,0.4832,0.5294,0.5249,0.5008,0.4947,0.0,0.0,0.0,0.0,0.0,0.0,0.0,0.5562,0.577,0.6078,0.6264,0.5988,0.605,0.6152,0.6083,0.6181,0.6145,0.5679,0.5609,0.5642,0.5646,0.5547,0.0,0.0,0.0,0.6085,0.6047,0.6007,0.5689,0.5005,0.4517,0.3971,0.3283,0.3078,0.277,0.2188,0.1787,0.1393,0.0973,0.0502,0.0095,0.0,0.0,0.0,0.0,0.0,0.0,0.0,0.0,0.0,0.0,0.0,0.0,0.0,0.0,0.0,0.0,0.0,0.0,0.0,0.0,0.0,0.0,0.0,0.0,0.0,0.0,0.0,0.0,0.9945,1.0354,0.9598,1.0192,1.0346,0.0,0.0,0.0,0.0,0.0,0.0,1.04,1.0466,1.0659,1.0955,1.0961,1.1094,1.1317,1.1317,1.1317,1.1317,1.1317,1.1317,1.1317,1.1212,1.0956,1.054,1.0472,1.0099,0.9437,0.8375,0.7458,0.6653,0.6394,0.6247,0.6131,0.6092,0.5937,0.5772,0.6319,0.6284,0.5993,0.5873,0.5897,0.5811,0.5228,0.0,0.0,0.0,0.0,0.6172,0.6553,0.661,0.6567,0.6425,0.6482,0.6515,0.6482,0.6843,0.7036,0.6478,0.6338,0.6334,0.6375,0.6104,0.0,0.6181,0.6313,0.6457,0.6644,0.6542,0.6266,0.5701,0.5202,0.4553,0.3742,0.3486,0.3246,0.2891,0.2407,0.2052,0.1918,0.1308,0.0916,0.0769,0.0,0.0,0.0,0.0,0.0,0.0,0.0,0.0,0.0,0.0,0.0,0.0,0.0,0.0,0.0,0.0,0.0,0.0,0.0,0.0,0.0,0.0,0.0,0.0,0.0,0.0,0.0,0.0,0.0,1.0969,1.133,0.0,0.0,0.0,0.0,1.0642,1.0881,1.1102,1.1238,1.1486,1.1652,1.1749,1.1723,1.1774,1.1838,1.1838,1.1838,1.1838,1.1838,1.1838,1.1832,1.1585,1.1471,1.1414,1.1188,1.07,1.0099,0.9253,0.8557,0.7977,0.7566,0.7184,0.682,0.6633,0.6541,0.6578,0.6804,0.6734,0.6578,0.6763,0.6976,0.7146,0.7282,0.7372,0.0,0.0,0.7311,0.7371,0.7263,0.7212,0.7134,0.6992,0.6915,0.6848,0.6708,0.697,0.7138,0.6913,0.7167,0.7363,0.7167,0.0,0.7326,0.7171,0.7134,0.7196,0.7349,0.6948,0.6595,0.6371,0.5919,0.5383,0.4773,0.437,0.3981,0.3574,0.3233,0.2939,0.2741,0.2389,0.2002,0.1539,0.1357,0.0,0.0,0.0,0.0,0.0,0.0,0.0,0.0,0.0,0.0,0.0,0.0,0.0,0.0,0.0,0.0,0.0,0.0,0.0,0.0,0.0,0.0,0.0,0.0,0.0,0.0,0.0,0.0,1.164,1.2395,0.0,1.2058,1.2114,1.2206,1.2256,1.2696,1.2871,1.2655,1.2813,1.279,1.2517,1.2785,1.2949,1.2975,1.3403,1.3482,1.3173,1.2863,1.2512,1.2078,1.165,1.1376,1.1256,1.1154,1.0962,1.0738,1.0319,0.9642,0.8841,0.8732,0.8575,0.8414,0.809,0.795,0.7912,0.7732,0.7618,0.7555,0.7498,0.7439,0.7408,0.7476,0.7543,0.7638,0.777,0.7897,0.7974,0.8016,0.7897,0.7814,0.788,0.7644,0.7471,0.7693,0.7716,0.7694,0.7629,0.7559,0.7493,0.7396,0.7461,0.7493,0.7531,0.7536,0.76,0.778,0.7641,0.7272,0.6595,0.6306,0.5822,0.5046,0.4517,0.4153,0.399,0.3633,0.3347,0.3192,0.2934,0.2693,0.2438,0.231,0.2165,0.0,0.0,0.0,0.0,0.0,0.0,0.0,0.0,0.0,0.0,0.0,0.0,0.0,0.0,0.0,0.0,0.0,0.0,0.0,0.0,0.0,0.0,0.0,0.0,0.0,1.2758,1.3328,1.2811,1.3727,1.4179,1.3603,1.3714,1.382,1.3796,1.4171,1.4304,1.4006,1.4079,1.3995,1.3712,1.4029,1.4197,1.4224,1.4663,1.4703,1.4391,1.4105,1.3613,1.3015,1.2434,1.1986,1.167,1.1415,1.1298,1.1298,1.1149,1.0694,1.0051,0.9679,0.9415,0.9258,0.8998,0.8889,0.8851,0.8589,0.8403,0.8289,0.8322,0.8131,0.7918,0.8061,0.8132,0.8207,0.8426,0.8496,0.8496,0.8654,0.8442,0.8221,0.8433,0.8141,0.7864,0.8136,0.8088,0.7987,0.7987,0.7819,0.7657,0.7657,0.7657,0.7689,0.7792,0.7733,0.7747,0.7999,0.7869,0.7578,0.7059,0.6766,0.6325,0.562,0.5022,0.4594,0.4453,0.4036,0.3708,0.3552,0.3419,0.3283,0.314,0.3124,0.3058,0.297,0.0,0.0,0.0,0.0,0.0,0.0,0.0,0.0,0.0,0.0,0.0,0.0,0.0,0.0,0.0,0.0,0.0,0.0,0.0,0.0,0.0,0.0,0.0,1.3457,1.4335,1.484,1.4461,1.5251,1.5682,1.5288,1.5288,1.5271,1.5258,1.5296,1.5304,1.5258,1.5273,1.5303,1.5345,1.5353,1.539,1.5436,1.5477,1.5477,1.5477,1.547,1.5171,1.4699,1.3976,1.3384,1.2903,1.2106,1.1756,1.1719,1.1713,1.1706,1.1595,1.0406,0.9722,0.9372,0.9334,0.9334,0.9339,0.9334,0.9074,0.8818,0.9203,0.9051,0.8818,0.9208,0.9322,0.9359,0.9359,0.9198,0.9117,0.9316,0.8846,0.8407,0.87,0.8388,0.8019,0.8025,0.8025,0.8019,0.8019,0.8019,0.8019,0.8019,0.7987,0.7987,0.8019,0.7768,0.0,0.8052,0.7633,0.7434,0.7771,0.7336,0.6887,0.6568,0.5965,0.5443,0.4994,0.4527,0.4142,0.3891,0.3863,0.3786,0.3613,0.3691,0.3778,0.3902,0.0,0.0,0.0,0.0,0.0,0.0,0.0,0.0,0.0,0.0,0.0,0.0,0.0,0.0,0.0,0.0,0.0,0.0,0.0,0.0,0.0,1.4087,1.431,1.384,1.4365,1.4889,1.5144,1.5797,1.6343,1.6632,1.6816,1.692,1.6948,1.7158,1.7187,1.6877,1.6969,1.679,1.6345,1.6636,1.6766,1.664,1.709,1.7131,1.6845,1.646,1.5972,1.54,1.4816,1.4194,1.3579,1.304,1.2574,1.2265,1.1864,1.1706,1.1632,1.1186,1.0925,1.0769,1.0319,0.9986,0.9765,0.9911,0.9798,0.9614,0.9879,0.9879,0.9841,1.0105,1.0255,1.0406,1.0406,1.0438,1.0545,1.0588,0.9997,0.953,1.0029,0.9417,0.8776,0.8981,0.8848,0.8662,0.8414,0.8479,0.8447,0.8084,0.7987,0.8047,0.8139,0.7953,0.7902,0.8145,0.7966,0.7766,0.7658,0.7599,0.7464,0.717,0.6695,0.64,0.6341,0.5948,0.5596,0.5336,0.5031,0.4581,0.3916,0.3999,0.4093,0.0,0.0,0.0,0.0,0.0,0.0,0.0,0.0,0.0,0.0,0.0,0.0,0.0,0.0,0.0,0.0,0.0,0.0,0.0,0.0,0.0,0.0,1.4938,1.5345,1.511,1.5404,1.5819,1.6263,1.6946,1.7494,1.7789,1.7893,1.7979,1.8065,1.8144,1.814,1.8031,1.808,1.7942,1.7529,1.7821,1.791,1.7757,1.8121,1.817,1.7919,1.7609,1.7189,1.6645,1.6126,1.5607,1.499,1.4181,1.3674,1.3351,1.2641,1.2342,1.2268,0.0,0.0,0.0,0.0,1.0663,1.0438,1.0625,1.0513,1.0331,1.07,1.07,1.0625,1.0812,1.1037,1.1149,1.1074,1.1186,1.1335,1.1335,1.0827,1.0357,1.0696,1.0092,0.9464,0.9619,0.953,0.9364,0.9172,0.921,0.0,0.9005,0.8721,0.8533,0.8528,0.8485,0.846,0.8491,0.8267,0.8086,0.7984,0.7949,0.7855,0.7706,0.725,0.0,0.0,0.0,0.6324,0.6129,0.5786,0.0,0.0,0.0,0.4727,0.4567,0.4794,0.0,0.0,0.4902,0.5061,0.0,0.0,0.0,0.0,0.0,0.0,0.0,0.0,0.0,0.0,0.0,0.0,0.0,0.0,0.0,0.0,1.5847,1.6525,1.6814,1.6963,1.7187,1.754,1.8211,1.8687,1.8732,1.8603,1.8563,1.8732,1.8603,1.8563,1.8772,1.8772,0.0,0.0,0.0,1.8732,1.87,1.87,1.87,1.87,1.87,1.8491,1.8063,1.7649,1.7212,1.6697,1.5508,1.49,1.4688,1.3778,1.3338,1.3119,1.2187,1.1781,1.1744,1.1595,1.1409,1.1223,1.1446,0.0,0.0,1.1558,1.1484,1.1223,1.1484,1.1669,1.1781,1.1595,1.1706,1.1855,1.1855,1.1426,1.1034,1.1069,1.0585,1.0098,1.0098,1.0072,1.0053,1.0021,1.0021,1.0085,1.0275,0.9805,0.9338,0.9139,0.9213,0.9168,0.8953,0.8603,0.8392,0.8522,0.8344,0.0,0.82,0.7816,0.7481,0.732,0.7011,0.6747,0.6563,0.6299,0.6077,0.5937,0.5805,0.5563,0.5207,0.5352,0.5529,0.574,0.5406,0.5431,0.0,0.0,0.0,0.0,0.0,0.0,0.0,0.0,0.0,0.0,0.0,0.0,0.0,0.0,0.0,1.58,1.6313,1.6909,1.7702,1.7997,1.8068,1.8002,1.8267,1.8602,1.8895,1.9033,1.9143,1.9192,1.9143,1.9143,1.9192,1.9192,1.9112,1.8962,1.8922,1.8851,1.87,1.87,1.87,1.87,1.87,0.0,1.8571,1.8452,1.8178,1.7702,1.705,1.6219,1.5233,1.4666,1.4044,1.3382,1.2673,1.2342,1.2187,1.2335,1.215,1.1855,1.2077,1.1855,1.1558,1.1855,1.1892,1.1892,1.2261,1.2415,0.0,1.2562,1.2636,1.2673,1.2673,1.2231,1.1868,1.2143,1.1472,1.0804,1.0804,1.0586,1.032,1.0053,1.0129,1.0295,1.0453,1.025,1.0053,0.9831,0.9699,0.9499,0.9199,0.8878,0.8735,0.8828,0.8785,0.8775,0.8825,0.8658,0.8562,0.8615,0.8309,0.7921,0.7485,0.7296,0.7052,0.6691,0.6664,0.6372,0.5837,0.6055,0.6133,0.6019,0.6105,0.6261,0.0,0.0,0.0,0.0,0.0,0.0,0.0,0.0,0.0,0.0,0.0,1.5974,1.5898,0.0,1.6982,1.7261,1.7568,1.789,1.8344,1.8638,1.8765,1.8578,1.8725,1.8925,1.9134,1.9152,1.9183,1.9301,1.9222,1.9183,1.9301,1.9301,1.9262,1.9152,1.9152,1.9112,1.9002,1.9002,1.9042,1.913,1.9042,1.9042,1.913,1.9042,1.8873,1.8607,1.7992,1.7252,1.638,1.5471,1.4792,1.431,1.3804,1.3258,1.2753,1.2856,1.2709,1.2452,1.2562,1.2489,1.2335,1.2415,1.2452,1.2489,1.2562,1.257,1.2595,1.2821,1.2868,1.2891,1.3157,1.2856,1.2551,1.2692,1.2105,1.1514,1.1514,1.1269,1.0989,1.0818,1.0895,1.0996,1.1115,1.117,1.1038,1.0566,1.0508,1.0389,1.0141,0.9986,0.9923,0.9936,0.9799,0.97,0.9741,0.937,0.9067,0.8873,0.8621,0.8363,0.805,0.7913,0.7676,0.7316,0.7356,0.7202,0.6759,0.6959,0.7068,0.7171,0.734,0.7363,0.0,0.0,0.0,0.0,0.0,0.0,0.0,1.5951,1.5936,1.6146,1.6936,1.7599,1.7738,1.829,1.8784,1.8889,1.9005,1.9087,1.9085,1.9334,1.946,1.9192,1.9271,1.9301,1.9301,1.9152,1.9112,1.9301,1.9152,1.9112,1.9301,1.9301,1.9301,1.9301,1.9301,1.9301,1.9301,1.9301,1.939,1.9606,1.939,1.9429,1.9597,1.939,1.9301,1.9234,1.8419,1.779,1.728,1.6125,1.5532,1.5275,1.5026,1.4418,1.3695,1.3448,1.3266,1.3083,1.3083,1.3046,1.301,1.301,1.301,1.2973,1.2863,1.2755,1.2707,1.2956,1.2992,1.3004,1.3403,1.3357,1.3188,1.3129,1.2623,1.2182,1.2108,1.1882,1.1685,1.1685,1.1685,1.1747,1.1864,1.2027,1.1934,1.124,1.1334,1.1365,1.1146,1.1076,1.1052,1.1052,1.0769,1.0579,1.0548,0.997,0.9413,0.8961,0.8788,0.8693,0.8613,0.854,0.835,0.8039,0.8171,0.8051,0.7717,0.786,0.8001,0.8193,0.8543,0.8407,1.6378,1.6224,1.6447,1.6897,1.6819,1.6748,0.0,1.7711,1.8094,1.8518,1.9133,1.9553,1.9435,1.9515,1.976,2.0269,2.0247,2.018,2.0362,2.0421,2.0294,1.9863,1.9499,1.9301,1.9301,1.9262,1.9262,1.9301,1.9262,1.9262,1.9301,1.9301,1.9301,1.9301,1.9301,1.9301,1.9301,1.9301,1.939,1.9606,1.939,1.9429,1.9597,1.939,1.9301,1.9256,1.8067,1.7335,1.6945,1.6413,1.6017,1.5762,1.6026,1.5877,1.5409,1.4374,1.3884,1.3717,1.3717,1.3572,1.3419,1.3419,1.3419,1.3455,1.3608,1.3451,1.3234,1.3404,1.3424,1.3437,1.3482,1.3742,1.3892,1.3532,1.3184,1.2869,1.2525,1.2231,1.2027,1.2027,1.2027,1.2089,1.2212,1.2274,1.2151,1.1771,1.1872,1.1903,1.156,1.1365,1.1272,1.1272,1.1083,1.0895,1.0776,1.0269,0.9907,0.9765,0.9583,0.9449,0.9375,0.9471,0.9471,0.9305,0.9308,0.9048,0.8481,0.8618,0.8508,0.8233,0.9009,0.912,1.7106,1.6999,1.7234,1.8289,1.8431,1.8529,1.9325,1.953,1.968,1.9959,2.0478,2.0834,2.085,2.0994,2.1131,2.1299,2.113,2.1002,2.0952,2.0944,2.0789,2.0372,2.0167,1.9932,1.9666,1.9666,1.9666,1.9666,1.9666,1.9587,1.9478,1.9469,1.9429,1.9301,1.9301,1.9301,1.9301,1.9301,1.939,1.9606,1.939,1.946,1.9754,1.9548,1.934,1.9071,1.8235,1.7614,1.7207,1.6819,1.6551,1.6447,1.6342,1.6202,1.5982,1.5054,1.4705,1.4569,1.4253,1.4109,1.4,1.3754,1.3681,1.3681,1.3645,1.3247,1.2942,1.3512,1.3374,1.3198,1.3717,1.3958,1.4009,1.3618,1.3283,1.2981,1.2598,1.2294,1.2096,1.2096,1.2096,1.212,1.2182,1.2243,1.2274,1.2274,1.2406,1.249,1.2428,1.2336,1.2236,1.2058,1.1864,1.1615,1.1279,1.1115,1.0919,1.0634,1.0446,1.0315,1.0185,1.0056,0.9918,0.9737,0.9824,0.9675,0.935,0.9485,0.9421,0.9144,0.9692,0.9873,1.7937,1.8081,1.8391,1.9476,1.9792,2.0054,2.0878,2.0951,2.0921,2.1263,2.1596,2.1866,2.2039,2.2206,2.2289,2.2138,2.1987,2.1835,2.1558,2.151,2.1367,2.0992,2.0838,2.0644,2.0294,2.0059,1.9902,1.9902,1.9902,1.9824,1.9676,1.9676,1.9636,1.946,1.942,1.9381,1.9381,1.9341,1.939,1.9606,1.939,1.946,1.9833,1.9597,1.9286,1.8869,1.833,1.788,1.7468,1.7064,1.6908,1.6874,1.6586,1.6491,1.6377,1.5736,1.5382,1.5133,1.474,1.4533,1.4397,1.4109,1.4008,1.4008,1.3855,1.3414,1.3062,1.3727,1.3549,1.3317,1.3939,1.4168,1.4129,1.3635,1.3377,1.3117,1.2644,1.2359,1.2251,1.2251,1.2282,1.2282,1.2282,1.2467,1.2621,1.2775,1.2928,1.2981,1.295,1.2928,1.2867,1.2683,1.2529,1.2274,1.191,1.184,1.1705,1.1466,1.1209,1.1076,1.1048,1.0748,1.0483,1.0305,1.0227,1.0093,0.9904,0.9953,0.9887,0.9714,1.007,1.0256,1.9077,1.9778,2.0336,2.0506,2.0754,2.1073,2.1562,2.1679,2.1843,2.2525,2.267,2.2718,2.2942,2.2953,2.2964,2.2964,2.2964,2.2815,2.244,2.2365,2.2214,2.1807,2.1436,2.1167,2.1167,2.042,1.9902,1.9902,1.9902,1.9902,1.9902,1.9902,1.9902,1.9863,1.9676,1.9597,1.9597,1.939,1.939,1.9606,1.939,1.9429,1.9606,1.939,1.9081,1.8687,1.8293,1.788,1.7468,1.7064,1.6908,1.6908,1.6874,1.6874,1.683,1.6412,1.5806,1.5204,1.5169,1.4919,1.4605,1.4569,1.4569,1.4569,1.4569,1.4316,1.4066,1.409,1.4074,1.4066,1.409,1.4344,1.4431,1.3767,1.3592,1.3394,1.2758,1.2598,1.259,1.259,1.2683,1.2775,1.2775,1.3058,1.3272,1.328,1.3376,1.3307,1.2858,1.2805,1.2805,1.2805,1.2805,1.2744,1.259,1.2089,1.1926,1.2228,1.1756,1.1624,1.1958,1.171,1.1469,1.1274,1.0683,1.0242,0.9904,0.9764,0.9594,0.943,0.9883,1.0171,2.0472,2.1019,2.1327,2.2104,2.2297,2.2292,2.2542,2.2566,2.262,2.2857,2.265,2.2506,2.2699,2.2626,2.259,2.2699,2.2878,2.2964,2.2815,2.2815,2.2665,2.2252,2.2187,2.1911,2.1244,2.0683,2.0372,2.0372,2.0372,2.0294,2.0186,2.0186,2.0069,1.9902,1.9824,1.9794,1.9794,1.9745,1.9745,1.9794,1.9745,1.9666,1.9606,1.9518,1.9286,1.8888,1.8606,1.8128,1.7486,1.7509,1.7261,1.6908,1.7038,1.7003,1.6874,1.6735,1.6377,1.5842,1.5382,1.5098,1.4955,1.4677,1.4605,1.4605,1.4605,1.4359,1.4191,1.4703,1.4466,1.4268,1.5027,1.4937,1.4557,1.438,1.4121,1.3761,1.3203,1.306,1.3033,1.2897,1.2897,1.292,1.292,1.3019,1.3111,1.3111,1.3263,1.3294,1.315,1.3019,1.292,1.292,1.292,1.2928,1.2867,1.2836,1.2836,1.2967,1.2582,1.2459,1.2674,1.2274,1.1913,1.1564,1.1394,1.09,1.0015,1.0094,0.9846,0.9401,0.9795,1.0158,2.1588,2.2297,2.2765,2.3109,2.3238,2.3201,2.3036,2.3001,2.3001,2.3001,2.2677,2.2468,2.2576,2.235,2.2213,2.2543,2.2674,2.2815,2.3091,2.3038,2.2964,2.2852,2.274,2.244,2.1807,2.1454,2.1059,2.0644,2.0722,2.0693,2.042,2.042,2.0342,2.0177,2.0098,2.002,2.002,1.9942,1.9902,1.9902,1.9902,1.9833,1.9715,1.9794,1.9643,1.9294,1.9029,1.8638,1.8128,1.7804,1.7535,1.7311,1.7232,1.7132,1.7003,1.7003,1.6795,1.6412,1.5806,1.5515,1.5374,1.5098,1.4919,1.4848,1.4991,1.4793,1.4585,1.5067,1.4961,1.4837,1.5421,1.5311,1.5007,1.4923,1.4589,1.4179,1.3788,1.3709,1.3643,1.3402,1.3548,1.3629,1.3463,1.3376,1.3346,1.3346,1.3333,1.3302,1.3302,1.3111,1.2989,1.2989,1.305,1.305,1.2928,1.315,1.3302,1.3302,1.3089,1.305,1.3164,1.285,1.2493,1.2164,1.2048,1.1568,1.0714,1.0763,1.0487,0.9945,1.013,1.0392,2.2488,2.3656,2.4611,2.3595,2.3642,2.3776,2.3187,2.3038,2.3001,2.3001,2.2743,2.2546,2.2601,2.2169,2.1981,2.2523,2.2479,2.2582,2.3243,2.315,2.315,2.3556,2.3113,2.274,2.2703,2.2553,2.1977,2.076,2.1002,2.1051,2.0683,2.0644,2.0605,2.0644,2.0459,2.0342,2.0342,2.0098,1.9942,1.9902,1.9902,1.9902,1.9902,2.0118,2.0109,1.9846,1.9478,1.9298,1.9165,1.8054,1.7783,1.8003,1.7457,1.722,1.7166,1.7166,1.7072,1.6839,1.6447,1.6123,1.5833,1.5798,1.5551,1.5303,1.5692,1.5515,1.5232,1.524,1.5515,1.5727,1.5374,1.5551,1.5712,1.5412,1.4965,1.4595,1.4463,1.4439,1.4347,1.4107,1.4531,1.4749,1.4291,1.41,1.404,1.404,1.3627,1.3333,1.3302,1.3119,1.3019,1.3019,1.318,1.318,1.2836,1.3119,1.3302,1.3302,1.3302,1.3354,1.348,1.339,1.323,1.3014,1.2565,1.2172,1.1846,1.1698,1.137,1.0906,1.0842,1.0813,2.3778,2.469,2.533,2.5058,2.4744,2.4335,2.3813,2.3446,2.3187,2.3038,2.2169,2.1738,2.2599,2.2066,2.1811,2.2812,2.3142,2.3349,2.3508,2.3482,2.3494,2.3604,2.3593,2.3372,2.2777,2.3187,2.2953,2.1606,2.1464,2.1502,2.1721,2.0992,2.0722,2.1051,2.1012,2.0974,2.0974,2.0886,2.0654,2.0186,2.0186,2.0098,1.9893,1.9668,1.9535,1.9449,1.9335,1.9033,1.8648,1.8789,1.8378,1.7665,1.7644,1.7385,1.6968,1.6968,1.6934,1.6874,1.6769,1.6482,1.6132,1.5868,1.5727,1.5657,1.5762,1.5727,1.57,1.5956,1.5912,1.5903,1.6342,1.6123,1.5851,1.6009,1.55,1.4974,1.4942,1.4917,1.491,1.4841,1.4936,1.4912,1.4492,1.4389,1.4359,1.4359,1.407,1.3688,1.3333,1.3272,1.3211,1.3211,1.3272,1.3272,1.318,1.3241,1.3302,1.3302,1.3302,1.3354,1.348,1.348,1.3352,1.3146,1.3182,1.2869,1.2172,1.2143,1.1736,1.0962,1.0962,1.1087,2.4955,2.5561,2.5822,2.5333,2.4838,2.4253,2.3408,2.3036,2.2732,2.2268,2.1494,2.1174,2.2115,2.1655,2.1598,2.2886,2.3196,2.3383,2.368,2.3677,2.3677,2.3824,2.3897,2.3714,2.3261,2.3703,2.3677,2.2777,2.2289,2.1987,2.1959,2.1415,2.1156,2.1205,2.1359,2.1397,2.1205,2.1282,2.1041,2.0411,2.0411,2.0333,2.0206,2.0062,1.9995,1.9995,1.9908,1.9736,1.9487,1.9355,1.8835,1.8151,1.7973,1.7539,1.7038,1.7116,1.7116,1.7038,1.7038,1.6864,1.6647,1.6368,1.6158,1.6053,1.6228,1.6158,1.6053,1.6237,1.6307,1.6333,1.6586,1.6447,1.6333,1.6517,1.6084,1.5626,1.5683,1.5748,1.5785,1.5944,1.5738,1.547,1.5234,1.4926,1.4715,1.4715,1.4419,1.4121,1.386,1.3506,1.3272,1.318,1.3241,1.3272,1.318,1.3294,1.3376,1.3376,1.3376,1.3437,1.3511,1.3631,1.3665,1.3544,1.3746,1.364,1.3173,1.31,1.2671,1.1925,1.1759,1.1773,2.5684,2.6013,2.6035,2.5028,2.4527,2.3954,2.2772,2.2402,2.2092,2.1349,2.0774,2.0712,2.1609,2.1334,2.1446,2.299,2.3133,2.3291,2.3877,2.3787,2.3824,2.4164,2.4043,2.3934,2.3897,2.408,2.4116,2.3861,2.3224,2.2628,2.2063,2.1921,2.1731,2.1436,2.1769,2.1769,2.1397,2.1502,2.1233,2.0683,2.0644,2.0605,2.0595,2.0721,2.0778,2.0778,2.0566,2.0604,2.0672,1.9774,1.9288,1.8979,1.8394,1.7791,1.7345,1.7411,1.7358,1.7245,1.7245,1.7245,1.721,1.6968,1.6665,1.6447,1.6795,1.6665,1.6377,1.6377,1.6621,1.6839,1.6482,1.6621,1.6908,1.6908,1.6606,1.6379,1.6518,1.6627,1.6769,1.7058,1.6621,1.6191,1.6114,1.5583,1.5125,1.5068,1.4784,1.4567,1.4567,1.392,1.3385,1.3224,1.3324,1.3363,1.3172,1.3398,1.3541,1.3541,1.3511,1.3511,1.3511,1.3821,1.401,1.401,1.4207,1.4336,1.4336,1.4139,1.372,1.3078,1.2819,1.264,2.4801,2.5227,2.5629,2.53,2.4933,2.447,2.364,2.2889,2.2238,2.1795,2.0571,2.0223,2.2319,2.1832,2.1768,2.3717,2.399,2.4024,2.4141,2.4116,2.4116,2.42,2.4164,2.408,2.3934,2.408,2.4043,2.3677,2.3677,2.3556,2.3298,2.2515,2.2252,2.2665,2.259,2.2515,2.244,2.1997,2.154,2.1089,2.076,2.0605,2.0595,2.0233,2.0067,2.0067,2.0029,1.9963,1.984,2.0043,1.9793,1.9184,1.8573,1.8187,1.7889,1.7436,1.7348,1.747,1.747,1.747,1.7392,1.7012,1.6839,1.6804,1.6874,1.6839,1.6804,1.6804,1.6839,1.6874,1.6795,1.6839,1.6908,1.6908,1.6733,1.657,1.6736,1.6892,1.7025,1.7091,1.6998,1.6744,1.6191,1.5996,1.577,1.5381,1.5108,1.4911,1.4911,1.4538,1.427,1.4231,1.413,1.404,1.398,1.3851,1.3739,1.3739,1.3601,1.3511,1.3511,1.3821,1.401,1.401,1.4297,1.4485,1.4455,1.4327,1.3859,1.3093,1.3222,1.3176,2.5075,2.5189,2.5206,2.4933,2.4622,2.4066,2.3097,2.2286,2.1587,2.1083,1.9848,1.9434,2.1266,2.096,2.0974,2.2731,2.3018,2.3201,2.3694,2.3763,2.3902,2.4166,2.42,2.4164,2.408,2.4152,2.4116,2.3934,2.3824,2.3677,2.3446,2.2777,2.2703,2.3298,2.3001,2.2815,2.2703,2.2402,2.1921,2.1205,2.1002,2.0809,2.0595,2.039,2.033,2.0417,2.0302,2.0264,2.0293,2.0411,2.0091,1.9449,1.8909,1.8455,1.8064,1.7628,1.751,1.7588,1.7588,1.7588,1.7554,1.7289,1.722,1.7185,1.6978,1.6968,1.7038,1.6943,1.6908,1.6908,1.6908,1.6908,1.6908,1.6908,1.689,1.6911,1.6979,1.7158,1.7326,1.7418,1.7235,1.7031,1.6816,1.6398,1.6016,1.5811,1.5449,1.5225,1.5225,1.5069,1.4824,1.4389,1.4359,1.43,1.4219,1.4181,1.4091,1.392,1.3881,1.3791,1.367,1.398,1.4169,1.4169,1.4297,1.4417,1.4515,1.4366,1.4078,1.3635,1.3725,1.3744,2.5097,2.4993,2.4635,2.437,2.408,2.3553,2.2419,2.1665,2.1029,2.033,1.9313,1.8928,2.0263,2.006,2.0182,2.1653,2.1894,2.2215,2.3121,2.3338,2.3602,2.4143,2.42,2.42,2.42,2.42,2.4189,2.4152,2.3787,2.353,2.3372,2.3075,2.315,2.3714,2.3335,2.3038,2.2889,2.2703,2.2252,2.1474,2.1282,2.1041,2.0731,2.0644,2.0693,2.0819,2.0654,2.0693,2.0819,2.0654,2.0245,1.9676,1.9178,1.8672,1.8171,1.7835,1.774,1.775,1.775,1.775,1.775,1.7598,1.7539,1.7436,1.7116,1.7141,1.721,1.7003,1.7012,1.7012,1.6908,1.6978,1.7047,1.7072,1.7201,1.7304,1.7304,1.7451,1.7632,1.7681,1.7514,1.7372,1.7393,1.6792,1.6263,1.6165,1.5753,1.5478,1.5507,1.5507,1.5274,1.4636,1.4686,1.4686,1.4478,1.4597,1.4529,1.4219,1.4249,1.416,1.389,1.4169,1.4327,1.4297,1.4336,1.4387,1.4515,1.4387,1.4236,1.4062,1.4155,1.4203,2.3859,2.3897,2.3703,2.3677,2.3629,2.3408,2.2558,2.1947,2.1314,2.0393,1.949,1.9257,2.0594,2.0228,2.0182,2.1653,2.1894,2.2089,2.2673,2.3121,2.3602,2.4143,2.42,2.42,2.42,2.42,2.4116,2.3934,2.3714,2.3604,2.3556,2.3519,2.3714,2.4127,2.3751,2.3519,2.353,2.2777,2.2365,2.2289,2.154,2.1167,2.1128,2.077,2.0605,2.0644,2.0605,2.0605,2.0644,2.0605,2.0312,1.9798,1.9242,1.8817,1.8479,1.7894,1.7818,1.7974,1.7974,1.7974,1.794,1.775,1.7588,1.7505,1.747,1.747,1.7426,1.7245,1.7314,1.7367,1.6978,1.7185,1.7461,1.7613,1.7638,1.7638,1.7638,1.7818,1.7896,1.774,1.7959,1.8024,1.7484,1.7143,1.6773,1.6346,1.592,1.5711,1.5827,1.5856,1.5827,1.574,1.5643,1.5517,1.5303,1.5206,1.5069,1.4911,1.4627,1.4389,1.416,1.4359,1.4428,1.4297,1.4426,1.4485,1.4515,1.4485,1.4295,1.392,1.4306,1.4337,2.3543,2.3677,2.3593,2.3593,2.3593,2.3371,2.2419,2.1835,2.1237,2.0393,1.967,1.9381,2.0068,1.9934,1.9975,2.0871,2.0989,2.141,2.2524,2.2857,2.3282,2.4097,2.42,2.4236,2.4381,2.4273,2.4127,2.3934,2.3824,2.3787,2.3787,2.3787,2.3897,2.42,2.3934,2.3787,2.3787,2.3224,2.2815,2.259,2.1987,2.154,2.1167,2.0896,2.0693,2.0605,2.0605,2.0605,2.0605,2.0605,2.0507,2.0244,1.9487,1.9117,1.8945,1.8148,1.793,1.8008,1.8008,1.8008,1.7974,1.7896,1.7837,1.7769,1.7573,1.7564,1.7588,1.7426,1.7426,1.747,1.7298,1.7367,1.7529,1.7681,1.7784,1.7896,1.8032,1.8134,1.8178,1.8168,1.8134,1.8085,1.7951,1.7622,1.7209,1.6773,1.6457,1.6137,1.5828,1.5769,1.5769,1.5769,1.573,1.5672,1.5575,1.542,1.5245,1.5,1.504,1.4795,1.4219,1.4577,1.4645,1.4306,1.4417,1.4595,1.4803,1.4595,1.4512,1.455,1.4591,1.4641,2.3047,2.3298,2.3261,2.3261,2.3124,2.2844,2.2167,2.1587,2.1024,2.039,1.9943,1.9753,1.9865,1.978,1.9849,2.0331,2.0538,2.1009,2.2109,2.2523,2.2949,2.3661,2.3879,2.4042,2.4258,2.4217,2.4127,2.3934,2.3897,2.3897,2.3897,2.397,2.4043,2.42,2.4007,2.3897,2.3897,2.3567,2.3261,2.2964,2.2553,2.2063,2.1474,2.1205,2.0974,2.077,2.0838,2.0838,2.077,2.0838,2.0681,2.0341,1.957,1.9209,1.9004,1.8281,1.8008,1.8008,1.8008,1.8008,1.8008,1.8008,1.8008,1.7949,1.771,1.7759,1.7852,1.7701,1.7608,1.7598,1.7735,1.771,1.7701,1.7886,1.8032,1.8178,1.8337,1.8405,1.8438,1.8448,1.8371,1.8303,1.8303,1.8002,1.7596,1.7135,1.6809,1.6387,1.5819,1.5788,1.5817,1.5817,1.5817,1.5788,1.5769,1.5633,1.5459,1.5264,1.5342,1.5186,1.4666,1.4961,1.4941,1.4506,1.4595,1.4714,1.4862,1.4764,1.4823,1.5,1.4922,1.4961,2.2222,2.2553,2.2402,2.2402,2.2002,2.1662,2.1779,2.123,2.0662,2.0423,2.0381,2.04,2.04,2.001,1.9849,2.0331,2.0868,2.119,2.1213,2.2075,2.2685,2.273,2.3144,2.3478,2.37,2.3998,2.4127,2.3934,2.3897,2.3897,2.3897,2.408,2.42,2.42,2.4007,2.3897,2.3897,2.3703,2.3593,2.3604,2.3187,2.2665,2.2073,2.1693,2.1397,2.1205,2.1387,2.1397,2.1205,2.1397,2.0857,1.9883,1.9453,1.9023,1.8559,1.8164,1.8008,1.8008,1.8008,1.8008,1.8008,1.8008,1.8008,1.8008,1.8008,1.8144,1.8236,1.8042,1.7862,1.7808,1.8347,1.8245,1.8076,1.8414,1.8482,1.8516,1.8516,1.865,1.8707,1.8371,1.8741,1.8931,1.8405,1.8243,1.797,1.7302,1.687,1.6426,1.5974,1.6009,1.6114,1.6114,1.6114,1.6038,1.5914,1.5885,1.5885,1.5885,1.5575,1.5478,1.5672,1.5507,1.5274,1.5,1.5,1.4832,1.4515,1.4981,1.5128,1.5009,1.5274,1.5332,2.1024,2.1528,2.1682,2.1815,2.149,2.1124,2.1181,2.093,2.0566,2.0155,2.0532,2.0814,2.0469,2.0572,2.0891,2.1332,2.1583,2.1801,2.2178,2.2568,2.2832,2.2832,2.3524,2.4131,2.4425,2.4541,2.4538,2.4309,2.4189,2.4116,2.4116,2.4164,2.42,2.42,2.4152,2.4116,2.4116,2.3897,2.3824,2.3787,2.3409,2.3038,2.2703,2.244,2.2149,2.1845,2.2035,2.1997,2.1807,2.1578,2.1306,2.0895,2.0033,1.9453,1.9023,1.8594,1.8252,1.8008,1.8008,1.8008,1.8008,1.8008,1.8008,1.8008,1.8008,1.8042,1.811,1.8178,1.8168,1.8158,1.8438,1.8414,1.8414,1.865,1.8707,1.8741,1.8875,1.8975,1.8965,1.8875,1.8875,1.8841,1.8674,1.8629,1.8349,1.7531,1.739,1.7011,1.6158,1.6056,1.6114,1.6114,1.6114,1.6066,1.5914,1.5885,1.5856,1.5769,1.5836,1.5768,1.5507,1.5642,1.5555,1.5157,1.5216,1.5216,1.5128,1.5362,1.5488,1.5469,1.5739,1.5681,1.9793,2.0405,2.069,2.0903,2.0726,2.0598,2.0895,2.0675,2.0407,2.0389,2.0825,2.1098,2.0745,2.0983,2.1305,2.1583,2.1962,2.2191,2.2144,2.2589,2.2922,2.2989,2.3599,2.4186,2.4647,2.4754,2.4682,2.4418,2.4273,2.42,2.42,2.42,2.42,2.42,2.42,2.42,2.42,2.408,2.4007,2.4007,2.3751,2.3446,2.3113,2.2964,2.2703,2.2327,2.2628,2.259,0.0,2.1949,2.1693,2.1385,2.0315,1.9756,1.9453,1.8822,1.8432,1.8188,1.8066,1.8008,1.8008,1.8008,1.8008,1.8008,1.8008,1.8042,1.8144,1.8337,1.8337,1.8337,1.8549,1.8549,1.8583,1.8841,1.8908,1.8942,1.9075,1.9108,1.9065,1.9008,1.8942,1.8875,1.8808,1.8875,1.86,1.7635,1.7564,1.7246,1.6149,1.6056,1.6114,1.6114,1.6181,1.6163,1.599,1.599,1.599,1.6048,1.6095,1.6056,1.5941,1.6075,1.5989,1.5613,1.57,1.5642,1.5468,1.5681,1.5884,1.6134,1.6228,1.6142,0.0,1.9189,1.9541,1.9721,1.9802,2.0009,2.0808,2.0441,0.0,2.0991,2.119,2.119,2.119,2.119,2.1213,2.1236,2.2075,2.2374,2.1385,2.2184,2.2966,2.325,2.3441,2.381,2.4469,2.4682,2.4646,2.4236,2.42,2.42,2.42,2.42,2.42,2.42,2.42,2.42,2.42,2.42,2.42,2.42,2.42,2.3897,2.3372,2.3372,2.315,2.2815,2.3187,2.315,2.2777,2.2553,2.2101,2.1461,2.043,1.9979,1.9814,1.8948,1.8627,1.8539,1.812,1.8008,1.8008,1.8008,1.8008,1.8008,1.8008,1.8144,1.8303,1.8448,1.8414,1.8371,1.8707,1.865,1.8617,1.9008,1.9108,1.9108,1.9108,1.9108,1.9042,1.8875,1.8975,1.9042,1.8841,1.8975,1.8732,1.7677,1.7502,1.7124,1.6054,1.6038,1.6114,1.6114,1.6278,1.6316,1.6142,1.6114,1.6257,1.6542,1.6285,1.6314,1.6761,1.6694,1.6524,1.6353,1.6324,1.6085,1.571,1.5999,1.6343,1.6818,1.6694,1.6637,1.6395,0.0,1.8409,1.8547,1.8752,1.9093,0.0,1.993,2.0093,2.0833,2.1094,2.119,2.119,2.119,2.1316,2.1686,2.2271,2.2467,2.1835,2.2224,2.2966,2.3925,2.4168,2.4408,2.4695,2.4754,2.4682,2.4454,2.4309,2.42,2.42,2.42,2.42,2.42,2.42,2.42,2.42,2.42,2.42,2.42,2.42,2.4127,2.397,2.397,2.3861,2.3629,2.3714,2.3714,2.3593,2.3075,2.259,2.2128,2.138,2.0633,1.9853,1.9326,1.8926,1.8539,1.812,1.8008,1.8008,1.8008,1.8008,1.8008,1.8008,1.8042,1.811,1.8303,1.8303,1.8337,1.8516,1.865,1.8741,1.8841,1.9008,1.9108,1.9108,1.9108,1.9108,1.9042,1.9075,1.9065,1.9042,1.9075,1.8764,1.7802,1.7637,1.7307,1.6411,1.6316,1.6345,1.6345,1.6374,1.6374,1.6345,1.6345,1.6306,1.6228,1.6371,1.6542,1.6637,1.6722,1.6722,1.6666,1.6438,1.6428,1.6662,1.6542,1.6581,1.6818,1.7043,1.6874,1.5726,1.6621,1.7535,1.7706,1.8138,1.8721,1.9453,1.9781,2.0172,2.0771,2.1063,2.119,2.119,2.119,2.1282,2.1537,2.2073,2.2485,2.2505,2.2472,2.2904,2.4148,2.4359,2.4539,2.4909,2.4861,2.4718,2.4538,2.4309,2.42,2.42,2.42,2.42,2.42,2.42,2.42,2.42,2.42,2.42,2.42,2.42,2.42,2.42,2.42,2.408,2.3897,2.4007,2.397,2.3861,2.3335,2.3001,2.274,2.1845,2.1159,2.0526,1.9632,1.9223,1.8964,1.836,1.8178,1.8245,1.8245,1.8245,1.8245,1.8245,1.8245,1.8212,1.8178,1.8168,1.8212,1.8381,1.8472,1.8573,1.865,1.8808,1.8975,1.8975,1.9031,1.9108,1.9108,1.9108,1.9108,1.9108,1.9108,1.8764,1.7833,1.7699,1.7378,1.6498,1.6413,1.6413,1.6413,1.6413,1.6413,1.6413,1.6459,1.6438,1.6343,1.6552,1.6722,1.6786,1.6948,1.7043,1.7043,1.6846,1.6864,1.7145,1.6909,1.6864,1.7043,1.7222,1.7155,1.5576,1.6246,1.6839,1.7028,1.774,1.861,1.933,1.9813,2.0269,2.0828,2.1094,2.119,2.119,2.1221,2.1244,2.1305,2.1839,2.2548,2.33,2.2936,2.3026,2.4245,2.4386,2.4599,2.5004,2.4921,2.479,2.4598,2.4406,2.4334,2.437,2.4309,2.4309,2.4309,2.4236,2.42,2.42,2.42,2.42,2.42,2.42,2.42,2.42,2.42,2.4116,2.397,2.408,2.408,2.3934,2.3519,2.3372,2.3187,2.2176,2.1693,2.1362,1.9969,1.9515,1.9479,1.8611,1.8381,1.8516,1.8516,1.8516,1.8516,1.8516,1.8516,1.8448,1.8144,1.8076,1.8076,1.8202,1.8269,1.8337,1.8482,1.864,1.8774,1.8808,1.8942,1.9031,1.9031,1.9065,1.9108,1.9108,1.9108,1.8828,1.7926,1.7771,1.7429,1.6649,1.6501,1.6459,1.6459,1.6459,1.6459,1.6459,1.6563,1.6627,1.6627,1.6751,1.6864,1.6983,1.7183,1.7306,1.7334,1.7334,1.7323,1.7362,1.719,1.719,1.7362,1.7323,1.7407,1.5133,1.585,1.6412,1.6412,1.7279,1.8269,1.8954,1.9606,2.0302,2.0999,2.119,2.119,2.119,2.1273,2.1444,2.1732,2.227,2.3029,2.4154,2.3828,2.3793,2.4637,2.4862,2.4933,2.4849,2.4957,2.5004,2.4909,2.4874,2.4945,2.5135,2.4849,2.4718,2.4718,2.4381,2.42,2.42,2.42,2.42,2.42,2.42,2.42,2.42,2.42,2.4189,2.4164,2.4007,2.4018,2.4152,2.3897,2.3604,2.3298,2.3113,2.2515,2.1618,2.0471,1.9857,1.9485,1.8611,1.8381,1.8516,1.8516,1.8516,1.8516,1.8516,1.8516,1.8482,1.8448,1.8347,1.8202,1.8076,1.8178,1.8337,1.8482,1.8516,1.8583,1.8774,1.8808,1.8841,1.8841,1.8975,1.9108,1.9108,1.9108,1.8922,1.8361,1.8051,1.7706,1.7212,1.6919,1.6733,1.6733,1.6733,1.6733,1.6733,1.6761,1.6761,1.6761,1.679,1.6864,1.6983,1.7183,1.7351,1.7479,1.7479,1.7534,1.7629,1.7601,1.7601,1.7629,1.7534,1.7479,1.5169,1.5815,1.6395,1.6892,1.7518,1.8202,1.8977,1.9573,2.015,2.0786,2.0978,2.1094,2.1273,2.1504,2.183,2.237,2.2827,2.3383,2.4132,2.4096,2.4248,2.4886,2.5052,2.5087,2.5087,2.5147,2.5206,2.5158,2.5158,2.5194,2.5312,2.5147,2.5087,2.5087,2.479,2.4611,2.4526,2.4526,2.4418,2.42,2.42,2.4273,2.4345,2.4236,2.4273,2.4345,2.4152,2.4116,2.4189,2.4091,2.397,2.3751,2.342,2.2826,2.2002,2.0486,1.9694,1.9255,1.8612,1.863,1.8888,1.8707,1.864,1.8674,1.8774,1.8808,1.8808,1.8674,1.8549,1.8405,1.8438,1.8414,1.8414,1.8482,1.8516,1.8516,1.8539,1.8674,1.8808,1.8808,1.8975,1.9108,1.9208,1.9208,1.9085,1.8711,1.8554,1.8194,1.7495,1.7278,1.7084,1.6839,1.6751,1.6694,1.6694,1.6751,1.6835,1.6909,1.6909,1.6965,1.7172,1.7312,1.7407,1.7407,1.7534,1.759,1.759,1.759,1.7629,1.7711,1.749,1.7451,1.5106,1.5744,1.6404,1.7341,1.7839,1.8379,1.9378,1.9947,2.0401,2.0972,2.1131,2.1234,2.151,2.1874,2.2314,2.2931,2.3414,2.3823,2.4143,2.4318,2.4612,2.504,2.5123,2.5147,2.5276,2.5312,2.5347,2.5418,2.543,2.5488,2.5594,2.5488,2.543,2.543,2.5158,2.4957,2.4849,2.4825,2.461,2.4273,2.4309,2.4418,2.4574,2.4418,2.4418,2.4574,2.4345,2.4273,2.4273,2.4236,2.42,2.4164,2.374,2.3103,2.2223,2.0514,1.9594,1.9175,1.8875,1.8965,1.922,1.9008,1.8875,1.8841,1.9042,1.9108,1.9075,1.8908,1.8741,1.865,1.8707,1.8617,1.8516,1.8549,1.8583,1.8549,1.8506,1.8707,1.8875,1.8875,1.9008,1.9142,1.9285,1.9318,1.9258,1.9083,1.9062,1.8793,1.8004,1.7804,1.7564,1.7134,1.6882,1.6751,1.6751,1.6874,1.6976,1.7095,1.7123,1.719,1.7323,1.7451,1.7479,1.739,1.7601,1.7645,1.7579,1.7579,1.7673,1.7794,1.7529,1.7518,1.4605,1.5371,1.6095,1.7216,1.7932,1.8752,2.0259,2.0916,2.1405,2.2116,2.2024,2.1903,2.211,2.2505,2.2954,2.337,2.4002,2.4505,2.4695,2.4731,2.485,2.5076,2.5123,2.5147,2.5276,2.5312,2.5453,2.584,2.5875,2.6002,2.6383,2.6072,2.5875,2.5875,2.5312,2.5016,2.4981,2.4849,2.4682,2.449,2.4682,2.4754,2.479,2.4754,2.4754,2.4754,2.4574,2.449,2.4454,2.4273,2.42,2.42,2.4345,2.3521,2.2092,2.0877,2.0066,1.9572,1.9539,1.9341,1.9131,1.9241,1.9042,1.8841,1.9042,1.9108,1.9108,1.9065,1.9075,1.8965,1.8607,1.8516,1.8549,1.8741,1.8774,1.8841,1.8998,1.9065,1.9065,1.9065,1.9108,1.9142,1.9285,1.9318,1.9374,1.9529,1.9607,1.9491,1.9123,1.8695,1.8296,1.7955,1.7512,1.725,1.725,1.725,1.7323,1.7468,1.7468,1.7468,1.7496,1.7496,1.7562,1.7684,1.7684,1.7755,1.787,1.787,1.7936,1.8057,1.7794,1.7755,1.4346,1.5265,1.6085,1.7278,1.8191,1.9144,2.0415,2.1104,2.164,2.2125,2.2219,2.2263,2.2465,2.2918,2.3342,2.3592,2.4331,2.4909,2.4992,2.5052,2.5147,2.5206,2.5206,2.5241,2.5312,2.5418,2.5606,2.5875,2.6015,2.6201,2.6499,2.6361,2.6292,2.6292,2.5933,2.5641,2.5382,2.5336,2.5159,2.4873,2.4814,2.4861,2.4992,2.4861,2.4861,2.4992,2.479,2.4682,2.4682,2.461,2.4574,2.4504,2.3828,2.296,2.2024,2.1206,2.0938,2.0968,2.0662,2.0662,2.0744,2.0284,1.9896,1.9583,1.9458,1.9274,1.9108,1.9108,1.9175,1.9175,1.9052,1.9019,1.9019,1.8975,1.8975,1.8965,1.8908,1.9008,1.9108,1.9108,1.9175,1.9241,1.9274,1.9407,1.9648,2.0042,2.0201,2.016,1.9963,1.9613,1.9082,1.8402,1.7597,1.7106,1.7106,1.7368,1.7573,1.7617,1.7562,1.7534,1.7617,1.7617,1.7656,1.7711,1.7783,1.7854,1.7897,1.7826,1.7893,1.8084,1.7728,1.7728,1.4158,1.5007,1.58,1.7011,1.811,1.9234,2.0442,2.14,2.2136,2.2514,2.2706,2.2834,2.2844,2.331,2.3715,2.385,2.4555,2.5111,2.5147,2.5241,2.5312,2.5312,2.5312,2.5312,2.5312,2.55,2.5676,2.5875,2.6097,2.6305,2.6499,2.6499,2.6499,2.6499,2.6305,2.6062,2.5793,2.5641,2.5465,2.5265,2.5052,2.5016,2.5147,2.5016,2.5016,2.5147,2.4957,2.4897,2.4897,2.4825,2.4731,2.4543,2.364,2.297,2.2389,2.1891,2.1857,2.1999,2.1642,2.1554,2.1481,2.0926,2.0427,1.9986,1.9701,1.944,1.9231,1.9175,1.9241,1.9318,1.9384,1.9384,1.9351,1.9208,1.9208,1.9241,1.9175,1.9208,1.9274,1.9341,1.9308,1.9318,1.9374,1.9506,1.9747,2.0172,2.055,2.0715,2.05,2.0307,1.9769,1.8627,1.7871,1.7381,1.7117,1.7507,1.7783,1.7826,1.7772,1.7772,1.7822,1.7794,1.7755,1.7755,1.7854,1.7897,1.7897,1.781,1.7865,1.8084,1.781,1.7865,1.3949,1.4649,1.5204,1.6387,1.7606,1.8897,2.0464,2.193,2.3113,2.3519,2.3644,2.3607,2.3275,2.3626,2.4083,2.4267,2.4742,2.5147,2.5276,2.5312,2.5312,2.5312,2.5312,2.5312,2.5312,2.5488,2.5688,2.5875,2.6097,2.6305,2.6499,2.6499,2.6499,2.6499,2.6305,2.6213,2.6201,2.5793,2.5606,2.5606,2.5382,2.5312,2.5312,2.5312,2.5312,2.5276,2.5147,2.5123,2.5087,2.4897,2.4614,2.4267,2.4083,2.3661,2.3181,2.3058,2.2753,2.2411,2.2411,2.1744,2.0939,2.1074,2.0577,1.9878,1.9671,1.9605,1.9572,1.9351,1.9318,1.9341,1.9539,1.9605,1.9539,1.9351,1.945,1.9671,1.9868,1.9736,1.9671,1.9868,1.9572,1.9374,1.9572,1.9605,1.9671,1.9868,2.0646,2.1063,2.0667,2.0761,2.0279,1.8678,1.8508,1.8164,1.7378,1.7673,1.7952,1.8093,1.824,1.8263,1.8111,1.7963,1.7897,1.7897,1.7897,1.7897,1.7897,1.7897,1.7963,1.8084,1.8084,1.8205,1.3404,1.4642,1.5765,1.6682,1.8032,1.9496,2.0787,2.2098,2.3224,2.4043,2.4048,2.3897,2.3779,2.3884,2.4071,2.4267,2.4742,2.5147,2.5276,2.5312,2.5382,2.5688,2.5723,2.5781,2.5908,2.599,2.6037,2.6097,2.6166,2.6305,2.6499,2.6499,2.643,2.6305,2.6361,2.6223,2.5793,2.5793,2.5676,2.5382,2.5347,2.5312,2.5312,2.5312,2.5312,2.5312,2.5276,2.5182,2.5123,2.5052,2.4743,2.4267,2.4083,2.3919,2.3721,2.3387,2.3618,2.4026,2.3479,2.3214,2.296,2.2157,2.1549,2.1062,2.0488,2.015,1.9944,1.9879,1.9846,1.9846,1.9835,1.9868,1.9878,1.9583,1.9671,1.9835,1.99,1.9835,1.9835,1.99,1.9802,1.9769,1.9911,1.9769,1.9835,2.0518,2.0807,2.1094,2.1336,2.1112,2.0637,1.9904,1.9335,1.8881,1.8589,1.8767,1.8838,1.8732,1.896,1.8881,1.8464,1.8193,1.8057,1.8057,1.8057,1.8057,1.8057,1.7936,1.7963,1.8084,1.8084,1.8205,1.3483,1.485,1.6105,1.6983,1.8243,1.9754,2.1511,2.2654,2.3593,2.4454,2.4472,2.4319,2.4308,2.4378,2.4448,2.4483,2.4873,2.5218,2.5276,2.5312,2.5453,2.5828,2.584,2.5898,2.6151,2.6198,2.6188,2.6213,2.627,2.6361,2.6499,2.6499,2.643,2.6339,2.6374,2.6223,2.5828,2.5793,2.5641,2.5418,2.5347,2.5312,2.5312,2.5312,2.5312,2.5312,2.5312,2.5206,2.5123,2.5123,2.4743,2.4175,2.4284,2.4143,2.3874,2.3849,2.4059,2.4295,2.3839,2.356,2.3228,2.2519,2.2018,2.1592,2.0982,2.0624,2.0399,2.0302,2.0302,2.0302,2.028,2.0421,2.0399,1.9835,1.9802,1.99,1.9976,1.9933,1.99,1.9976,1.9933,1.9966,2.0183,2.0064,2.0129,2.0807,2.1115,2.1494,2.2037,2.1824,2.1415,2.0857,2.0354,1.9941,1.9562,1.9554,1.9526,1.9392,1.9452,1.9303,1.8934,1.8506,1.8247,1.8084,1.8177,1.8177,1.8084,1.8111,1.8111,1.8084,1.8177,1.8302,1.3832,1.5132,1.6305,1.7313,1.8468,1.9973,2.2435,2.3482,2.408,2.4682,2.479,2.4825,2.4825,2.4992,2.5052,2.4861,2.5123,2.5312,2.5312,2.5347,2.5488,2.5898,2.5816,2.5886,2.6233,2.6327,2.6305,2.6236,2.643,2.6521,2.6499,2.6499,2.6499,2.6465,2.6305,2.6166,2.6144,2.5793,2.5571,2.5571,2.5382,2.5312,2.5312,2.5312,2.5312,2.5312,2.5276,2.5206,2.5111,2.5087,2.4696,2.4131,2.4601,2.4354,2.3816,2.4327,2.4176,2.3758,2.3712,2.315,2.2427,2.238,2.2063,2.1667,2.1273,2.1083,2.0935,2.0732,2.07,2.07,2.0903,2.1063,2.0999,2.0194,2.0031,2.0064,2.0172,2.0107,2.0064,2.0172,2.0107,2.0129,2.0464,2.0475,2.0561,2.0903,2.1514,2.2075,2.2616,2.272,2.2402,2.1608,2.1488,2.1152,2.0451,2.0246,2.0141,2.0098,1.9858,1.964,1.9473,1.8934,1.8479,1.8166,1.834,1.834,1.8139,1.834,1.8313,1.8139,1.834,1.8464,1.3137,1.4981,1.6918,1.7775,1.9612,2.1511,2.2708,2.3482,2.408,2.4682,2.4921,2.5087,2.5182,2.5147,2.5111,2.5182,2.5241,2.5312,2.5312,2.5571,2.5898,2.6255,2.6679,2.6897,2.6841,2.7201,2.7154,2.6499,2.6714,2.6782,2.6499,2.6499,2.643,2.627,2.6201,2.6062,2.5723,2.5641,2.5535,2.5347,2.5312,2.5312,2.5312,2.5312,2.5312,2.5276,2.5182,2.5182,2.5241,2.4957,2.4755,2.4625,2.4599,2.4468,2.4339,2.4455,2.4378,2.4104,2.3702,2.3245,2.2779,2.2202,2.1926,2.1812,2.1624,2.1561,2.1529,2.1466,2.1348,2.123,2.1262,2.1242,2.1158,2.0967,2.0935,2.0935,2.0978,2.0935,2.0935,2.0967,2.0935,2.1031,2.1368,2.1063,2.0924,2.1376,2.1721,2.2075,2.2616,2.272,2.2641,2.2457,2.2189,2.194,2.169,2.1426,2.1141,2.0889,2.0697,2.0406,1.9888,1.9239,1.8839,1.8664,1.8598,1.8545,1.8479,1.8545,1.8491,1.834,1.8491,1.856,1.3233,1.5008,1.6959,1.8449,1.9947,2.1367,2.2686,2.3231,2.3638,2.4479,2.4873,2.5111,2.5182,2.5147,2.5111,2.5182,2.5218,2.5288,2.5535,2.5758,2.6141,2.6748,2.7019,2.7222,2.7369,2.7556,2.7456,2.6998,2.7154,2.7087,2.6748,2.6748,2.6624,2.6339,2.6236,2.6062,2.5758,2.5653,2.55,2.5312,2.5312,2.5312,2.5312,2.5312,2.5312,2.5312,2.5241,2.5218,2.5182,2.5016,2.4814,2.4646,2.4526,2.4454,2.4381,2.4454,2.4179,2.3749,2.3544,2.3114,2.2558,2.2188,2.203,2.203,2.1949,2.1874,2.1812,2.1812,2.1706,2.1632,2.1632,2.1663,2.1675,2.1675,2.1423,2.119,2.119,2.119,2.119,2.119,2.119,2.1316,2.162,2.16,2.1663,2.2056,2.2118,2.2304,2.2818,2.286,2.283,2.2878,2.2726,2.2615,2.2588,2.2179,2.1786,2.1417,2.1151,2.0717,2.0105,1.9759,1.9408,1.9078,1.896,1.8854,1.8774,1.8732,1.8652,1.8583,1.8652,1.8747,1.3393,1.5102,1.7004,1.9012,1.9832,2.0659,2.2472,2.2874,2.3167,2.4277,2.4802,2.5123,2.5123,2.5123,2.5111,2.5111,2.5111,2.53,2.584,2.598,2.6349,2.7201,2.7255,2.7377,2.7743,2.7723,2.7636,2.749,2.757,2.7423,2.704,2.7007,2.685,2.6499,2.627,2.6062,2.591,2.5688,2.5535,2.5347,2.5347,2.5347,2.5312,2.5312,2.5312,2.5312,2.5312,2.5241,2.5111,2.5111,2.4909,2.4598,2.4538,2.4381,2.4273,2.449,2.3968,2.3236,2.3482,2.2966,2.2197,2.2197,2.2197,2.2197,2.2197,2.2092,2.1968,2.1968,2.1968,2.1968,2.1968,2.2092,2.2197,2.2197,2.1781,2.136,2.136,2.136,2.138,2.1411,2.1411,2.1474,2.1757,2.2018,2.229,2.2586,2.2555,2.2604,2.3017,2.2987,2.3,2.3078,2.3108,2.3108,2.3108,2.2681,2.2266,2.1909,2.1484,2.0989,2.045,2.0335,2.008,1.9629,1.9422,1.9239,1.9078,1.8946,1.8878,1.8825,1.8825,1.8972,1.2759,1.5285,1.7762,1.8816,1.9649,2.0584,2.2136,2.2546,2.2988,2.4241,2.4802,2.5123,2.5123,2.5123,2.5147,2.5241,2.5182,2.53,2.584,2.6314,2.676,2.7235,2.7776,2.8026,2.7809,2.8197,2.8197,2.757,2.7802,2.7736,2.704,2.7007,2.685,2.6499,2.6154,2.5945,2.591,2.5688,2.5571,2.5571,2.5571,2.5465,2.5312,2.5312,2.5312,2.5312,2.5312,2.5276,2.5276,2.5147,2.5087,2.4981,2.4634,2.449,2.449,2.4682,2.4085,2.3236,2.3628,2.3075,2.2197,2.2197,2.2197,2.2197,2.2197,2.2185,2.2166,2.2166,2.2166,2.2166,2.2166,2.2185,2.2197,2.2197,2.2123,2.2061,2.2061,2.2061,2.2092,2.2235,2.2235,2.2204,2.2154,2.2154,2.2247,2.2432,2.2586,2.2708,2.2909,2.3017,2.3078,2.3108,2.3108,2.3108,2.3108,2.3032,2.2905,2.2677,2.2114,2.1659,2.1342,2.0885,2.0599,2.0524,1.9991,1.9604,1.9342,1.9316,1.921,1.8972,1.8972,1.904,1.3267,1.537,1.7245,1.8345,1.8951,1.9707,2.1169,2.1797,2.2375,2.3455,2.4261,2.4838,2.5052,2.5123,2.5147,2.5276,2.5241,2.55,2.6245,2.6645,2.7108,2.7776,2.8137,2.8203,2.8,2.836,2.8392,2.7868,2.8164,2.8066,2.7323,2.7289,2.7053,2.6521,2.6223,2.6062,2.6062,2.5875,2.5758,2.5758,2.5641,2.5535,2.5453,2.5347,2.5312,2.5312,2.5312,2.5312,2.5312,2.5241,2.5182,2.5076,2.4909,2.4706,2.4526,2.4849,2.4212,2.327,2.3661,2.3107,2.2197,2.2197,2.2197,2.2197,2.2197,2.2197,2.2197,2.2197,2.2197,2.2197,2.2197,2.2197,2.2197,2.2197,2.2197,2.2197,2.2197,2.2197,2.2216,2.2278,2.2278,2.2278,2.2228,2.2197,2.2247,2.2389,2.2482,2.2616,2.2878,2.2939,2.3017,2.3078,2.3108,2.3108,2.3108,2.3198,2.312,2.2821,2.2609,2.2207,2.1525,2.1263,2.1014,2.0712,2.0258,1.9978,1.9849,1.9617,1.9486,1.9448,1.937,1.9396,1.312,1.4812,1.6237,1.7262,1.8032,1.8841,2.0273,2.1182,2.1975,2.2903,2.3824,2.4598,2.4945,2.5016,2.5087,2.5276,2.5312,2.5594,2.644,2.6782,2.7229,2.8059,2.8235,2.8216,2.8112,2.8406,2.8471,2.8112,2.8341,2.8197,2.7523,2.7423,2.7087,2.6521,2.6305,2.6213,2.6213,2.6062,2.598,2.598,2.5828,2.5723,2.5676,2.5535,2.5453,2.5453,2.5347,2.5347,2.5382,2.5312,2.5241,2.5147,2.5111,2.4909,2.4706,2.4981,2.434,2.3315,2.3661,2.3107,2.2197,2.2197,2.2197,2.2197,2.2197,2.2197,2.2197,2.2197,2.2197,2.2197,2.2197,2.2197,2.2197,2.2197,2.2197,2.2197,2.2197,2.2216,2.2247,2.2228,2.2216,2.2247,2.2228,2.2197,2.2216,2.2328,2.242,2.2586,2.283,2.2909,2.3,2.3047,2.3078,2.3108,2.3108,2.3271,2.3314,2.3097,2.3031,2.2613,2.1759,2.159,2.1237,2.0712,2.0448,2.0283,2.0207,1.9901,1.9759,1.9798,1.9708,1.9734,1.1342,1.3045,1.4884,1.5325,1.681,1.8471,1.9759,2.0882,2.2011,2.3088,2.3934,2.4574,2.479,2.4825,2.4921,2.5241,2.5312,2.5523,2.6129,2.6508,2.6985,2.7743,2.8,2.8112,2.8112,2.8406,2.8471,2.8112,2.8112,2.7947,2.7523,2.7209,2.685,2.6499,2.6305,2.6213,2.6213,2.6179,2.6166,2.6166,2.6166,2.6062,2.5875,2.5875,2.5875,2.5828,2.5465,2.5418,2.5571,2.5382,2.5312,2.5276,2.5147,2.5087,2.5076,2.5087,2.4421,2.3516,2.3739,2.3107,2.2197,2.2197,2.2197,2.2197,2.2197,2.2197,2.2197,2.2197,2.2197,2.2197,2.2197,2.2197,2.2197,2.2197,2.2197,2.2197,2.2197,2.2309,2.2359,2.2216,2.2309,2.2359,2.2216,2.2197,2.2197,2.2228,2.2463,2.269,2.2708,2.2939,2.3047,2.2909,2.3017,2.3108,2.3108,2.3271,2.3539,2.3822,2.3321,2.2795,2.236,2.1786,2.1237,2.0712,2.0674,2.0524,2.0207,2.0182,2.0042,1.9798,1.9798,1.9939,1.1291,1.2392,1.3631,1.4546,1.5666,1.6846,1.8174,1.9446,2.0636,2.1583,2.2804,2.3787,2.397,2.455,2.5087,2.543,2.5606,2.5886,2.644,2.6748,2.6945,2.7079,2.7358,2.7213,2.6368,2.7165,2.7487,2.6935,2.7637,2.7835,2.7209,2.7276,2.7053,2.6521,2.6305,2.6213,2.6213,2.6339,2.6396,2.6396,2.627,2.6166,2.6097,2.5945,2.598,2.6097,2.5793,2.5723,2.5758,2.543,2.5382,2.5453,2.5288,2.5182,2.5111,2.5218,2.4478,2.3528,2.3739,2.3107,2.2197,2.2197,2.2197,2.2197,2.2197,2.2197,2.2197,2.2197,2.2197,2.2197,2.2197,2.2197,2.2197,2.2197,2.2197,2.2216,2.2309,2.2309,2.2247,2.2228,2.2247,2.2247,2.2228,2.2278,2.2328,2.2328,2.2696,2.2939,2.286,2.309,2.321,2.3047,2.3078,2.3138,2.3271,2.345,2.3628,2.3891,2.3771,2.3311,2.244,2.2205,2.1642,2.0725,2.0699,2.0624,2.0524,2.0423,2.0359,2.0308,2.0245,2.0283,1.0773,1.1563,1.248,1.3329,1.4539,1.5862,1.7065,1.8572,1.9964,2.0823,2.2117,2.3187,2.3519,2.4213,2.4862,2.543,2.5564,2.5765,2.6163,2.6236,2.6248,2.6233,2.6418,2.6242,2.5396,2.6334,2.6797,2.6244,2.7256,2.7636,2.704,2.7209,2.7087,2.6521,2.6361,2.627,2.6213,2.6396,2.6465,2.6396,2.6339,2.6305,2.6305,2.6154,2.6188,2.6305,2.6084,2.598,2.598,2.5571,2.55,2.5571,2.5382,2.5241,2.5182,2.5276,2.4582,2.3628,2.3761,2.3107,2.2197,2.2197,2.2197,2.2197,2.2197,2.2197,2.2197,2.2197,2.2197,2.2197,2.2197,2.2216,2.2247,2.2228,2.2216,2.2278,2.2389,2.2278,2.2228,2.2247,2.2278,2.2278,2.2278,2.2402,2.2482,2.2482,2.2836,2.3078,2.3,2.3271,2.339,2.321,2.3228,2.3318,2.3463,2.3599,2.3789,2.3949,2.4067,2.3589,2.2453,2.2401,2.1852,2.0725,2.0699,2.0712,2.0775,2.0637,2.0574,2.061,2.051,2.0573,0.0,0.0,0.0,1.1572,1.3483,1.5547,1.6533,1.8396,2.0131,2.0958,2.1945,2.2841,2.3434,2.374,2.4177,2.5135,2.5168,2.5157,2.5314,2.5065,2.4942,2.5243,2.5294,2.5281,2.5256,2.6103,2.6518,2.6185,2.6965,2.7356,2.7007,2.7007,2.685,2.6499,2.6499,2.6396,2.6213,2.6396,2.6396,2.6213,2.6396,2.6499,2.6499,2.6499,2.6499,2.6499,2.6305,2.6213,2.6166,2.5758,2.5606,2.5606,2.5382,2.5312,2.5312,2.5312,2.4685,2.3806,2.3806,2.3107,2.2197,2.2197,2.2197,2.2197,2.2197,2.2197,2.2197,2.2197,2.2197,2.2197,2.2197,2.2309,2.2359,2.2247,2.2309,2.242,2.242,2.2309,2.2247,2.2389,2.242,2.242,2.242,2.2586,2.2708,2.2708,2.2939,2.3108,2.3108,2.3407,2.3539,2.3433,2.3509,2.3599,2.3628,2.3789,2.3949,2.4083,2.4083,2.3574,2.2452,2.2413,2.1851,2.0725,2.0699,2.0775,2.0901,2.0775,2.0686,2.061,2.061,2.0772,0.9991,0.0,0.0,0.0,0.0,0.0,1.5267,1.6648,1.7889,1.8947,2.0599,2.1824,2.1808,2.2576,2.3519,2.437,2.5027,2.5538,2.5711,2.5896,2.5745,2.5037,2.5148,2.488,2.3819,2.4898,2.555,2.5208,2.6401,2.6985,2.6658,2.6658,2.6589,2.6499,2.6499,2.6465,2.643,2.6339,2.6339,2.643,2.6339,2.6374,2.6499,2.6499,2.6499,2.6499,2.643,2.643,2.6396,2.5968,2.591,2.6015,2.5793,2.5723,2.5723,2.5723,2.4971,2.3959,2.3959,2.316,2.2197,2.2197,2.2197,2.2197,2.2197,2.2197,2.2216,2.234,2.2278,2.2216,2.234,2.2359,2.242,2.2525,2.2586,2.2647,2.2726,2.2647,2.2555,2.2616,2.2616,2.2616,2.2616,2.2726,2.286,2.286,2.312,2.3313,2.3313,2.348,2.3599,2.3539,2.3569,2.3658,2.3789,2.3861,2.3949,2.4083,2.4083,2.3574,2.2452,2.2414,2.1852,2.0725,2.0699,2.0775,2.0901,2.0863,2.0911,2.1033,2.1118,2.1215,1.029,1.0557,1.088,1.1286,0.0,0.0,1.4604,1.5883,1.7005,1.8153,1.9495,2.0517,2.067,2.1303,2.2129,2.3114,2.388,2.4602,2.5347,2.5506,2.5324,2.4721,2.4936,2.4735,2.3904,2.4779,2.5329,2.5146,2.6306,2.6905,2.6714,2.6589,2.6521,2.6589,2.6589,2.6555,2.644,2.6349,2.6292,2.6258,2.6236,2.627,2.6361,2.6465,2.6499,2.6499,2.6499,2.6361,2.6101,2.5862,2.5806,2.5819,2.5635,2.5566,2.5566,2.5566,2.4958,2.4087,2.3758,2.3074,2.2278,2.2216,2.2197,2.2197,2.2197,2.2197,2.2216,2.2359,2.2402,2.2402,2.2389,2.2512,2.2604,2.269,2.2739,2.28,2.2878,2.28,2.2708,2.2769,2.2769,2.2769,2.2769,2.2848,2.2909,2.3,2.321,2.3403,2.3403,2.3582,2.373,2.373,2.373,2.3789,2.3979,2.3979,2.4037,2.4083,2.4083,2.3678,2.2752,2.2532,2.1956,2.1053,2.0805,2.0787,2.0949,2.0913,2.0999,2.1204,2.135,2.1399,1.058,1.0734,1.0754,1.1034,1.1705,0.0,1.4123,1.5418,1.6623,1.7643,1.8295,1.8837,1.9634,1.9748,2.0177,2.146,2.2001,2.2836,2.4487,2.4441,2.4312,2.4505,2.4713,2.4831,2.4755,2.5252,2.5565,2.5598,2.6451,2.6939,2.6939,2.6658,2.6555,2.6679,2.6679,2.6611,2.6427,2.6393,2.6233,2.5945,2.6097,2.6166,2.6166,2.6396,2.6499,2.6418,2.6465,2.6138,2.5532,2.5469,2.5378,2.5236,2.5114,2.5047,2.5047,2.5047,2.4702,2.4108,2.3445,2.287,2.2359,2.2247,2.2197,2.2197,2.2197,2.2228,2.2247,2.2389,2.2586,2.2678,2.2512,2.2665,2.2878,2.2769,2.286,2.2909,2.2909,2.283,2.2769,2.2909,2.2909,2.2909,2.2909,2.2909,2.2969,2.3047,2.3271,2.3403,2.3403,2.3684,2.392,2.392,2.392,2.3979,2.4083,2.4112,2.4112,2.4083,2.4112,2.388,2.3221,2.2689,2.214,2.1525,2.1026,2.0848,2.1033,2.0974,2.1048,2.1229,2.135,2.1423,1.0959,1.1144,1.1235,1.1268,1.1504,0.0,1.2615,1.3337,1.4007,1.453,1.5513,1.6413,1.6908,1.7389,1.81,1.9383,1.9941,2.1167,2.3939,2.4496,2.4657,2.474,2.4906,2.49,2.4586,2.5033,2.5444,2.5598,2.6227,2.6589,2.6589,2.6521,2.6555,2.6679,2.6679,2.6679,2.6645,2.6358,2.6211,2.6131,2.6015,2.5945,2.598,2.6327,2.6327,2.6015,2.6201,2.5844,2.5163,2.4719,2.4677,2.4886,2.4886,2.4788,2.4702,2.4821,2.4233,2.3433,2.3431,2.2914,2.2216,2.2228,2.2197,2.2197,2.2197,2.2278,2.2389,2.2586,2.2739,2.2848,2.2818,2.2848,2.2909,2.2987,2.3047,2.3047,2.3047,2.3047,2.3017,2.3047,2.2969,2.2939,2.3047,2.3047,2.3017,2.2939,2.321,2.3403,2.3403,2.3684,2.3949,2.4067,2.4067,2.4054,2.4083,2.4203,2.4203,2.4112,2.4332,2.4125,2.325,2.2798,2.2273,2.1667,2.1289,2.118,2.1326,2.1302,2.1326,2.135,2.1496,2.1568,1.1037,1.1089,1.1071,1.1116,1.1191,0.0,0.0,1.2738,1.3338,1.3655,1.43,1.4937,1.5197,1.5619,1.629,1.7426,1.8221,1.9522,2.1926,2.2997,2.3824,2.4659,2.4845,2.4992,2.5179,2.5549,2.5847,2.6025,2.6336,2.6499,2.6499,2.6555,2.6692,2.6829,2.6964,2.6964,2.6841,2.6577,2.6314,2.6062,2.5945,2.584,2.5758,2.6072,2.6084,2.591,2.6027,2.5592,2.4768,2.4444,2.4109,2.386,2.4071,2.4151,2.4151,2.4151,2.3838,2.3396,2.3076,2.2651,2.2309,2.2309,2.2247,2.2228,2.2278,2.2432,2.2555,2.2555,2.2757,2.3,2.2909,2.2939,2.3017,2.3078,2.3108,2.3108,2.3108,2.3047,2.3017,2.3078,2.3047,2.3017,2.3078,2.3047,2.303,2.312,2.3283,2.3433,2.348,2.373,2.392,2.3979,2.4008,2.4037,2.4083,2.4157,2.4203,2.4203,2.4376,2.4231,2.3769,2.2998,2.2194,2.1323,2.1168,2.118,2.1302,2.1375,2.1423,2.1496,2.1568,2.1616,1.0999,1.0882,1.0743,1.0909,1.0867,1.0955,0.0,0.0,0.0,1.2993,1.3241,1.3504,1.3707,1.3955,1.446,1.5408,1.6466,1.7653,1.9119,2.0515,2.2119,2.4076,2.4384,2.4731,2.5535,2.5945,2.6201,2.6361,2.643,2.643,2.643,2.6589,2.676,2.6943,2.71,2.7146,2.699,2.676,2.6405,2.6002,2.5945,2.5793,2.5618,2.5793,2.5875,2.5793,2.584,2.5283,2.4341,2.4255,2.3649,2.2806,2.3188,2.3392,2.3442,2.336,2.336,2.3318,2.2628,2.2389,2.2359,2.2359,2.2278,2.2216,2.2359,2.2555,2.2678,2.2543,2.2775,2.3078,2.2969,2.3017,2.3108,2.3108,2.3108,2.3108,2.3108,2.3017,2.2969,2.3078,2.3138,2.3138,2.3108,2.306,2.306,2.3313,2.339,2.348,2.3599,2.3819,2.3966,2.3966,2.3966,2.4024,2.4171,2.42,2.4245,2.435,2.4408,2.4408,2.435,2.328,2.2114,2.0926,2.1021,2.1131,2.1277,2.135,2.1471,2.1568,2.1616,2.164,1.1074,1.0882,1.07,1.0639,1.0545,1.0408,1.0258,0.0,1.0877,1.0708,0.0,1.1181,1.1706,0.0,0.0,1.3081,1.4079,1.5051,1.5756,1.712,1.9254,2.2561,2.325,2.3754,2.4492,2.5382,2.5945,2.598,2.6119,2.6236,2.6236,2.643,2.6589,2.6726,2.676,2.6829,2.699,2.6611,2.638,2.6358,2.6037,2.5793,2.5618,2.5793,2.5723,2.5382,2.5571,2.4976,2.386,2.3872,2.3244,2.2321,2.2659,2.2672,2.2579,2.2733,2.2622,2.2363,2.2383,2.234,2.2216,2.2216,2.2228,2.2216,2.2359,2.2555,2.2708,2.2818,2.2969,2.3108,2.3078,2.3078,2.3108,2.3108,2.3108,2.3108,2.3108,2.3078,2.3078,2.3108,2.3228,2.33,2.3138,2.3241,2.3313,2.3168,2.3378,2.3569,2.3599,2.3985,2.4234,2.4234,2.4234,2.4334,2.4534,2.4534,2.4563,2.4549,2.4778,2.4806,2.4578,2.354,2.2336,2.1023,2.1229,2.1423,2.1544,2.1447,2.1423,2.1423,2.1688,2.1769,1.0775,1.0735,1.0623,1.0323,1.0263,1.0199,0.9956,1.0245,1.0477,1.0181,0.0,0.0,0.0,0.0,0.0,0.0,1.2971,1.3892,1.4482,1.581,1.7799,2.0615,2.1367,2.2138,2.3294,2.4096,2.4716,2.5271,2.5656,2.591,2.6015,2.628,2.6461,2.653,2.676,2.6863,2.6841,2.6645,2.6474,2.628,2.6015,2.5793,2.5606,2.5571,2.5453,2.5312,2.55,2.4976,2.3926,2.3926,2.3297,2.2328,2.2463,2.2555,2.2586,2.2555,2.2525,2.2463,2.242,2.2309,2.2197,2.2197,2.2247,2.2309,2.2278,2.2463,2.2708,2.2769,2.2939,2.3108,2.3108,2.3108,2.3108,2.3108,2.3108,2.3108,2.3108,2.3108,2.3108,2.3108,2.333,2.345,2.33,2.342,2.3522,2.3552,2.3671,2.3789,2.3878,2.407,2.4203,2.4292,2.4292,2.4392,2.4578,2.4591,2.462,2.4706,2.4806,2.4687,2.421,2.3339,2.2497,2.1653,2.1403,2.135,2.1496,2.152,2.152,2.152,2.1712,2.1841,1.07,1.0667,1.0587,1.0184,1.01,1.0033,0.9731,0.9985,1.023,0.9925,1.0147,0.0,0.0,0.0,1.08,1.1045,0.0,1.2726,1.313,1.4463,1.6325,1.8715,1.9849,2.0931,2.2183,2.2868,2.3607,2.452,2.5007,2.539,2.5711,2.606,2.6255,2.6255,2.6658,2.6773,2.6611,2.6645,2.6521,2.6339,2.6084,2.591,2.5758,2.5571,2.5453,2.5453,2.5606,2.5066,2.4091,2.4091,2.3425,2.242,2.2451,2.2586,2.2678,2.2555,2.2586,2.2678,2.2512,2.2389,2.2247,2.2228,2.2278,2.2389,2.2278,2.2494,2.2739,2.2739,2.2969,2.3168,2.3168,2.3198,2.3228,2.3228,2.3228,2.3228,2.3228,2.3228,2.3228,2.3228,2.348,2.3641,2.3552,2.3611,2.373,2.3891,2.3891,2.3949,2.4083,2.4128,2.4203,2.4292,2.435,2.445,2.4649,2.4649,2.4706,2.4835,2.4835,2.4579,2.3931,2.342,2.283,2.2116,2.1711,2.1464,2.1399,2.1496,2.1616,2.1712,2.1793,2.1926,1.1074,1.0882,1.0623,1.0358,1.01,0.9802,0.9397,0.9574,0.9778,0.9556,0.9792,0.9996,1.0015,1.0015,1.0047,1.0047,1.0618,0.0,0.0,1.2482,1.4411,1.7,1.902,2.0517,2.1258,2.2045,2.2891,2.3781,2.4141,2.4644,2.5276,2.5688,2.591,2.591,2.6327,2.6487,2.6414,2.6474,2.6555,2.6692,2.6339,2.6179,2.6166,2.598,2.5875,2.5875,2.5875,2.5296,2.43,2.43,2.3553,2.242,2.2616,2.2678,2.272,2.2678,2.2678,2.272,2.2678,2.2555,2.2359,2.2247,2.2278,2.2389,2.2389,2.2635,2.2878,2.2878,2.312,2.3403,2.3403,2.348,2.3586,2.3586,2.3586,2.3586,2.3586,2.3586,2.3586,2.3586,2.376,2.3891,2.3891,2.3891,2.3891,2.3891,2.3891,2.3949,2.4083,2.4203,2.4292,2.4292,2.4478,2.4649,2.4778,2.4778,2.4835,2.4977,2.4977,2.465,2.3931,2.4,2.3446,2.2129,2.2216,2.1968,2.1399,2.1399,2.1616,2.1996,2.1996,2.1996,1.0775,1.0822,1.0845,1.03,1.0114,0.9929,0.9452,0.9332,0.9327,0.9568,0.9592,0.9649,1.0066,0.9987,0.9894,0.9989,1.0301,1.0555,0.0,1.1816,1.3437,1.5314,1.7007,1.8334,1.9172,2.027,2.1281,2.2139,2.2833,2.3662,2.4597,2.4888,2.5218,2.5676,2.6084,2.6305,2.6258,2.643,2.6521,2.6555,2.6339,2.6213,2.6201,2.598,2.591,2.591,2.6027,2.541,2.43,2.4431,2.3769,2.2616,2.2769,2.283,2.283,2.283,2.283,2.283,2.2739,2.2647,2.2586,2.2389,2.2463,2.2586,2.2451,2.2635,2.2909,2.2909,2.312,2.3403,2.3403,2.3509,2.3599,2.3599,2.3599,2.3599,2.3599,2.3599,2.3599,2.3599,2.3658,2.376,2.3891,2.3891,2.392,2.4037,2.4037,2.4067,2.4083,2.4128,2.4232,2.4463,2.4563,2.4706,2.492,2.492,2.4948,2.5005,2.5005,2.4895,2.4636,2.4285,2.3689,2.2825,2.2497,2.2007,2.1399,2.1592,2.1769,2.1996,2.2184,2.2254,1.0812,1.0887,1.0971,1.0532,1.0385,1.023,0.9861,0.964,0.9569,0.988,0.9702,0.9664,1.0104,0.9919,0.974,0.9798,1.0015,1.0269,0.0,1.1475,1.2621,1.3973,1.5543,1.6878,1.7815,1.8893,2.0014,2.113,2.1778,2.2616,2.3787,2.4241,2.4699,2.5105,2.5812,2.6166,2.6097,2.6361,2.6499,2.6499,2.6361,2.6305,2.6305,2.6188,2.6107,2.6119,2.6258,2.5614,2.4496,2.4638,2.3927,2.2769,2.2909,2.2939,2.2909,2.2939,2.2969,2.2939,2.283,2.2769,2.2739,2.2555,2.2616,2.2739,2.2604,2.2818,2.311,2.3237,2.3435,2.3603,2.3734,2.3782,2.3776,2.3776,2.3776,2.3776,2.3776,2.3776,2.3776,2.3776,2.3776,2.3819,2.3949,2.3979,2.4008,2.4083,2.4083,2.4083,2.4083,2.4083,2.42,2.4463,2.4563,2.4706,2.4977,2.5005,2.5005,2.5005,2.5005,2.5005,2.5005,2.4639,2.4136,2.354,2.293,2.2332,2.1784,2.176,2.1864,2.2161,2.2278,2.2408]}]]